[[{"header":{"parameterUnit":"m.s-1","parameterCategory":1,"la1":31.0,"la2":29.5877,"lo1":-88.7671,"lo2":-86.6584,"dy":0.0162,"dx":0.0185,"nx":115,"ny":88,"refTime":"2026-04-19T12:00:00:Z","depth":0,"parameterNumber":2,"parameterNumberName":"U-component_of_WINDS"},"data":[0.0,0.0,0.0,0.0,0.0,0.0,0.0,0.0,0.0,0.0,0.0,0.0,0.0,0.0,0.0,0.0,0.0,0.0,0.0,0.0,0.0,0.0,0.0,0.0,0.0,0.0,0.0,0.0,0.0,0.0,0.0,0.0,0.0,0.0,0.0,0.0,0.0,0.0,0.0,0.0,0.0,0.0,0.0,0.0,0.0,0.0,0.0,0.0,0.0,0.0,0.0,0.0,0.0,0.0,0.0,0.0,0.0,0.0,0.0,0.0,0.0,0.0,0.0,0.0,0.0,0.0,0.0,0.0,0.0,0.0,0.0,0.0,0.0,0.0,0.0,0.0,0.0,0.0,0.0,0.0,0.0,0.0,0.0,0.0,0.0,0.0,0.0,0.0,0.0,0.0,0.0,0.0,0.0,0.0,0.0,0.0,0.0,0.0,0.0,0.0,0.0,0.0,0.0,0.0,0.0,0.0,0.0,0.0,0.0,0.0,0.0,0.0,0.0,0.0,0.0,0.0,0.0,0.0,0.0,0.0,0.0,0.0,0.0,0.0,0.0,0.0,0.0,0.0,0.0,0.0,0.0,0.0,0.0,0.0,0.0,0.0,0.0,0.0,0.0,0.0,0.0,0.0,0.0,0.0,0.0,0.0,0.0,0.0,0.0,0.0,0.0,0.0,0.0,0.0,0.0,0.0,0.0,0.0,0.0,0.0,0.0,0.0,0.0,0.0,0.0,0.0,0.0,0.0,0.0,0.0,0.0,0.0,0.0,0.0,0.0,0.0,0.0,0.0,0.0,0.0,0.0,0.0,0.0,0.0,0.0,0.0,0.0,0.0,0.0,0.0,0.0,0.0,0.0,0.0,0.0,0.0,0.0,0.0,0.0,0.0,0.0,0.0,0.0,0.0,0.0,0.0,0.0,0.0,0.0,0.0,0.0,0.0,0.0,0.0,0.0,0.0,0.0,0.0,0.0,0.0,0.0,0.0,0.0,0.0,0.0,0.0,0.0,0.0,0.0,0.0,0.0,0.0,0.0,0.0,0.0,0.0,0.0,0.0,0.0,0.0,0.0,0.0,0.0,0.0,0.0,0.0,0.0,0.0,0.0,0.0,0.0,0.0,0.0,0.0,0.0,0.0,0.0,0.0,0.0,0.0,0.0,0.0,0.0,0.0,0.0,0.0,0.0,0.0,0.0,0.0,0.0,0.0,0.0,0.0,0.0,0.0,0.0,0.0,0.0,0.0,0.0,0.0,0.0,0.0,0.0,0.0,0.0,0.0,0.0,0.0,0.0,0.0,0.0,0.0,0.0,0.0,0.0,0.0,0.0,0.0,0.0,0.0,0.0,0.0,0.0,0.0,0.0,0.0,0.0,0.0,0.0,0.0,0.0,0.0,0.0,0.0,0.0,0.0,0.0,0.0,0.0,0.0,0.0,0.0,0.0,0.0,0.0,0.0,0.0,0.0,0.0,0.0,0.0,0.0,0.0,0.0,0.0,0.0,0.0,0.0,0.0,0.0,0.0,0.0,0.0,0.0,0.0,0.0,0.0,0.0,0.0,0.0,0.0,0.0,0.0,0.0,0.0,0.0,0.0,0.0,0.0,0.0,0.0,0.0,0.0,0.0,0.0,0.0,0.0,0.0,0.0,0.0,0.0,0.0,0.0,0.0,0.0,0.0,0.0,0.0,0.0,0.0,0.0,0.0,0.0,0.0,0.0,0.0,0.0,0.0,0.0,0.0,0.0,0.0,0.0,0.0,0.0,0.0,0.0,0.0,0.0,0.0,0.0,0.0,0.0,0.0,0.0,0.0,0.0,0.0,0.0,0.0,0.0,0.0,0.0,0.0,0.0,0.0,0.0,0.0,0.0,0.0,0.0,0.0,0.0,0.0,0.0,0.0,0.0,0.0,0.0,0.0,0.0,0.0,0.0,0.0,0.0,0.0,0.0,0.0,0.0,0.0,0.0,0.0,0.0,0.0,0.0,0.0,0.0,0.0,0.0,0.0,0.0,0.0,0.0,0.0,0.0,0.0,0.0,0.0,0.0,0.0,0.0,0.0,0.0,0.0,0.0,0.0,0.0,0.0,0.0,0.0,0.0,0.0,0.0,0.0,0.0,0.0,0.0,0.0,0.0,0.0,0.0,0.0,0.0,0.0,0.0,0.0,0.0,0.0,0.0,0.0,0.0,0.0,0.0,0.0,0.0,0.0,0.0,0.0,0.0,0.0,0.0,0.0,0.0,0.0,0.0,0.0,0.0,0.0,0.0,0.0,0.0,0.0,0.0,0.0,0.0,0.0,0.0,0.0,0.0,0.0,0.0,0.0,0.0,0.0,0.0,0.0,0.0,0.0,0.0,0.0,0.0,0.0,0.0,0.0,0.0,0.0,0.0,0.0,0.0,0.0,0.0,0.0,0.0,0.0,0.0,0.0,0.0,0.0,0.0,0.0,0.0,0.0,0.0,0.0,0.0,0.0,0.0,0.0,0.0,0.0,0.0,0.0,0.0,0.0,0.0,0.0,0.0,0.0,0.0,0.0,0.0,0.0,0.0,0.0,0.0,0.0,0.0,0.0,0.0,0.0,0.0,0.0,0.0,0.0,0.0,0.0,0.0,0.0,0.0,0.0,0.0,0.0,0.0,0.0,0.0,0.0,0.0,0.0,0.0,0.0,0.0,0.0,0.0,0.0,0.0,0.0,0.0,0.0,0.0,0.0,0.0,0.0,0.0,0.0,0.0,0.0,0.0,0.0,0.0,0.0,0.0,0.0,0.0,0.0,0.0,0.0,0.0,0.0,0.0,0.0,0.0,0.0,0.0,0.0,0.0,0.0,0.0,0.0,0.0,0.0,0.0,0.0,0.0,0.0,0.0,0.0,0.0,0.0,0.0,0.0,0.0,0.0,0.0,0.0,0.0,0.0,0.0,0.0,0.0,0.0,0.0,0.0,0.0,0.0,0.0,0.0,0.0,0.0,0.0,0.0,0.0,0.0,0.0,0.0,0.0,0.0,0.0,0.0,0.0,0.0,0.0,0.0,0.0,0.0,0.0,0.0,0.0,0.0,0.0,0.0,0.0,0.0,0.0,0.0,0.0,0.0,0.0,0.0,0.0,0.0,0.0,0.0,0.0,0.0,0.0,0.0,0.0,0.0,0.0,0.0,0.0,0.0,0.0,0.0,0.0,0.0,0.0,0.0,0.0,0.0,0.0,0.0,0.0,0.0,0.0,0.0,0.0,0.0,0.0,0.0,0.0,0.0,0.0,0.0,0.0,0.0,0.0,0.0,0.0,0.0,0.0,0.0,0.0,0.0,0.0,0.0,0.0,0.0,0.0,0.0,0.0,0.0,0.0,0.0,0.0,0.0,0.0,0.0,0.0,0.0,0.0,0.0,0.0,0.0,0.0,0.0,0.0,0.0,0.0,0.0,0.0,0.0,0.0,0.0,0.0,0.0,0.0,0.0,0.0,0.0,0.0,0.0,0.0,0.0,0.0,0.0,0.0,0.0,0.0,0.0,0.0,0.0,0.0,0.0,0.0,0.0,0.0,0.0,0.0,0.0,0.0,0.0,0.0,0.0,0.0,0.0,0.0,0.0,0.0,0.0,0.0,0.0,0.0,0.0,0.0,0.0,0.0,0.0,0.0,0.0,0.0,0.0,0.0,0.0,0.0,0.0,0.0,0.0,0.0,0.0,0.0,0.0,0.0,0.0,0.0,0.0,0.0,0.0,0.0,0.0,0.0,0.0,0.0,0.0,0.0,0.0,0.0,0.0,0.0,0.0,0.0,0.0,0.0,0.0,0.0,0.0,0.0,0.0,0.0,0.0,0.0,0.0,0.0,0.0,0.0,0.0,0.0,0.0,0.0,0.0,0.0,0.0,0.0,0.0,0.0,0.0,0.0,0.0,0.0,0.0,0.0,0.0,0.0,0.0,0.0,0.0,0.0,0.0,0.0,0.0,0.0,0.0,0.0,0.0,0.0,0.0,0.0,0.0,0.0,0.0,0.0,0.0,0.0,0.0,0.0,0.0,0.0,0.0,0.0,0.0,0.0,0.0,0.0,0.0,0.0,0.0,0.0,0.0,0.0,0.0,0.0,0.0,0.0,0.0,0.0,0.0,0.0,0.0,0.0,0.0,0.0,0.0,0.0,0.0,0.0,0.0,0.0,0.0,0.0,0.0,0.0,0.0,0.0,0.0,0.0,0.0,0.0,0.0,0.0,0.0,0.0,0.0,0.0,0.0,0.0,0.0,0.0,0.0,0.0,0.0,0.0,0.0,0.0,0.0,0.7845,0.0,0.0,0.0,0.0,0.0,0.0,0.0,0.0,0.0,0.0,0.0,0.0,0.0,0.0,0.0,0.0,0.0,0.0,0.0,0.0,0.0,0.0,0.0,0.0,0.0,0.0,0.0,0.0,0.0,0.0,0.0,0.0,0.0,0.0,0.0,0.0,0.0,0.0,0.0,0.0,0.0,0.0,0.0,0.0,0.0,0.0,0.0,0.0,0.0,0.0,0.0,0.0,0.0,0.0,0.0,0.0,0.0,0.0,0.0,0.0,0.0,0.0,0.0,0.0,0.0,0.0,0.0,0.0,0.0,0.0,0.0,0.0,0.0,0.0,0.0,0.0,0.0,0.0,0.0,0.0,0.0,0.0,0.0,0.0,0.0,0.0,0.0,0.0,0.0,0.0,0.0,0.0,0.0,0.0,0.0,0.0,0.0,0.0,0.0,0.0,0.0,0.0,0.0,0.0,0.0,0.0,0.0,0.0,0.0,0.0,0.8213,0.8182,0.8117,0.8011,0.7881,0.0,0.0,0.0,0.0,0.0,0.0,0.0,0.0,0.0,0.0,0.0,0.0,0.0,0.0,0.0,0.0,0.0,0.0,0.0,0.0,0.0,0.0,0.0,0.0,0.0,0.0,0.0,0.0,0.0,0.0,0.0,0.0,0.0,0.0,0.0,0.0,0.0,0.0,0.0,0.0,0.0,0.0,0.0,0.0,0.0,0.0,0.0,0.0,0.0,0.0,0.0,0.0,0.0,0.0,0.0,0.0,0.0,0.0,0.0,0.0,0.0,0.0,0.0,0.0,0.0,0.0,0.0,0.0,0.0,0.0,0.0,0.0,0.0,0.0,0.0,0.0,0.0,0.0,0.0,0.0,0.0,0.0,0.0,0.0,0.0,0.0,0.0,0.0,0.0,0.0,0.0,0.0,0.0,0.0,0.0,0.0,0.0,0.0,0.0,0.0,0.0,0.0,0.0,0.0,0.0,0.0,0.0,0.0,0.0,0.0,0.0,0.0,0.8902,0.8598,0.8022,0.0,0.0,0.0,0.0,0.0,0.0,0.0,0.0,0.0,0.0,0.0,0.0,0.0,0.0,0.0,0.0,0.0,0.0,0.0,0.0,0.0,0.0,0.0,0.0,0.0,0.0,0.0,0.0,0.0,0.0,0.0,0.0,0.0,0.0,0.0,0.0,0.0,0.0,0.0,0.0,0.0,0.0,0.0,0.0,0.0,0.0,0.0,0.0,0.0,0.0,0.0,0.0,0.0,0.0,0.0,0.0,0.0,0.0,0.0,0.0,0.0,0.0,0.0,0.0,0.0,0.0,0.0,0.0,0.0,0.0,0.0,0.0,0.0,0.0,0.0,0.0,0.0,0.0,0.0,0.0,0.0,0.0,0.0,0.0,0.0,0.0,0.0,0.0,0.0,0.0,0.0,0.0,0.0,0.0,0.0,0.0,0.0,0.0,0.0,0.0,0.0,0.0,0.0,0.0,0.0,0.0,0.0,0.0,0.0,0.0,0.9061,1.0024,0.9975,0.0,0.8952,0.0,0.0,0.0,0.0,0.0,0.0,0.0,0.0,0.0,0.0,0.0,0.0,0.0,0.0,0.0,0.0,0.0,0.0,0.0,0.0,0.0,0.0,0.0,0.0,0.0,0.0,0.0,0.0,0.0,0.0,0.0,0.0,0.0,0.0,0.0,0.0,0.0,0.0,0.0,0.0,0.0,0.0,0.0,0.0,0.0,0.0,0.0,0.0,0.0,0.0,0.0,0.0,0.0,0.0,0.0,0.0,0.0,0.0,0.0,0.0,0.0,0.0,0.0,0.0,0.0,0.0,0.0,0.0,0.0,0.0,0.0,0.0,0.0,0.0,0.0,0.0,0.0,0.0,0.0,0.0,0.0,0.0,0.0,0.0,0.0,0.0,0.0,0.0,0.0,0.0,0.0,0.0,0.0,0.0,0.0,0.0,0.0,0.0,0.0,0.0,0.0,0.0,0.0,0.0,0.0,0.0,0.0,0.0,0.0,0.0,0.0,0.9792,0.9979,0.9744,0.0,0.0,0.0,0.0,0.0,0.0,0.0,0.0,0.0,0.0,0.0,0.0,0.0,0.0,0.0,0.0,0.0,0.0,0.0,0.0,0.0,0.0,0.0,0.0,0.0,0.0,0.0,0.0,0.0,0.0,0.0,0.0,0.0,0.0,0.0,0.0,0.0,0.0,0.0,0.0,0.0,0.0,0.0,0.0,0.0,0.0,0.0,0.0,0.0,0.0,0.0,0.0,0.0,0.0,0.0,0.0,0.0,0.0,0.0,0.0,0.0,0.0,0.0,0.0,0.0,0.0,0.0,0.0,0.0,0.0,0.0,0.0,0.0,0.0,0.0,0.0,0.0,0.0,0.0,0.0,0.0,0.0,0.0,0.0,0.0,0.0,0.0,0.0,0.0,0.0,0.0,0.0,0.0,0.0,0.0,0.0,0.0,0.0,0.0,0.0,0.0,0.0,0.0,0.0,0.0,0.0,0.0,0.0,0.0,0.0,0.8935,0.0,1.0126,1.0221,0.9892,0.9076,0.0,0.0,0.0,0.0,0.0,0.0,0.0,0.0,0.0,0.0,0.0,0.0,0.0,0.0,0.0,0.0,0.0,0.0,0.0,0.0,0.0,0.0,0.0,0.0,0.0,0.0,0.0,0.0,0.0,0.0,0.0,0.0,0.0,0.0,0.0,0.0,0.0,0.0,0.0,0.0,0.0,0.0,0.0,0.0,0.0,0.0,0.0,0.0,0.0,0.0,0.0,0.0,0.0,0.0,0.0,0.0,0.0,0.0,0.0,0.0,0.0,0.0,0.0,0.0,0.0,0.0,0.0,0.0,0.0,0.0,0.0,0.0,0.0,0.0,0.0,0.0,0.0,0.0,0.0,0.0,0.0,0.0,0.0,0.0,0.0,0.0,0.0,0.0,0.0,0.0,0.0,0.0,0.0,0.0,0.0,0.0,0.0,0.0,0.0,0.0,0.0,0.0,0.0,0.0,0.0,0.0,0.0,0.0,0.0,0.9709,1.021,1.1602,1.1022,1.0223,0.0,0.0,0.0,0.0,0.0,0.0,0.0,0.0,0.0,0.0,0.0,0.0,0.0,0.0,0.0,0.0,0.0,0.0,0.0,0.0,0.0,0.0,0.0,0.0,0.0,0.0,0.0,0.0,0.0,0.0,0.0,0.0,0.0,0.0,0.0,0.0,0.0,0.0,0.0,0.0,0.0,0.0,0.0,0.0,0.0,0.0,0.0,0.0,0.0,0.0,0.0,0.0,0.0,0.0,0.0,0.0,0.0,0.0,0.0,0.0,0.0,0.0,0.0,0.0,0.0,0.0,0.0,0.0,0.0,0.0,0.0,0.0,0.0,0.0,0.0,0.0,0.0,0.0,0.0,0.0,0.0,0.0,0.0,0.0,0.0,0.0,0.0,0.0,0.0,0.0,0.0,0.0,0.0,0.0,0.0,0.0,0.0,0.0,0.0,0.0,0.0,0.0,0.0,0.0,0.0,0.0,0.0,0.0,0.0,0.8108,0.8625,1.0023,1.2135,1.0404,0.9462,0.0,0.0,0.0,0.0,0.0,0.0,0.0,0.0,0.0,0.0,0.0,0.0,0.0,0.0,0.0,0.0,0.0,0.0,0.0,0.0,0.0,0.0,0.0,0.0,0.0,0.0,0.0,0.0,0.0,0.0,0.0,0.0,0.0,0.0,0.0,0.0,0.0,0.0,0.0,0.0,0.0,0.0,0.0,0.0,0.0,0.0,0.0,0.0,0.0,0.0,0.0,0.0,0.0,0.0,0.0,0.0,0.0,0.0,0.0,0.0,0.0,0.0,0.0,0.0,0.0,0.0,0.0,0.0,0.0,0.0,0.0,0.0,0.0,0.0,0.0,0.0,0.0,0.0,0.0,0.0,0.0,0.0,0.0,0.0,0.0,0.0,0.0,0.0,0.0,0.0,0.0,0.0,0.0,0.0,0.0,0.0,0.0,0.0,0.0,0.0,0.0,0.0,0.0,0.0,0.0,0.0,0.0,0.0,0.0,0.8034,0.0,1.0554,0.0,1.0296,0.9287,0.0,0.0,0.0,0.0,0.0,0.0,0.0,0.0,0.0,0.0,0.0,0.0,0.0,0.0,0.0,0.0,0.0,0.0,0.0,0.0,0.0,0.0,0.0,0.0,0.0,0.0,0.0,0.0,0.0,0.0,0.0,0.0,0.0,0.0,0.0,0.0,0.0,0.0,0.0,0.0,0.0,0.0,0.0,0.0,0.0,0.0,0.0,0.0,0.0,0.0,0.0,0.0,0.0,0.0,0.0,0.0,0.0,0.0,0.0,0.0,0.0,0.0,0.0,0.0,0.0,0.0,0.0,0.0,0.0,0.0,0.0,0.0,0.0,0.0,0.0,0.0,0.0,0.0,0.0,0.0,0.0,0.0,0.0,0.0,0.0,0.0,0.0,0.0,0.0,0.0,0.0,0.0,0.0,0.0,0.0,0.0,0.0,0.0,0.0,0.0,0.0,0.0,0.0,0.0,0.0,0.0,0.0,0.0,0.0,1.0221,1.1316,1.1803,1.1784,1.0804,0.9733,0.0,0.0,0.0,0.0,0.0,0.0,0.0,0.0,0.0,0.0,0.0,0.0,0.0,0.0,0.0,0.0,0.0,0.0,0.0,0.0,0.0,0.0,0.0,0.0,0.0,0.0,0.0,0.0,0.0,0.0,0.0,0.0,0.0,0.0,0.0,0.0,0.0,0.0,0.0,0.0,0.0,0.0,0.0,0.0,0.0,0.0,0.0,0.0,0.0,0.0,0.0,0.0,0.0,0.0,0.0,0.0,0.0,0.0,0.0,0.0,0.0,0.0,0.0,0.0,0.0,0.0,0.0,0.0,0.0,0.0,0.0,0.0,0.0,0.0,0.0,0.0,0.0,0.0,0.0,0.0,0.0,0.0,0.0,0.0,0.0,0.0,0.0,0.0,0.0,0.0,0.0,0.0,0.0,0.0,0.0,0.0,0.0,0.0,0.0,0.0,0.0,0.0,0.0,0.0,0.0,0.0,0.0,0.0,0.0,1.0325,1.0612,1.1293,1.2292,1.0211,0.9194,0.0,0.0,0.0,0.0,0.0,0.0,0.0,0.0,0.0,0.0,0.0,0.0,0.0,0.0,0.0,0.0,0.0,0.0,0.0,0.0,0.0,0.0,0.0,0.0,0.0,0.0,0.0,0.0,0.0,0.0,0.0,0.0,0.0,0.0,0.0,0.0,0.0,0.0,0.0,0.0,0.0,0.0,0.0,0.0,0.0,0.0,0.0,0.0,0.0,0.0,0.0,0.0,0.0,0.0,0.0,0.0,0.0,0.0,0.0,0.0,0.0,0.0,0.0,0.0,0.0,0.0,0.0,0.0,0.0,0.0,0.0,0.0,0.0,0.0,0.0,0.0,0.0,0.0,0.0,0.0,0.0,0.0,0.0,0.0,0.0,0.0,0.0,0.0,0.0,0.0,0.0,0.0,0.0,0.0,0.0,0.0,0.0,0.0,0.0,0.0,0.0,0.0,0.0,0.0,0.0,0.0,0.0,0.0,0.0,1.1851,1.1821,1.2103,1.2794,1.0899,0.9851,0.976,0.0,0.0,0.0,0.0,0.0,0.0,0.0,0.0,0.0,0.0,0.0,0.0,0.0,0.0,0.0,0.0,0.0,0.0,0.0,0.0,0.0,0.0,0.0,0.0,0.0,0.0,0.0,0.0,0.0,0.0,0.0,0.0,0.0,0.0,0.0,0.0,0.0,0.0,0.0,0.0,0.0,0.0,0.0,0.0,0.0,0.0,0.0,0.0,0.0,0.0,0.0,0.0,0.0,0.0,0.0,0.0,0.0,0.0,0.0,0.0,0.0,0.0,0.0,0.0,0.0,0.0,0.0,0.0,0.0,0.0,0.0,0.0,0.0,0.0,0.0,0.0,0.0,0.0,0.0,0.0,0.0,0.0,0.0,0.0,0.0,0.0,0.0,0.0,0.0,0.0,0.0,0.0,0.0,0.0,0.0,0.0,0.0,0.0,0.0,0.0,0.0,0.0,0.0,0.0,0.0,0.0,0.0,0.0,1.4457,1.4578,1.4132,1.3129,1.2544,1.138,0.0,0.0,0.0,0.0,0.0,0.0,0.0,0.0,0.0,0.0,0.0,0.0,0.0,0.0,0.0,0.0,0.0,0.0,0.0,0.0,0.0,0.0,0.0,0.0,0.0,0.0,0.0,0.0,0.0,0.0,0.0,0.0,0.0,0.0,0.0,0.0,0.0,0.0,0.0,0.0,0.0,0.0,0.0,0.0,0.0,0.0,0.0,0.0,0.0,0.0,0.0,0.0,0.0,0.0,0.0,0.0,0.0,0.0,0.0,0.0,0.0,0.0,0.0,0.0,0.0,0.0,0.0,0.0,0.0,0.0,0.0,0.0,0.0,0.0,0.0,0.0,0.0,0.0,0.0,0.0,0.0,0.0,0.0,0.0,0.0,0.0,0.0,0.0,0.0,0.0,0.0,0.0,0.0,0.0,0.0,0.0,0.0,0.0,0.0,0.0,0.0,0.0,0.0,0.0,0.0,0.0,0.0,0.0,0.0,1.5057,1.58,1.5543,1.4153,1.2897,1.1678,0.0,0.0,0.0,0.0,0.0,0.0,0.0,0.0,0.0,0.0,0.0,0.0,0.0,0.0,0.0,0.0,0.0,0.0,0.0,0.0,0.0,0.0,0.0,0.0,0.0,0.0,0.0,0.0,0.0,0.0,0.0,0.0,0.0,0.0,0.0,0.0,0.0,0.0,0.0,0.0,0.0,0.0,0.0,0.0,0.0,0.0,0.0,0.0,0.0,0.0,0.0,0.0,0.0,0.0,0.0,0.0,0.0,0.0,0.0,0.0,0.0,0.0,0.0,0.0,0.0,0.0,0.0,0.0,0.0,0.0,0.0,0.0,0.0,0.0,0.0,0.0,0.0,0.0,0.0,0.0,0.0,0.0,0.0,0.0,0.0,0.0,0.0,0.0,0.0,0.0,0.0,0.0,0.0,0.0,0.0,0.0,0.0,0.0,0.0,0.0,0.0,0.0,0.0,0.0,0.0,0.0,0.0,0.0,1.5248,1.5852,1.6703,1.6513,1.5119,1.3978,1.2597,0.0,0.0,0.0,0.0,0.0,0.0,0.0,0.0,0.0,0.0,0.0,0.0,0.0,0.0,0.0,0.0,0.0,0.0,0.0,0.0,0.0,0.0,0.0,0.0,0.0,0.0,0.0,0.0,0.0,0.0,0.0,0.0,0.0,0.0,0.0,0.0,0.0,0.0,0.0,0.0,0.0,0.0,0.0,0.0,0.0,0.0,0.0,0.0,0.0,0.0,0.0,0.0,0.0,0.0,0.0,0.0,0.0,0.0,0.0,0.0,0.0,0.0,0.0,0.0,0.0,0.0,0.0,0.0,0.0,0.0,0.0,0.0,0.0,0.0,0.0,0.0,0.0,0.0,0.0,0.0,0.0,0.0,0.0,0.0,0.0,0.0,0.0,0.0,0.0,0.0,0.0,0.0,0.0,0.0,0.0,0.0,0.0,0.0,0.0,0.0,0.0,0.0,0.0,0.0,0.0,0.0,0.0,0.0,1.586,1.6511,1.7291,1.7089,1.5931,1.5263,1.3709,0.0,0.0,0.0,0.0,0.0,0.0,0.0,0.0,0.0,0.0,0.0,0.0,0.0,0.0,0.0,0.0,0.0,0.0,0.0,0.0,0.0,0.0,0.0,0.0,0.0,0.0,0.0,0.0,0.0,0.0,0.0,0.0,0.0,0.0,0.0,0.0,0.0,0.0,0.0,0.0,0.0,0.0,0.0,0.0,0.0,0.0,0.0,0.0,0.0,0.0,0.0,0.0,0.0,0.0,0.0,0.0,0.0,0.0,0.0,0.0,0.0,0.0,0.0,0.0,0.0,0.0,0.0,0.0,0.0,0.0,0.0,0.0,0.0,0.0,0.0,0.0,0.0,0.0,0.0,0.0,0.0,0.0,0.0,0.0,0.0,0.0,0.0,0.0,0.0,0.0,0.0,0.0,0.0,0.0,0.0,0.0,0.0,0.0,0.0,0.0,0.0,0.0,0.0,0.0,0.0,0.0,0.0,0.0,1.5921,1.5974,1.6964,1.6908,1.5762,1.4947,1.3744,0.0,0.0,0.0,0.0,0.0,0.0,0.0,0.0,0.0,0.0,0.0,0.0,0.0,0.0,0.0,0.0,0.0,0.0,0.0,0.0,0.0,0.0,0.0,0.0,0.0,0.0,0.0,0.0,0.0,0.0,0.0,0.0,0.0,0.0,0.0,0.0,0.0,0.0,0.0,0.0,0.0,0.0,0.0,0.0,0.0,0.0,0.0,0.0,1.3417,0.0,0.0,0.0,0.0,0.0,0.0,0.0,0.0,0.0,0.0,0.0,0.0,0.0,0.0,0.0,0.0,0.0,0.0,0.0,0.0,0.0,0.0,0.0,0.0,0.0,0.0,0.0,0.0,0.0,0.0,0.0,0.0,0.0,0.0,0.0,0.0,0.0,0.0,0.0,0.0,0.0,0.0,0.0,0.0,0.0,0.0,0.0,0.0,0.0,0.0,0.0,0.0,0.0,0.0,0.0,0.0,0.0,0.0,0.0,1.6197,1.6507,1.71,1.6951,1.605,1.5155,1.4022,0.0,0.0,0.0,0.0,0.0,0.0,0.0,0.0,0.0,0.0,0.0,0.0,0.0,0.0,0.0,0.0,0.0,0.0,0.0,0.0,0.0,0.0,0.0,0.0,0.0,0.0,0.0,0.0,0.0,0.0,0.0,0.0,0.0,0.0,0.0,0.0,0.0,0.0,0.0,0.0,0.0,0.0,0.0,0.0,0.0,0.0,0.0,0.0,0.0,0.0,0.0,0.0,0.0,0.0,0.0,0.0,0.0,0.0,0.0,0.0,0.0,0.0,0.0,0.0,0.0,0.0,0.0,0.0,0.0,0.0,0.0,0.0,0.0,0.0,0.0,0.0,0.0,0.0,0.0,0.0,0.0,0.0,0.0,0.0,0.0,0.0,0.0,0.0,0.0,0.0,0.0,0.0,0.0,0.0,0.0,0.0,0.0,0.0,0.0,0.0,0.0,0.0,0.0,0.0,0.0,0.0,0.0,1.5453,1.6305,1.713,1.7219,1.6976,1.6396,1.5559,1.4436,0.0,0.0,0.0,0.0,0.0,0.0,0.0,0.0,0.0,0.0,0.0,0.0,0.0,0.0,0.0,0.0,0.0,0.0,0.0,0.0,0.0,0.0,0.0,0.0,0.0,0.0,0.0,0.0,0.0,0.0,0.0,0.0,0.0,0.0,0.0,0.0,0.0,0.0,0.0,1.3199,1.4741,0.0,0.0,0.0,0.0,0.0,0.0,0.0,0.0,1.4158,0.0,0.0,0.0,0.0,0.0,0.0,0.0,0.0,0.0,0.0,0.0,0.0,0.0,0.0,0.0,0.0,0.0,0.0,0.0,0.0,0.0,0.0,0.0,0.0,0.0,0.0,0.0,0.0,0.0,0.0,0.0,0.0,0.0,0.0,0.0,0.0,0.0,0.0,0.0,0.0,0.0,0.0,0.0,0.0,0.0,0.0,0.0,0.0,0.0,0.0,0.0,0.0,0.0,0.0,0.0,0.0,1.5507,1.5185,1.5503,1.6518,1.6559,1.6516,1.6381,1.587,1.4938,1.3526,0.0,0.0,0.0,0.0,0.0,0.0,0.0,0.0,0.0,0.0,0.0,0.0,0.0,0.0,0.0,0.0,0.0,0.0,0.0,0.0,0.0,0.0,0.0,0.0,0.0,0.0,0.0,0.0,0.0,0.0,0.0,0.0,0.0,0.0,0.0,0.0,0.0,0.0,0.0,1.578,1.6775,0.0,0.0,0.0,0.0,0.0,0.0,0.0,0.0,1.3569,0.0,0.0,0.0,0.0,0.0,0.0,0.0,0.0,0.0,0.0,0.0,0.0,0.0,0.0,0.0,0.0,0.0,0.0,0.0,0.0,0.0,0.0,0.0,0.0,0.0,0.0,0.0,0.0,0.0,0.0,0.0,0.0,0.0,0.0,0.0,0.0,0.0,0.0,0.0,0.0,0.0,0.0,0.0,0.0,0.0,0.0,0.0,0.0,0.0,0.0,0.0,0.0,0.0,0.0,0.0,1.493,1.496,1.5518,1.6759,1.6525,1.6388,1.6367,1.5463,1.4552,0.0,0.0,0.0,0.0,0.0,0.0,0.0,0.0,0.0,0.0,0.0,0.0,0.0,0.0,0.0,0.0,0.0,0.0,0.0,0.0,0.0,0.0,0.0,0.0,0.0,0.0,0.0,0.0,0.0,0.0,0.0,0.0,0.0,0.0,0.0,0.0,0.0,0.0,0.0,0.0,1.6479,1.7265,1.7356,0.0,0.0,0.0,0.0,0.0,0.0,1.5077,1.4444,0.0,0.0,0.0,0.0,0.0,0.0,0.0,0.0,0.0,0.0,0.0,0.0,0.0,0.0,0.0,0.0,0.0,0.0,0.0,0.0,0.0,0.0,0.0,0.0,0.0,0.0,0.0,0.0,0.0,0.0,0.0,0.0,0.0,0.0,0.0,0.0,0.0,0.0,0.0,0.0,0.0,0.0,0.0,0.0,0.0,0.0,0.0,0.0,0.0,0.0,0.0,0.0,0.0,0.0,0.0,1.4313,1.4879,1.5743,1.696,1.6623,1.6388,1.6367,1.5214,1.4283,0.0,0.0,0.0,0.0,0.0,0.0,0.0,0.0,0.0,0.0,0.0,0.0,0.0,0.0,0.0,0.0,0.0,0.0,0.0,0.0,0.0,0.0,0.0,0.0,0.0,0.0,0.0,0.0,0.0,0.0,0.0,0.0,0.0,0.0,0.0,0.0,0.0,0.0,0.0,0.0,0.0,1.8131,1.8291,1.8109,0.0,0.0,0.0,0.0,1.6869,1.6537,0.0,0.0,0.0,0.0,0.0,0.0,0.0,0.0,0.0,0.0,0.0,0.0,0.0,0.0,0.0,0.0,0.0,0.0,0.0,0.0,0.0,0.0,0.0,0.0,0.0,0.0,0.0,0.0,0.0,0.0,0.0,0.0,0.0,0.0,0.0,0.0,0.0,0.0,0.0,0.0,0.0,0.0,0.0,0.0,0.0,0.0,0.0,0.0,0.0,0.0,0.0,0.0,0.0,0.0,0.0,0.0,1.4174,1.5092,1.5831,1.6454,1.6445,1.6388,1.6388,1.5849,1.4912,0.0,0.0,0.0,0.0,0.0,0.0,0.0,0.0,0.0,0.0,0.0,0.0,0.0,0.0,0.0,0.0,0.0,0.0,0.0,0.0,0.0,0.0,0.0,0.0,0.0,0.0,0.0,0.0,0.0,0.0,0.0,0.0,0.0,0.0,0.0,0.0,0.0,0.0,0.0,0.0,0.0,2.0051,1.7681,1.8179,1.8562,0.0,0.0,0.0,1.8377,1.871,0.0,0.0,0.0,0.0,0.0,0.0,0.0,0.0,0.0,0.0,0.0,0.0,0.0,0.0,0.0,0.0,0.0,0.0,0.0,0.0,0.0,0.0,0.0,0.0,0.0,0.0,0.0,0.0,0.0,0.0,0.0,0.0,0.0,0.0,0.0,0.0,0.0,0.0,0.0,0.0,0.0,0.0,0.0,0.0,0.0,0.0,0.0,0.0,0.0,0.0,0.0,0.0,0.0,0.0,0.0,0.0,1.386,1.5303,1.6287,1.6726,1.6732,1.6752,1.6732,1.5546,1.4511,0.0,0.0,0.0,0.0,0.0,0.0,0.0,0.0,0.0,0.0,0.0,0.0,0.0,0.0,0.0,0.0,0.0,0.0,0.0,0.0,0.0,0.0,0.0,0.0,0.0,0.0,0.0,0.0,0.0,0.0,0.0,0.0,0.0,0.0,0.0,0.0,0.0,0.0,0.0,0.0,0.0,0.0,1.9641,1.9798,0.0,0.0,0.0,1.9923,1.9857,0.0,0.0,0.0,0.0,0.0,0.0,0.0,0.0,0.0,0.0,0.0,0.0,0.0,0.0,0.0,0.0,0.0,0.0,0.0,0.0,0.0,0.0,0.0,0.0,0.0,0.0,0.0,0.0,0.0,0.0,0.0,0.0,0.0,0.0,0.0,0.0,0.0,0.0,0.0,0.0,0.0,0.0,0.0,0.0,0.0,0.0,0.0,0.0,0.0,0.0,0.0,0.0,0.0,0.0,0.0,0.0,0.0,1.3597,1.5546,1.6705,1.6977,1.7012,1.7012,1.6971,1.5353,0.0,0.0,0.0,0.0,0.0,0.0,0.0,0.0,0.0,0.0,0.0,0.0,0.0,0.0,0.0,0.0,0.0,0.0,0.0,0.0,0.0,0.0,0.0,0.0,0.0,0.0,0.0,0.0,0.0,0.0,0.0,0.0,0.0,0.0,0.0,0.0,0.0,0.0,0.0,0.0,0.0,0.0,2.0313,2.1368,2.1538,2.1695,0.0,0.0,2.1942,2.1407,2.142,2.0616,0.0,0.0,0.0,0.0,0.0,0.0,0.0,0.0,0.0,0.0,0.0,0.0,0.0,0.0,0.0,0.0,0.0,0.0,0.0,0.0,0.0,0.0,0.0,0.0,0.0,0.0,0.0,0.0,0.0,0.0,0.0,0.0,0.0,0.0,0.0,0.0,0.0,0.0,0.0,0.0,0.0,0.0,0.0,0.0,0.0,0.0,0.0,0.0,0.0,0.0,0.0,0.0,0.0,0.0,0.0,1.3662,1.5828,1.6971,1.7012,1.7012,1.7012,1.6971,1.5663,1.4531,0.0,0.0,0.0,0.0,0.0,0.0,0.0,0.0,0.0,0.0,0.0,0.0,0.0,0.0,0.0,0.0,0.0,0.0,0.0,0.0,0.0,0.0,0.0,0.0,0.0,0.0,0.0,0.0,0.0,0.0,0.0,0.0,0.0,0.0,0.0,0.0,0.0,0.0,0.0,0.0,0.0,2.2496,2.1616,2.2857,2.3876,0.0,0.0,2.3719,2.3118,2.3695,2.3,1.9373,0.0,0.0,0.0,0.0,0.0,0.0,0.0,0.0,0.0,0.0,0.0,0.0,0.0,0.0,0.0,0.0,0.0,0.0,0.0,0.0,0.0,0.0,0.0,0.0,0.0,0.0,0.0,0.0,0.0,0.0,0.0,0.0,0.0,0.0,0.0,0.0,0.0,0.0,0.0,0.0,0.0,0.0,0.0,0.0,0.0,0.0,0.0,0.0,0.0,0.0,0.0,0.0,0.0,1.2877,1.4043,1.6283,1.758,1.7864,1.7864,1.7724,1.744,1.6415,1.5152,0.0,0.0,0.0,0.0,0.0,0.0,0.0,0.0,0.0,0.0,0.0,0.0,0.0,0.0,0.0,0.0,0.0,0.0,0.0,0.0,0.0,0.0,0.0,0.0,0.0,0.0,0.0,0.0,1.0756,1.1135,1.184,0.0,0.0,0.0,0.0,0.0,0.0,0.0,0.0,0.0,0.0,2.2166,2.2822,2.3717,0.0,0.0,2.4946,2.4883,2.465,2.4255,2.3034,2.0153,1.8743,0.0,0.0,0.0,0.0,0.0,0.0,0.0,0.0,0.0,0.0,0.0,0.0,0.0,0.0,0.0,0.0,0.0,0.0,0.0,0.0,0.0,0.0,0.0,0.0,0.0,0.0,0.0,0.0,0.0,0.0,0.0,0.0,0.0,0.0,0.0,0.0,0.0,0.0,0.0,0.0,0.0,0.0,0.0,0.0,0.0,0.0,0.0,0.0,0.0,0.0,0.0,0.0,1.3073,1.4291,1.6531,1.7931,1.8414,1.8414,1.8175,1.7709,1.685,1.5601,0.0,0.0,0.0,0.0,0.0,0.0,0.0,0.0,0.0,0.0,0.0,0.0,0.0,0.0,0.0,0.0,0.0,0.0,0.0,0.0,0.0,0.0,0.0,0.0,0.0,0.0,0.0,0.0,1.1705,1.209,1.3059,0.0,0.0,0.0,0.0,0.0,0.0,0.0,0.0,0.0,0.0,2.2527,2.4019,2.4771,2.5243,2.5395,2.5591,2.5581,2.5246,2.4433,2.3127,2.1065,0.0,0.0,0.0,0.0,0.0,0.0,0.0,0.0,0.0,0.0,0.0,0.0,0.0,0.0,0.0,0.0,0.0,0.0,0.0,0.0,0.0,0.0,0.0,0.0,0.0,0.0,0.0,0.0,0.0,0.0,0.0,0.0,0.0,0.0,0.0,0.0,0.0,0.0,0.0,0.0,0.0,0.0,0.0,0.0,0.0,0.0,0.0,0.0,0.0,0.0,0.0,0.0,0.0,0.0,1.4324,1.6552,1.7931,1.8398,1.8398,1.8195,1.7693,1.685,1.5746,1.4312,0.0,0.0,0.0,0.0,0.0,0.0,0.0,0.0,0.0,0.0,0.0,0.0,0.0,0.0,0.0,0.0,0.0,0.0,0.0,0.0,0.0,0.0,0.0,0.0,0.0,0.0,1.2797,1.2875,1.3103,0.0,0.0,0.0,0.0,0.0,0.0,0.0,0.0,0.0,0.0,2.263,2.4096,2.5105,2.62,2.6482,2.5473,2.5823,2.5813,2.4751,2.4341,2.3679,0.0,0.0,0.0,0.0,0.0,0.0,0.0,0.0,0.0,0.0,0.0,0.0,0.0,0.0,0.0,0.0,0.0,0.0,0.0,0.0,0.0,0.0,0.0,0.0,0.0,0.0,0.0,1.4264,1.3574,0.0,0.0,0.0,0.0,0.0,0.0,0.0,0.0,0.0,0.0,0.0,1.5823,1.6776,0.0,0.0,0.0,0.0,0.0,0.0,0.0,0.0,0.0,0.0,0.0,0.0,1.3671,1.5214,1.6876,1.8092,1.8833,1.887,1.8646,1.8175,1.7595,1.6483,1.4821,0.0,0.0,0.0,0.0,0.0,0.0,0.0,0.0,0.0,0.0,0.0,0.0,0.0,0.0,0.0,0.0,0.0,0.0,0.0,0.0,0.0,0.0,0.0,0.0,0.0,1.327,0.0,0.0,0.0,0.0,0.0,0.0,0.0,0.0,0.0,0.0,0.0,1.9907,2.1451,2.3043,2.4463,2.5542,2.5911,2.6105,0.0,0.0,0.0,0.0,0.0,0.0,0.0,0.0,0.0,0.0,0.0,0.0,0.0,0.0,2.2885,1.9399,1.8449,1.8215,1.8204,0.0,0.0,0.0,0.0,0.0,0.0,0.0,0.0,0.0,0.0,0.0,0.0,0.0,0.0,0.0,0.0,1.4526,0.0,0.0,0.0,0.0,0.0,0.0,0.0,0.0,1.765,1.8051,1.6992,1.8083,1.7978,0.0,1.6663,1.5449,0.0,0.0,0.0,0.0,0.0,0.0,0.0,0.0,1.4407,1.5918,1.7264,1.8319,1.9056,1.9098,1.8891,1.8382,1.7657,1.6622,1.529,1.381,1.2773,0.0,0.0,0.0,0.0,0.0,0.0,0.0,0.0,0.0,0.0,0.0,0.0,0.0,0.0,0.0,0.0,0.0,0.0,0.0,0.0,0.0,0.0,0.0,1.4037,0.0,0.0,0.0,0.0,0.0,0.0,0.0,0.0,0.0,1.7624,1.9379,2.1088,2.2383,2.3445,2.4421,2.5286,0.0,0.0,0.0,0.0,0.0,0.0,0.0,2.374,2.2782,2.2089,2.1487,2.0991,2.2821,2.4128,2.3422,0.0,0.0,2.157,2.0707,2.0412,2.0412,2.1108,2.1601,2.1212,2.2028,2.2716,0.0,0.0,0.0,0.0,0.0,0.0,0.0,0.0,1.6181,1.6417,0.0,1.6212,0.0,0.0,0.0,0.0,0.0,0.0,0.0,0.0,1.8732,1.9324,1.9315,1.9441,1.8906,1.7848,1.8227,1.7522,1.5794,1.3935,0.0,0.0,0.0,0.0,0.0,0.0,1.5497,1.645,1.7735,1.8642,1.9077,1.9098,1.8891,1.8414,1.7154,1.6264,1.5746,1.4863,1.3745,1.2452,1.1934,0.0,0.0,0.0,0.0,0.0,0.0,0.0,0.0,0.0,0.0,0.0,0.0,0.0,0.0,0.0,0.0,0.0,0.0,0.0,0.0,1.4504,0.0,0.0,0.0,0.0,0.0,0.0,0.0,0.0,0.0,0.0,1.9175,2.0305,2.1705,2.3579,0.0,0.0,0.0,0.0,2.3912,2.3451,2.3735,2.4032,2.3877,2.3859,2.3836,2.3781,0.0,0.0,2.2008,2.3172,2.3921,2.2757,2.345,2.4288,2.5234,2.432,2.3599,2.362,2.3675,2.3701,2.3793,2.4618,2.5345,2.0365,0.0,0.0,0.0,0.0,1.9548,1.9872,2.0332,1.9642,1.9141,1.8771,1.798,0.0,0.0,0.0,0.0,0.0,0.0,1.8321,1.8776,1.977,2.0042,1.9662,1.9982,1.9962,1.9627,1.9458,1.9139,1.8596,1.7399,1.5522,1.3092,0.0,0.0,0.0,0.0,1.6436,1.7311,1.8045,1.8642,1.9098,1.9098,1.8874,1.8418,1.8025,1.745,1.6655,1.6105,1.5297,1.4275,1.3467,0.0,0.0,0.0,0.0,0.0,0.0,0.0,0.0,0.0,0.0,0.0,0.0,0.0,0.0,0.0,0.0,0.0,0.0,0.0,1.4507,1.3882,1.3857,0.0,0.0,0.0,0.0,0.0,0.0,0.0,0.0,0.0,2.0687,2.1361,2.2353,0.0,0.0,2.3973,2.5356,2.4686,2.4228,2.4762,0.0,0.0,0.0,2.4437,2.4254,2.369,2.3897,2.4002,2.3624,2.4423,2.5083,2.4826,2.4958,2.52,2.5545,2.5109,2.4842,2.5481,2.5857,2.6158,2.6551,2.7165,2.7426,2.2268,2.0823,2.1029,2.1219,2.1414,2.1395,2.1593,2.1883,2.1211,2.0827,2.062,1.9607,1.8768,1.7977,1.7417,0.0,0.0,0.0,1.956,2.0058,2.0942,2.1114,2.0736,2.0985,2.0989,2.0712,2.028,1.9991,1.9789,1.924,1.7813,1.562,0.0,0.0,1.5205,1.628,1.7173,1.7826,1.8331,1.8746,1.9098,1.9098,1.8973,1.8688,1.8517,1.805,1.7301,1.6862,1.6208,1.5297,1.4552,1.3526,0.0,0.0,0.0,0.0,0.0,0.0,0.0,0.0,0.0,0.0,0.0,1.1094,0.0,0.0,0.0,0.0,1.3652,1.4933,1.568,1.5098,0.0,0.0,0.0,0.0,0.0,0.0,0.0,1.9156,1.9786,2.0515,2.1482,2.1947,2.2755,2.4209,2.3818,2.3848,2.5148,0.0,2.3985,2.4733,2.4864,2.4801,2.4651,2.4631,2.4453,2.3995,2.4167,2.4293,2.4184,2.4565,2.4957,2.513,2.5102,2.5182,2.5608,2.5407,2.5359,2.596,2.6268,2.6515,2.6809,2.7164,2.7193,2.3556,2.32,2.3669,2.3481,2.2961,2.2836,2.2533,2.2036,2.1502,2.1735,2.2377,2.1137,2.0558,2.0398,1.9159,0.0,0.0,2.0133,2.0751,2.1246,2.2091,2.2325,2.2008,2.2068,2.1747,2.1053,2.0712,2.0312,1.9916,1.9874,1.9415,1.8577,1.7662,1.7002,1.6728,1.7357,1.7863,1.8239,1.8683,1.8984,1.916,1.916,1.9139,1.9098,1.8646,1.8175,1.7709,1.7239,1.6614,1.5808,1.5311,1.4436,1.3142,0.0,0.0,0.0,0.0,0.0,0.0,0.0,0.0,0.0,0.0,0.0,0.0,0.0,0.0,0.0,1.5005,0.0,1.7387,1.7282,0.0,0.0,0.0,1.6924,1.7879,1.8393,1.8957,1.9801,0.0,0.0,0.0,0.0,2.3047,2.4209,2.3839,2.3688,2.4279,2.3768,2.3411,2.3971,2.4012,2.4157,2.4554,2.4594,2.4574,2.4447,2.4507,2.4364,2.4054,2.4013,2.4094,2.4341,2.431,2.453,2.5298,2.5351,2.5432,2.5412,2.5541,2.5638,2.5804,2.5869,2.5873,2.3737,2.37,2.4129,2.3681,2.2647,2.2751,2.273,2.2628,2.2667,2.2625,2.248,2.213,2.1722,2.1222,2.069,2.0717,2.116,2.1363,2.1705,2.217,2.2392,2.2067,2.1291,2.127,2.0821,2.0069,2.0613,2.0805,2.069,2.0444,2.0003,1.9355,1.8894,1.8479,1.8081,1.8834,1.9311,1.9394,1.9672,1.9725,1.9637,1.9616,1.9454,1.9098,1.8662,1.819,1.7709,1.7254,1.6773,1.6243,1.5787,1.5228,1.4531,1.3002,0.0,0.0,0.0,0.0,0.0,0.0,0.0,0.0,0.0,1.2981,1.18,0.0,1.4137,0.0,1.5286,1.6186,1.7243,1.6906,0.0,0.0,1.8393,1.8893,1.9678,2.027,2.0634,2.0788,2.1603,2.2335,2.2831,2.3267,2.393,2.4806,2.4012,2.3646,2.4638,2.4216,2.3888,2.4301,2.4653,2.4922,2.5025,2.5024,2.4922,2.4549,2.4507,2.4487,2.4384,2.4363,2.4365,2.443,2.4451,2.4535,2.4724,2.4745,2.4745,2.4807,2.5451,2.6237,2.6623,2.6671,2.649,2.4269,2.4044,2.3832,2.3204,2.2435,2.3406,2.3829,2.383,2.3979,2.39,2.3613,2.2949,2.2049,2.1064,2.0899,2.1083,2.1502,2.1374,2.1549,2.2011,2.1862,2.1427,2.0829,2.0643,2.0211,1.9609,1.9944,2.0108,2.009,1.9913,1.9655,1.9317,1.9023,1.8754,1.8527,1.8914,1.9314,1.9715,1.9875,1.9971,1.9918,1.9768,1.949,1.9119,1.8833,1.8382,1.773,1.7425,1.711,1.667,1.6243,1.5773,1.5318,1.415,1.3405,0.0,0.0,0.0,0.0,0.0,0.0,0.0,0.0,0.0,0.0,0.0,1.5382,0.0,0.0,0.0,1.8666,1.8406,1.8485,1.921,1.9784,2.034,2.0964,2.1513,2.1902,2.2022,2.2686,2.3287,2.3722,2.4177,2.4715,2.5397,2.4861,2.4638,2.5189,2.5037,2.4882,2.5109,2.5357,2.5501,2.5501,2.5501,2.542,2.5192,2.5108,2.513,2.5108,2.513,2.5088,2.488,2.4817,2.4735,2.4549,2.4507,2.4507,2.4594,2.504,2.5536,2.588,2.5945,2.5757,2.4348,2.3928,2.3036,2.2478,2.2299,2.4029,2.468,2.4591,2.4555,2.4598,2.4549,2.3218,2.1903,2.0656,2.061,2.0789,2.1102,2.0834,2.0902,2.1216,2.0928,2.0652,2.0359,2.0009,1.9633,1.9301,1.9087,1.8979,1.8979,1.895,1.8895,1.8878,1.8583,1.838,1.8409,1.8284,1.8733,1.973,1.9894,2.0016,2.019,1.9841,1.9514,1.9206,1.9139,1.8688,1.7833,1.773,1.7523,1.711,1.6705,1.6326,1.596,1.5339,1.4855,0.0,1.3644,0.0,0.0,0.0,0.0,0.0,0.0,0.0,0.0,1.6192,1.6901,1.8531,1.8736,1.926,2.0552,2.0652,2.0661,2.0682,2.1095,2.1549,2.1942,2.2397,2.2853,2.3328,2.3764,2.4219,2.4632,2.5046,2.5459,2.5897,2.5939,2.5941,2.6044,2.5941,2.5815,2.5918,2.596,2.6001,2.598,2.598,2.596,2.5918,2.5835,2.5918,2.5856,2.5856,2.5751,2.5397,2.5294,2.517,2.4756,2.4652,2.4631,2.4735,2.4884,2.4886,2.4699,2.4658,2.4507,2.1893,2.1835,2.1987,2.2025,2.2014,2.2716,2.2546,2.1849,2.1749,2.1835,2.2092,2.1901,2.1666,2.1384,2.1172,2.0964,2.0788,2.072,2.0589,2.0417,2.0371,1.9923,1.917,1.9059,1.857,1.7803,1.8484,1.8839,1.8839,1.8549,1.8427,1.8427,1.8028,1.7846,0.0,0.0,0.0,0.0,2.0677,2.0707,2.0679,2.0596,2.0275,1.9699,1.9305,0.0,1.8294,1.791,1.7668,1.7564,1.713,0.0,0.0,0.0,0.0,0.0,0.0,0.0,0.0,0.0,0.0,0.0,1.6428,1.6167,1.6376,1.7983,1.9008,1.9038,1.9972,2.0695,2.099,2.1686,2.2108,2.2109,2.2522,2.2852,2.2936,2.3349,2.3784,2.4218,2.4673,2.513,2.5544,2.5709,2.596,2.6374,2.6457,2.6623,2.6954,2.6395,2.5939,2.5939,2.625,2.648,2.6478,2.6457,2.6333,2.6022,2.5918,2.5939,2.596,2.5939,2.5918,2.5794,2.5773,2.5773,2.5606,2.544,2.5315,2.5587,2.5835,2.573,2.4735,2.4507,2.4507,2.1548,0.0,2.1188,2.1073,0.0,2.077,2.0396,2.0022,2.1193,2.1487,2.1142,2.1221,2.0974,2.0452,2.0344,2.0158,2.0009,1.9835,1.959,1.9257,1.9082,1.8675,1.8056,1.8056,1.7816,1.7326,1.7839,1.8056,1.8041,1.7911,1.7797,1.7797,1.7476,1.7308,1.7308,1.758,1.8138,1.9082,1.976,2.0178,2.0348,2.0547,2.0371,1.9806,0.0,0.0,0.0,0.0,0.0,0.0,0.0,0.0,0.0,0.0,0.0,1.7004,1.6595,1.6429,1.6657,1.6885,1.7424,1.8319,1.8779,1.8758,1.8108,1.9537,2.0449,2.0449,2.1259,2.1901,2.2109,2.2563,2.2853,2.2893,2.3453,2.3846,2.3929,2.4467,2.4965,2.515,2.5399,2.573,2.6188,2.625,2.6436,2.6874,2.6933,2.7016,2.7226,2.6892,2.6604,2.6581,2.6768,2.6933,2.6957,2.6933,2.6871,2.6643,2.6581,2.6604,2.6581,2.6581,2.6519,2.6312,2.6229,2.6188,2.596,2.5875,2.5896,2.5916,2.6167,2.6167,2.5357,2.5192,2.5192,2.1395,2.1346,2.0298,1.9921,1.9986,1.9167,1.8851,1.9044,0.0,0.0,0.0,2.0605,2.0138,1.9298,1.9298,1.9268,1.9195,1.8946,1.8613,1.8291,1.8028,1.775,1.7477,1.7419,1.739,1.739,1.7308,1.7302,1.7302,1.7302,1.7302,1.7288,1.7062,1.6953,1.6984,1.7368,1.7433,1.7221,1.8486,1.9382,1.9801,2.0177,2.0223,1.9894,1.9979,1.962,1.8791,1.875,1.875,1.875,1.834,1.8117,1.8163,1.8019,1.8138,1.8621,1.8646,1.8828,1.9185,1.9388,1.9516,1.9699,2.0803,2.1135,2.0342,2.101,2.1613,2.2025,2.248,2.2936,2.3391,2.3515,2.3598,2.3681,2.4301,2.4735,2.4798,2.5399,2.5877,2.6001,2.6022,2.6208,2.6643,2.675,2.6874,2.7206,2.7268,2.7351,2.7368,2.7306,2.7226,2.7226,2.7226,2.7289,2.7309,2.7289,2.7309,2.7247,2.7268,2.7309,2.7309,2.7309,2.7141,2.6788,2.6729,2.656,2.627,2.6395,2.6457,2.6208,2.6353,2.6478,2.6229,2.6146,2.6084,1.9457,1.9612,1.8925,1.8951,1.938,1.9031,1.9005,1.9236,1.9307,1.9254,1.9091,1.9398,1.9454,1.9298,1.9298,1.9151,1.8887,1.8829,1.8613,0.0,1.8262,1.8218,1.8145,1.7857,1.7726,1.7721,1.7448,1.7302,1.7302,1.7302,1.7302,1.7302,1.7258,1.7244,1.7238,1.7082,1.6981,1.6966,1.8032,1.8889,1.9464,1.98,2.0043,2.0155,2.0632,2.0661,2.0144,2.0085,2.0123,2.0103,1.9744,1.9661,1.9979,1.933,1.9102,1.9554,1.9613,1.9616,1.972,2.0407,2.1176,2.1961,2.2583,2.2666,2.221,2.2584,2.2915,2.3038,2.3412,2.3888,2.428,2.4653,2.5004,2.54,2.5607,2.5711,2.5668,2.5835,2.6105,2.6457,2.6498,2.6664,2.7081,2.7182,2.7226,2.7309,2.7434,2.7451,2.7696,2.7513,2.733,2.7309,2.7309,2.7309,2.7309,2.7309,2.7309,2.7309,2.7309,2.7309,2.7309,2.7309,2.7268,2.7226,2.7164,2.7143,2.7037,2.7143,2.7102,2.7019,2.7081,2.7102,2.6998,2.6996,2.6788,1.9053,1.9247,1.8851,1.8833,1.9072,1.8941,1.8974,1.9063,1.9074,1.9078,1.9093,1.9239,1.9298,1.9298,1.9298,1.9224,1.9078,1.9078,1.8877,1.8569,1.8594,1.8467,1.8306,1.8145,1.8047,1.8047,1.7925,1.7741,1.758,1.7565,1.7477,1.7317,1.7302,1.7302,1.7302,1.7179,1.7121,1.7138,1.7743,1.8256,1.8646,1.9493,2.0096,2.045,2.0448,2.036,2.0293,1.9723,1.9586,1.9909,1.9745,1.9867,2.0354,2.0265,2.0265,2.0493,2.0987,2.1257,2.1277,2.1859,2.2522,2.3205,2.366,2.395,2.397,2.3929,2.3888,2.3929,2.455,2.5069,2.5254,2.5461,2.5668,2.5877,2.6105,2.627,2.6312,2.6519,2.6747,2.6933,2.6954,2.7058,2.7265,2.7493,2.7614,2.7634,2.78,2.8069,2.8231,2.8131,2.7903,2.7655,2.7451,2.733,2.733,2.7309,2.7309,2.7309,2.7309,2.7309,2.7309,2.733,2.733,2.7309,2.7309,2.7309,2.7309,2.7309,2.7309,2.7309,2.7309,2.7309,2.7309,2.7309,2.7143,1.9068,1.9249,1.8931,1.8834,1.8887,1.8971,1.9031,1.911,1.9242,1.929,1.9269,1.9275,1.9298,1.9298,1.9298,1.9298,1.9298,1.9298,1.9166,1.8946,1.8906,1.876,1.8525,1.8452,1.8408,1.8394,1.8335,1.8174,1.7916,1.7828,1.7647,1.7346,1.7302,1.7302,1.7302,1.7302,1.7302,1.732,1.7507,1.7711,1.7924,1.905,1.9898,2.0335,2.0158,2.0095,2.0255,1.9507,1.9279,1.973,1.9768,2.0011,2.0535,2.0914,2.1173,2.1347,2.1979,2.2528,2.2812,2.3063,2.3556,2.4157,2.4592,2.4984,2.5273,2.5149,2.4922,2.4922,2.5462,2.5897,2.6001,2.6043,2.6105,2.6208,2.6519,2.677,2.6812,2.7102,2.7351,2.7389,2.7431,2.7472,2.7617,2.7862,2.8045,2.8107,2.8483,2.8727,2.8773,2.8835,2.8731,2.8297,2.78,2.7596,2.7576,2.77,2.7745,2.7617,2.7617,2.7617,2.7534,2.7451,2.7368,2.7372,2.7309,2.7309,2.7309,2.7309,2.7309,2.7309,2.7309,2.7309,2.7309,2.7309,2.7309,1.9057,1.9209,1.8754,1.8685,1.892,1.9153,1.9412,1.9645,1.9426,1.9298,1.9284,1.9299,1.9286,1.9298,1.9272,1.9272,1.9272,1.9298,1.9283,1.9254,1.9254,1.9239,1.9151,1.8902,1.877,1.8741,1.8467,1.8335,1.8247,1.7945,1.7638,1.7346,1.7302,1.7317,1.7302,1.7302,1.7302,1.7302,1.7337,1.7414,1.7589,1.8207,1.887,1.9501,2.0225,2.0627,2.0596,2.0573,2.0515,2.0596,2.054,2.0701,2.0967,2.1086,2.1372,2.1946,2.2086,2.2613,2.3598,2.3585,2.3921,2.4958,2.5415,2.5683,2.5766,2.6121,2.6206,2.585,2.5788,2.6125,2.6457,2.6519,2.6662,2.6943,2.7138,2.7247,2.717,2.7265,2.7431,2.7796,2.7716,2.7983,2.8194,2.8359,2.847,2.8478,2.8909,2.9249,2.927,2.9518,2.958,2.9145,2.8587,2.8276,2.838,2.8711,2.8612,2.8462,2.8438,2.8255,2.7986,2.7841,2.7759,2.7596,2.7434,2.7431,2.7413,2.733,2.7372,2.7472,2.7431,2.7306,2.7309,2.7309,2.7309,1.9063,1.9312,1.8896,1.8693,1.8712,1.8947,1.914,1.9278,1.9291,1.929,1.93,1.9294,1.9092,1.8776,1.8959,1.9078,1.9078,1.922,1.9298,1.9298,1.9298,1.9298,1.9283,1.918,1.9093,1.9093,1.8935,1.8774,1.8569,1.8262,1.794,1.7624,1.7594,1.7492,1.7331,1.7302,1.7302,1.7302,1.7302,1.7322,1.7436,1.7918,1.863,1.9357,1.9458,1.9774,2.0193,1.9719,1.9533,1.9894,1.9936,2.0147,2.0629,2.0893,2.1214,2.1657,2.2287,2.2942,2.3594,2.3561,2.3693,2.4163,2.4624,2.4906,2.4925,2.5342,2.5499,2.5457,2.6148,2.6809,2.6951,2.7019,2.7016,2.7,2.7344,2.7374,2.6606,2.6993,2.7391,2.7482,2.7102,2.7066,2.7708,2.8076,2.8344,2.8663,2.9212,2.958,2.9699,2.9891,2.9891,2.9725,2.9435,2.9063,2.8794,2.869,2.8752,2.8669,2.8582,2.8458,2.8396,2.8313,2.8255,2.8069,2.8007,2.8007,2.811,2.8069,2.8048,2.7986,2.7738,2.7593,2.7372,2.7309,2.7309,1.9201,1.9348,1.9132,1.8931,1.8759,1.8942,1.9082,1.9138,1.9264,1.9334,1.9306,1.9223,1.8919,1.853,1.8816,1.8998,1.9036,1.9211,1.9298,1.9298,1.9298,1.9298,1.9298,1.9298,1.9298,1.9298,1.9283,1.9122,1.8803,1.8555,1.8277,1.796,1.7843,1.7682,1.7448,1.7361,1.7302,1.7302,1.7302,1.7302,1.7349,1.7667,1.8257,1.901,1.8823,1.9009,1.9686,1.9035,1.8841,1.9322,1.9429,1.9699,2.0218,2.066,2.1029,2.1399,2.2158,2.2802,2.3145,2.318,2.3236,2.3391,2.3868,2.4141,2.4167,2.4515,2.4789,2.4907,2.5957,2.6652,2.6802,2.6879,2.6763,2.652,2.7053,2.6967,2.6187,2.657,2.6871,2.7032,2.6589,2.6361,2.7066,2.7493,2.7792,2.8151,2.8774,2.929,2.929,2.9191,2.9237,2.929,2.9244,2.9236,2.8972,2.9083,2.9001,2.9001,2.9063,2.9021,2.8856,2.8794,2.8669,2.8462,2.8562,2.8562,2.8442,2.85,2.8557,2.852,2.8313,2.8028,2.7845,2.77,2.7679,1.9388,1.9388,1.9374,1.9348,1.9348,1.935,1.9508,1.9655,1.9494,1.9388,1.9371,1.9074,1.8787,1.8575,1.9065,1.9286,1.927,1.9301,1.9327,1.9301,1.9312,1.9298,1.9298,1.9298,1.9298,1.9298,1.9298,1.9151,1.8843,1.8774,1.8599,1.8291,1.7989,1.7814,1.7726,1.7507,1.7317,1.7346,1.7346,1.7317,1.7317,1.734,1.7659,1.8195,1.8558,1.8812,1.8911,1.9072,1.9193,1.9239,1.9532,1.9828,2.0112,2.0417,2.0798,2.1261,2.1598,2.1942,2.2322,2.2432,2.2602,2.3002,2.3559,2.3943,2.3683,2.409,2.4408,2.4564,2.4919,2.53,2.5541,2.5901,2.6034,2.5975,2.6071,2.609,2.5966,2.5767,2.6024,2.6469,2.6352,2.6252,2.6739,2.6931,2.6958,2.7096,2.7357,2.7626,2.768,2.7626,2.7653,2.7653,2.7734,2.8036,2.942,2.9314,2.948,2.9387,2.9036,2.9497,2.9425,2.9228,2.8899,2.8684,2.8502,2.8416,2.8544,2.8599,2.8636,2.8636,2.8665,2.8483,2.8255,2.8462,2.84,1.9401,1.9401,1.9401,1.9401,1.9401,1.9401,1.9446,1.9533,1.9459,1.9392,1.9398,1.9269,1.9174,1.9095,1.9459,1.9512,1.9396,1.9539,1.9647,1.9591,1.94,1.9298,1.9298,1.9298,1.9298,1.9298,1.9298,1.9239,1.9137,1.9122,1.8935,1.8657,1.8521,1.8335,1.8145,1.8013,1.7828,1.7638,1.7624,1.7521,1.7361,1.7507,1.7719,1.7909,1.8241,1.8572,1.8903,1.9225,1.9471,1.9638,1.9766,1.9862,1.9966,2.0039,2.0378,2.09,2.108,2.1352,2.1842,2.1928,2.2029,2.218,2.2407,2.2688,2.2792,2.2989,2.3212,2.3443,2.3785,2.4012,2.4245,2.4877,2.5313,2.5136,2.5508,2.5511,2.4976,2.5064,2.5469,2.5657,2.5621,2.5474,2.5261,2.5451,2.5808,2.589,2.6409,2.6735,2.6825,2.6825,2.6799,2.6844,2.6852,2.7014,2.75,2.8062,2.8295,2.8295,2.8203,2.8164,2.8087,2.8127,2.7845,2.7839,2.7813,2.8177,2.8313,2.8674,2.8731,2.8982,2.9012,2.8812,2.8644,2.8739,2.8702,1.9156,1.8881,1.9214,1.9401,1.9401,1.9401,1.9401,1.9401,1.9401,1.9401,1.9401,1.9401,1.9401,1.9477,1.979,1.9878,1.9724,1.9876,1.9916,1.9886,1.9605,1.9459,1.9444,1.9356,1.9298,1.9298,1.9298,1.9298,1.9298,1.9298,1.9155,1.8964,1.8873,1.8712,1.8467,1.8364,1.8189,1.7974,1.7945,1.7828,1.7667,1.7867,1.7969,1.7999,1.8257,1.8549,1.8894,1.9288,1.9583,1.9754,1.9947,2.0107,2.0194,2.0111,2.0221,2.0628,2.071,2.0882,2.1244,2.1411,2.1443,2.148,2.1564,2.1762,2.2051,2.225,2.2472,2.2716,2.2999,2.3194,2.3338,2.3945,2.438,2.435,2.4837,2.486,2.4067,2.4362,2.4584,2.4623,2.4623,2.4334,2.3977,2.4351,2.4652,2.4765,2.5423,2.5811,2.599,2.6026,2.5998,2.6016,2.5985,2.5975,2.6107,2.6312,2.6919,2.7027,2.696,2.6879,2.6825,2.6852,2.6852,2.6906,2.7249,2.7707,2.8182,2.8635,2.8977,2.9275,2.9234,2.9023,2.8968,2.8998,2.8947,1.8619,1.7806,1.8836,1.9185,1.9185,1.9068,1.9243,1.9243,1.9243,1.9243,1.9372,1.9401,1.9401,1.9533,1.994,2.0242,2.0216,2.0197,2.0212,2.0181,1.9916,1.9796,1.9793,1.9488,1.9327,1.9298,1.9298,1.9298,1.9298,1.9298,1.9283,1.9224,1.899,1.8833,1.8789,1.854,1.835,1.8306,1.8306,1.8291,1.8291,1.8291,1.8306,1.8335,1.8624,1.8804,1.8785,1.9278,1.9579,1.9668,2.0102,2.0559,2.0721,2.0564,2.0457,2.0518,2.0524,2.0498,2.0591,2.0879,2.1089,2.1149,2.1312,2.1592,2.1861,2.2227,2.2528,2.264,2.2851,2.303,2.303,2.3151,2.3359,2.3764,2.3978,2.3927,2.382,2.3641,2.3528,2.3585,2.3673,2.3545,2.3517,2.3727,2.3914,2.4183,2.4437,2.4732,2.5006,2.5056,2.5015,2.497,2.4941,2.4899,2.4713,2.4577,2.5319,2.584,2.5743,2.5663,2.5553,2.5526,2.5433,2.5516,2.6445,2.6979,2.7868,2.8368,2.8953,2.9233,2.9169,2.9143,2.9184,2.9166,2.9314,1.7044,1.7396,1.6956,1.7308,1.7906,1.7173,1.7232,1.8052,1.811,1.859,1.9272,1.9401,1.9401,1.9475,1.9822,2.0097,2.0314,2.0459,2.0554,2.0489,2.0237,2.0091,2.0033,1.9781,1.9518,1.9301,1.9298,1.9298,1.9298,1.9298,1.9298,1.9268,1.9195,1.9151,1.9137,1.9049,1.8902,1.8657,1.8642,1.854,1.835,1.8525,1.8653,1.8672,1.895,1.9221,1.9388,1.973,2.0085,2.0399,2.0651,2.0711,2.0601,2.037,2.0333,2.0478,2.0504,2.0591,2.0777,2.1069,2.1243,2.1333,2.1618,2.193,2.2177,2.2363,2.2609,2.2784,2.2958,2.3022,2.3022,2.3022,2.3122,2.3247,2.3275,2.3348,2.3396,2.3279,2.3147,2.3195,2.3342,2.3486,2.355,2.3674,2.3924,2.4052,2.4159,2.4298,2.4333,2.4282,2.4041,2.4041,2.3893,2.3972,2.3986,2.3939,2.4182,2.4563,2.4534,2.448,2.4373,2.4312,2.4183,2.4562,2.5486,2.6327,2.7268,2.7868,2.8295,2.882,2.8728,2.886,2.9164,2.9032,2.8714,1.5891,1.6208,1.5918,1.6219,1.6878,1.6098,1.6354,1.7227,1.7629,1.8315,1.914,1.9475,1.9533,1.962,1.9851,2.0097,2.0328,2.0701,2.0887,2.0825,2.0546,2.0386,2.0342,2.0091,1.9796,1.9532,1.9488,1.9415,1.9298,1.9298,1.9298,1.9298,1.9298,1.9298,1.9298,1.9298,1.918,1.8994,1.899,1.8902,1.8745,1.8862,1.9005,1.9019,1.9299,1.9517,1.9698,2.006,2.0344,2.0575,2.0678,2.0617,2.0359,2.0292,2.0333,2.0493,2.0638,2.0804,2.1069,2.1423,2.1677,2.1819,2.2064,2.2334,2.2593,2.2688,2.2799,2.2946,2.3022,2.3041,2.3152,2.3184,2.3232,2.3403,2.3321,2.3292,2.3356,2.3432,2.3432,2.3511,2.361,2.3676,2.38,2.388,2.4148,2.4227,2.4186,2.4191,2.4179,2.4047,2.385,2.373,2.3838,2.3793,2.3581,2.3398,2.3172,2.3241,2.3274,2.3309,2.3257,2.3286,2.3242,2.3934,2.4783,2.5353,2.6199,2.6454,2.6825,2.7392,2.7845,2.7338,2.7041,2.7257,2.7068,1.5043,1.4404,1.537,1.5804,1.5928,1.5701,1.5934,1.6695,1.7625,1.8309,1.894,1.9683,1.992,1.995,2.0209,2.0355,2.0414,2.0816,2.1103,2.1072,2.0853,2.0707,2.0605,2.0356,2.0091,1.9855,1.9811,1.9679,1.9474,1.94,1.9327,1.9371,1.9342,1.9298,1.9298,1.9298,1.9283,1.9254,1.9268,1.9254,1.9213,1.9268,1.9283,1.9268,1.9491,1.9635,1.9765,2.0153,2.0359,2.0241,2.0437,2.0385,2.0241,2.0385,2.055,2.0607,2.0856,2.117,2.1465,2.1798,2.2127,2.2339,2.2466,2.2641,2.2883,2.2942,2.299,2.3057,2.3101,2.3184,2.3454,2.3533,2.3721,2.3989,2.3753,2.3721,2.4034,2.405,2.3941,2.3973,2.4082,2.4129,2.4116,2.4118,2.4311,2.4409,2.4277,2.4143,2.4176,2.4009,2.3994,2.3825,2.3551,2.3369,2.3082,2.2961,2.2766,2.2722,2.2691,2.2661,2.26,2.2615,2.263,2.3323,2.4057,2.4569,2.5046,2.5454,2.5715,2.6185,2.5975,2.5135,2.5308,2.5902,2.604,1.3617,1.4123,1.3546,1.385,1.4476,1.3734,1.3957,1.5041,1.6561,1.7858,1.8849,2.0226,2.0713,2.0546,2.0635,2.064,2.0672,2.0802,2.1003,2.116,2.113,2.0912,2.0736,2.0619,2.04,2.015,2.0106,2.0062,1.9947,1.9767,1.9664,1.9649,1.9459,1.9301,1.9298,1.9301,1.9298,1.9298,1.9298,1.9298,1.9298,1.9298,1.9298,1.9298,1.939,1.9546,1.9687,2.0009,2.0411,2.0627,2.0344,2.0282,2.0421,2.0695,2.0888,2.0961,2.1396,2.1734,2.1894,2.2148,2.2386,2.2525,2.2692,2.2911,2.299,2.3022,2.3121,2.3295,2.339,2.3517,2.3832,2.3927,2.4132,2.4354,2.418,2.402,2.41,2.4098,2.402,2.388,2.4198,2.4341,2.4314,2.4336,2.4405,2.4468,2.4146,2.3748,2.381,2.346,2.3217,2.3037,2.2811,2.2691,2.2586,2.2496,2.2392,2.2362,2.2363,2.2364,2.2379,2.2408,2.2409,2.2631,2.3456,2.4056,2.4507,2.4928,2.5079,2.4985,2.5075,2.4797,2.5195,2.5726,2.5509,1.2897,1.3532,1.2812,1.2909,1.35,1.2812,1.3146,1.4399,1.6242,1.7665,1.8936,2.0624,2.1336,2.118,2.1195,2.1084,2.0945,2.1046,2.1162,2.1175,2.1203,2.1101,2.0955,2.0897,2.0736,2.0444,2.0415,2.0327,2.0196,2.0047,1.9974,1.9945,1.9784,1.9681,1.9696,1.9561,1.9503,1.9488,1.9386,1.9298,1.9298,1.9298,1.9298,1.9368,1.952,1.9874,2.0351,2.0408,2.052,2.0685,2.0586,2.057,2.0766,2.1053,2.1215,2.1272,2.1731,2.2044,2.2216,2.2431,2.2577,2.268,2.2814,2.2928,2.3156,2.3216,2.3359,2.3705,2.3652,2.3738,2.4035,2.4209,2.4458,2.4707,2.4641,2.4529,2.4499,2.4545,2.4376,2.4225,2.4242,2.4355,2.4295,2.4254,2.427,2.4209,2.3795,2.3521,2.3354,2.2842,2.2483,2.2438,2.2408,2.2392,2.2392,2.2302,2.2302,2.2243,2.2287,2.2242,2.2315,2.2345,2.2434,2.2601,2.3097,2.347,2.3779,2.3907,2.3665,2.372,2.4183,2.4252,2.4292,2.4674,2.4567,1.2686,1.2799,1.2799,1.2799,1.2816,1.2799,1.3248,1.4313,1.6329,1.7824,1.8951,2.0807,2.1639,2.1778,2.1794,2.1636,2.1348,2.1583,2.1482,2.1393,2.1291,2.1247,2.1159,2.1145,2.0985,2.0765,2.0751,2.0605,2.0444,2.0327,2.0269,2.0225,2.0196,2.0181,2.0064,1.993,1.9855,1.9796,1.9594,1.9491,1.9491,1.9491,1.9506,1.9561,1.9867,2.0437,2.0887,2.0951,2.0767,2.0712,2.0942,2.1093,2.1194,2.1457,2.1627,2.1759,2.2022,2.2308,2.2466,2.2592,2.2755,2.2928,2.2831,2.2915,2.3326,2.3465,2.362,2.3998,2.3793,2.3905,2.4247,2.45,2.4685,2.4886,2.4963,2.5026,2.5011,2.5011,2.4919,2.4595,2.4314,2.4131,2.4009,2.384,2.3718,2.3946,2.3503,2.317,2.2975,2.2631,2.2378,2.2273,2.2244,2.2214,2.2228,2.2184,2.2198,2.2198,2.2301,2.2359,2.2491,2.255,2.2623,2.2791,2.2916,2.2856,2.2751,2.2662,2.2632,2.2677,2.3276,2.2721,2.2201,2.2836,2.3043,1.2775,1.2799,1.2799,1.2799,1.2799,1.2799,1.3079,1.3757,1.583,1.7404,1.8792,2.0694,2.1802,2.2307,2.2201,2.2254,2.1783,2.1829,2.1906,2.1628,2.1598,2.1437,2.1276,2.1247,2.1174,2.1058,2.1072,2.1057,2.094,2.0692,2.059,2.0561,2.0386,2.0225,2.0225,2.0196,2.0108,2.0093,2.0006,1.9947,1.9933,1.9947,1.9947,1.9976,2.0145,2.0421,2.078,2.0973,2.113,2.1331,2.1441,2.158,2.1798,2.2052,2.2206,2.2285,2.2506,2.2683,2.2645,2.278,2.295,2.3059,2.3134,2.3391,2.3501,2.3548,2.3733,2.4029,2.4047,2.4173,2.4591,2.4886,2.4842,2.4765,2.4718,2.4626,2.4425,2.4548,2.461,2.444,2.4193,2.4024,2.3852,2.3684,2.3577,2.3606,2.3287,2.2819,2.2597,2.242,2.2287,2.2184,2.2184,2.2184,2.2184,2.2184,2.2184,2.2184,2.2286,2.2359,2.2491,2.252,2.2506,2.2506,2.2521,2.2432,2.2374,2.2579,2.2761,2.2595,2.2446,2.2286,2.2111,2.2081,2.2023,1.2799,1.2799,1.2799,1.2799,1.2799,1.2799,1.3128,1.3884,1.5456,1.6904,1.8203,1.9909,2.0926,2.1417,2.1434,2.1235,2.0991,2.0813,2.09,2.103,2.1194,2.1375,2.1642,2.1496,2.1379,2.1247,2.1203,2.1203,2.1159,2.1057,2.0926,2.0926,2.0722,2.0707,2.0619,2.0517,2.0444,2.0386,2.0283,2.021,2.021,2.021,2.0312,2.0428,2.0582,2.082,2.1165,2.1443,2.1729,2.1973,2.2063,2.2135,2.2218,2.2319,2.2386,2.256,2.2514,2.272,2.277,2.2835,2.293,2.3273,2.3216,2.3313,2.3484,2.3592,2.3762,2.3963,2.3978,2.4024,2.4363,2.4394,2.4378,2.461,2.444,2.427,2.4158,2.4253,2.427,2.4039,2.3763,2.3608,2.3452,2.3405,2.3358,2.3312,2.3089,2.2668,2.258,2.2403,2.2287,2.2184,2.2184,2.2184,2.2184,2.2184,2.2184,2.2198,2.2272,2.2271,2.2345,2.2315,2.2271,2.2359,2.2476,2.2418,2.2418,2.2667,2.2754,2.2506,2.2359,2.2359,2.2345,2.2271,2.2213,1.2799,1.2799,1.2799,1.2799,1.2799,1.2799,1.3161,1.394,1.514,1.6236,1.741,1.8716,1.9534,1.9897,2.0011,1.9789,1.9569,1.9429,1.9745,2.025,2.0328,2.0849,2.1411,2.1463,2.1452,2.1307,2.1218,2.1218,2.1203,2.1203,2.1145,2.1189,2.1189,2.1101,2.1101,2.0955,2.0765,2.0736,2.0575,2.0459,2.0444,2.0444,2.0561,2.0763,2.0977,2.1262,2.1568,2.1854,2.2155,2.2428,2.2541,2.2541,2.2428,2.2371,2.2315,2.2626,2.2503,2.2603,2.2875,2.2956,2.3171,2.3556,2.3229,2.3112,2.3505,2.3597,2.3718,2.3824,2.3853,2.376,2.3697,2.3852,2.405,2.4218,2.4159,2.4018,2.3951,2.3956,2.3773,2.3589,2.3437,2.3298,2.3175,2.3051,2.3034,2.2988,2.2798,2.2636,2.2563,2.2519,2.2476,2.2462,2.2535,2.255,2.255,2.252,2.2476,2.2432,2.2433,2.2418,2.2432,2.252,2.2564,2.2447,2.2476,2.2432,2.2476,2.2652,2.2608,2.2359,2.2345,2.2432,2.2447,2.2432,2.2389,1.2799,1.2799,1.2799,1.2799,1.2799,1.2799,1.3071,1.3564,1.4375,1.5401,1.6667,1.7475,1.8343,1.8908,1.9164,1.9127,1.8864,1.8736,1.8966,1.9318,1.9404,1.9928,2.0898,2.103,2.1262,2.1699,2.1569,2.1306,2.1276,2.1203,2.1306,2.1247,2.1233,2.1247,2.1203,2.1145,2.1086,2.1057,2.0969,2.0912,2.0912,2.0955,2.0969,2.1072,2.1214,2.1387,2.1659,2.1917,2.2031,2.1932,2.2315,2.2273,2.2192,2.2335,2.2632,2.2805,2.2894,2.2923,2.2902,2.3409,2.3466,2.3459,2.3475,2.3581,2.3625,2.3561,2.3576,2.3683,2.3867,2.396,2.4007,2.3852,2.3851,2.3834,2.3741,2.3586,2.3396,2.3335,2.337,2.3247,2.3171,2.3096,2.3034,2.3018,2.3047,2.3062,2.2974,2.2915,2.2886,2.2901,2.2915,2.293,2.2957,2.3003,2.3003,2.2959,2.2915,2.2871,2.2842,2.2842,2.2871,2.2945,2.293,2.2725,2.2593,2.2535,2.2593,2.2652,2.2593,2.2418,2.2462,2.2535,2.2506,2.2476,2.255,1.2799,1.2799,1.2799,1.2799,1.2799,1.2799,1.3038,1.3433,1.3949,1.4726,1.5574,1.6256,1.6807,1.7313,1.7442,1.7442,1.7475,1.7442,1.775,1.8125,1.8324,1.9299,2.0615,2.0661,2.1371,2.1985,2.195,2.1701,2.1715,2.173,2.1613,2.1496,2.1467,2.1379,2.1247,2.1203,2.1233,2.1233,2.1233,2.1233,2.1218,2.1218,2.1218,2.1247,2.1376,2.1432,2.1432,2.1717,2.1893,2.1971,2.2189,2.2323,2.2443,2.2604,2.2833,2.2886,2.3146,2.3279,2.3152,2.3606,2.3626,2.3427,2.3549,2.3501,2.3404,2.334,2.3355,2.3386,2.3432,2.3573,2.3542,2.3619,2.36,2.3579,2.3488,2.3379,2.3344,2.3208,2.3179,2.3164,2.3166,2.3137,2.3107,2.3091,2.3106,2.3106,2.3106,2.3106,2.3106,2.3106,2.3106,2.3106,2.3091,2.3106,2.3106,2.3106,2.3106,2.3106,2.3106,2.3106,2.3106,2.3091,2.3018,2.2886,2.2769,2.2667,2.2462,2.2418,2.2447,2.252,2.2564,2.2593,2.255,2.255,2.2652,1.2799,1.2799,1.2799,1.2799,1.2799,1.2799,1.2972,1.3301,1.3654,1.4146,1.4702,1.5127,1.5486,1.5746,1.5844,1.5834,1.5811,1.6061,1.6753,1.713,1.7581,1.8768,2.0232,2.0775,2.1156,2.2528,2.252,2.2301,2.2111,2.2096,2.2008,2.1862,2.1789,2.1686,2.1496,2.1511,2.1408,2.1408,2.1408,2.1393,2.1408,2.1408,2.1408,2.1408,2.1668,2.1669,2.1568,2.1844,2.1991,2.2111,2.2215,2.2392,2.284,2.305,2.2989,2.2851,2.3344,2.3577,2.3535,2.3779,2.381,2.3436,2.3309,2.323,2.3137,2.3168,2.3137,2.3106,2.3137,2.3168,2.3214,2.321,2.3357,2.3503,2.3474,2.3384,2.3545,2.3559,2.3457,2.3398,2.3296,2.3223,2.3193,2.3106,2.3106,2.3106,2.3106,2.3106,2.3106,2.3106,2.3106,2.3106,2.3106,2.3106,2.3106,2.3106,2.3106,2.3106,2.3106,2.3106,2.3106,2.3106,2.3047,2.3018,2.2915,2.2769,2.2476,2.2359,2.2593,2.2725,2.2696,2.2696,2.2754,2.2813,2.2915,1.2799,1.2799,1.2799,1.2799,1.2799,1.2799,1.2807,1.2939,1.3334,1.3654,1.4146,1.4408,1.4768,1.5062,1.5094,1.5062,1.5388,1.6116,1.6537,1.6635,1.7217,1.8536,2.0036,1.9852,2.1195,2.2632,2.2959,2.2667,2.2403,2.2286,2.2198,2.217,2.2111,2.2096,2.1979,2.192,2.2096,2.2052,2.2037,2.2023,2.2008,2.2038,2.1993,2.2038,2.2067,2.2068,2.1979,2.2172,2.232,2.2215,2.2409,2.2438,2.2423,2.284,2.3051,2.3233,2.3535,2.3793,2.3475,2.3825,2.3901,2.3433,2.3324,2.3355,2.3199,2.3106,2.3106,2.3106,2.312,2.3193,2.3267,2.3398,2.353,2.3676,2.3764,2.3837,2.3954,2.3837,2.3749,2.3764,2.3706,2.3471,2.3325,2.3208,2.3106,2.3106,2.312,2.3149,2.3208,2.3281,2.331,2.3354,2.3384,2.3384,2.3398,2.3354,2.331,2.3252,2.3252,2.3252,2.331,2.3354,2.3193,2.3135,2.3062,2.3003,2.2828,2.2813,2.2945,2.2945,2.2901,2.2959,2.3047,2.3106,2.3106,1.2799,1.2799,1.2799,1.2799,1.2799,1.2799,1.2799,1.2865,1.3202,1.3597,1.3916,1.4268,1.4604,1.4833,1.4898,1.4898,1.5094,1.5834,1.6386,1.6635,1.7346,1.8632,2.0259,2.0595,2.1524,2.2637,2.3091,2.3003,2.274,2.2667,2.2637,2.2447,2.2418,2.2315,2.2302,2.2198,2.2169,2.2169,2.2169,2.2184,2.2184,2.2184,2.2198,2.2198,2.2198,2.2213,2.2273,2.2273,2.2422,2.2404,2.2584,2.2642,2.2773,2.3105,2.3333,2.3179,2.3733,2.384,2.3563,2.3854,2.362,2.3324,2.323,2.3199,2.3106,2.3135,2.3237,2.3384,2.3384,2.3457,2.3603,2.3779,2.3837,2.394,2.4057,2.4133,2.4192,2.4118,2.4045,2.4104,2.4118,2.3896,2.3735,2.372,2.3647,2.3574,2.3603,2.3632,2.3691,2.3764,2.3764,2.3735,2.3749,2.3749,2.3779,2.3779,2.3764,2.372,2.3735,2.372,2.372,2.3676,2.3515,2.3413,2.3398,2.331,2.3193,2.3091,2.3047,2.3062,2.3106,2.3106,2.3106,2.3106,2.3106,1.2799,1.2799,1.2799,1.2799,1.2799,1.2799,1.2799,1.2832,1.3104,1.3433,1.3818,1.4211,1.4539,1.4735,1.4833,1.4898,1.4964,1.5551,1.6126,1.6796,1.7689,1.9004,2.0259,2.0956,2.1744,2.3106,2.3106,2.3062,2.3076,2.3047,2.293,2.2709,2.2754,2.2652,2.2491,2.2476,2.2506,2.2491,2.2491,2.2476,2.2462,2.2462,2.2462,2.2447,2.2418,2.2418,2.2418,2.2463,2.2609,2.2681,2.274,2.2873,2.3034,2.3234,2.3279,2.3217,2.3559,2.3652,2.3497,2.3542,2.3386,2.326,2.3237,2.3342,2.3413,2.3354,2.3413,2.3706,2.372,2.3852,2.4013,2.4115,2.4236,2.428,2.432,2.4338,2.4353,2.4412,2.447,2.4543,2.4558,2.4485,2.4382,2.4368,2.428,2.4133,2.4118,2.4133,2.4148,2.413,2.4057,2.3998,2.4016,2.4001,2.3998,2.4042,2.4118,2.4177,2.4177,2.4118,2.4027,2.3969,2.3866,2.3793,2.3735,2.3676,2.3588,2.334,2.3106,2.3106,2.3106,2.3106,2.3106,2.312,2.3135,1.2799,1.2799,1.2799,1.2799,1.2799,1.2799,1.2799,1.2799,1.284,1.3104,1.3531,1.4048,1.4375,1.4506,1.4735,1.4866,1.4964,1.6311,1.6473,1.6893,1.7958,1.9304,2.0386,2.1177,2.187,2.2918,2.3106,2.3106,2.3106,2.3106,2.3091,2.3045,2.2988,2.3032,2.2974,2.2886,2.2901,2.2901,2.2901,2.293,2.2945,2.2959,2.2959,2.2974,2.3003,2.3032,2.3001,2.2959,2.2945,2.3018,2.3003,2.3003,2.3091,2.3168,2.3168,2.3199,2.3273,2.3366,2.335,2.3475,2.3399,2.3302,2.3384,2.3647,2.3808,2.3987,2.4027,2.4027,2.4089,2.4133,2.425,2.4353,2.4543,2.4602,2.4675,2.4749,2.4793,2.4836,2.491,2.4998,2.4954,2.4822,2.4793,2.4734,2.4631,2.447,2.4412,2.4426,2.4353,2.4338,2.428,2.4221,2.4192,2.4177,2.413,2.4236,2.4382,2.4412,2.4412,2.4324,2.4188,2.4159,2.4294,2.4148,2.4057,2.4027,2.3954,2.3706,2.3457,2.3208,2.3135,2.3281,2.334,2.3369,2.3325,1.2799,1.2799,1.2799,1.2799,1.2799,1.2799,1.2799,1.2799,1.2799,1.3005,1.3433,1.3884,1.4211,1.4408,1.4506,1.4702,1.4964,1.5649,1.6191,1.7173,1.8428,1.9769,2.0734,2.1713,2.2637,2.3027,2.312,2.3106,2.3106,2.3179,2.312,2.3106,2.3164,2.3106,2.3106,2.3106,2.3106,2.3106,2.3106,2.3106,2.3106,2.3106,2.3106,2.3106,2.3106,2.3106,2.3091,2.3106,2.3106,2.3106,2.3106,2.312,2.3135,2.3135,2.3149,2.3193,2.331,2.3398,2.3413,2.3554,2.3613,2.3801,2.3869,2.4001,2.413,2.4101,2.425,2.4324,2.4412,2.4456,2.4719,2.4822,2.491,2.4939,2.4983,2.5071,2.51,2.51,2.5086,2.5056,2.5071,2.5027,2.5027,2.5042,2.4924,2.4793,2.4749,2.469,2.4631,2.4602,2.4558,2.4543,2.4543,2.4573,2.4573,2.4631,2.469,2.4661,2.4646,2.4602,2.4525,2.4719,2.4763,2.4573,2.4382,2.4338,2.4203,2.4027,2.3837,2.3632,2.3574,2.3603,2.3632,2.3632,2.3588,1.2799,1.2799,1.2799,1.2799,1.2799,1.2799,1.2799,1.2799,1.2799,1.2939,1.3235,1.3588,1.3949,1.4202,1.4408,1.4604,1.4866,1.5323,1.6126,1.7281,1.862,2.0055,2.133,2.2391,2.317,2.3267,2.3384,2.3442,2.3471,2.3413,2.3457,2.3471,2.3384,2.3354,2.3106,2.3106,2.3106,2.3106,2.3106,2.3106,2.3106,2.3106,2.3106,2.3106,2.3106,2.3106,2.3106,2.3106,2.3106,2.3106,2.312,2.3164,2.3223,2.3267,2.331,2.3442,2.3574,2.3767,2.3767,2.3796,2.3928,2.4162,2.4236,2.4309,2.4368,2.4364,2.4602,2.4705,2.4763,2.4851,2.51,2.5056,2.5042,2.5027,2.5027,2.51,2.51,2.51,2.51,2.5086,2.51,2.51,2.5115,2.5115,2.51,2.4983,2.4939,2.491,2.491,2.491,2.4939,2.4939,2.4954,2.4998,2.5071,2.4968,2.488,2.4895,2.4895,2.4954,2.4983,2.51,2.5071,2.4866,2.4705,2.4617,2.4558,2.4481,2.4305,2.4086,2.4013,2.3957,2.3913,2.3881,2.3972,1.2799,1.2799,1.2799,1.2799,1.2799,1.2799,1.2799,1.2799,1.2799,1.2799,1.2906,1.3235,1.3597,1.3916,1.4229,1.4561,1.4833,1.503,1.5783,1.7228,1.8644,2.0036,2.1433,2.2666,2.3588,2.3662,2.3764,2.3896,2.3969,2.3896,2.3972,2.3987,2.3884,2.3691,2.3179,2.3135,2.312,2.3135,2.3179,2.3208,2.3237,2.3252,2.3267,2.3267,2.3281,2.3296,2.331,2.331,2.331,2.331,2.3281,2.3384,2.3559,2.3574,2.3691,2.394,2.4013,2.4071,2.4118,2.4118,2.4309,2.4543,2.4602,2.4675,2.4939,2.5012,2.4954,2.4954,2.5012,2.5027,2.51,2.5115,2.5144,2.5188,2.5203,2.5242,2.5271,2.532,2.5364,2.5359,2.5232,2.5115,2.513,2.5144,2.5188,2.5159,2.51,2.51,2.5115,2.51,2.51,2.51,2.51,2.51,2.51,2.51,2.5071,2.51,2.51,2.51,2.51,2.51,2.5071,2.5042,2.4968,2.4851,2.4939,2.5042,2.4763,2.4452,2.4291,2.4221,2.4177,2.4206,2.4324,1.2799,1.2799,1.2799,1.2799,1.2799,1.2799,1.2799,1.2799,1.2799,1.2799,1.2799,1.2972,1.3235,1.3623,1.4157,1.4575,1.4859,1.5285,1.6074,1.6845,1.8698,1.9764,2.1241,2.2905,2.3893,2.394,2.4104,2.4162,2.4089,2.4192,2.4148,2.4118,2.4192,2.4001,2.3808,2.3749,2.3764,2.3764,2.3764,2.3796,2.3749,2.3735,2.372,2.3738,2.3706,2.3691,2.3691,2.3662,2.3662,2.3676,2.3662,2.3764,2.3896,2.391,2.3984,2.4192,2.428,2.4558,2.4675,2.4778,2.4807,2.488,2.491,2.4954,2.5086,2.51,2.5086,2.513,2.5173,2.5159,2.51,2.5286,2.5388,2.5461,2.5535,2.5696,2.5769,2.5754,2.5769,2.5783,2.5696,2.5637,2.5608,2.5505,2.5476,2.5418,2.5374,2.5247,2.5203,2.513,2.51,2.51,2.51,2.51,2.5115,2.5291,2.5291,2.5261,2.5188,2.51,2.51,2.5173,2.513,2.513,2.5115,2.51,2.51,2.5086,2.5012,2.4836,2.4661,2.4617,2.4646,2.4705,2.4822,1.2799,1.2799,1.2799,1.2799,1.2799,1.2799,1.2799,1.2799,1.2807,1.2831,1.2921,1.2929,1.3178,1.3712,1.4435,1.517,1.5625,1.654,1.769,1.8183,1.9675,2.1075,2.2266,2.3271,2.4116,2.4309,2.4412,2.4485,2.4514,2.447,2.4499,2.4514,2.4441,2.4499,2.4397,2.4247,2.406,2.4013,2.4031,2.4045,2.406,2.4075,2.4075,2.4075,2.4075,2.4089,2.4104,2.4118,2.4133,2.4133,2.4148,2.4192,2.4236,2.4294,2.4338,2.4485,2.4631,2.4914,2.4998,2.5042,2.5027,2.5056,2.51,2.51,2.513,2.5183,2.5227,2.5257,2.5335,2.5393,2.5418,2.5652,2.5661,2.5734,2.5822,2.6018,2.6032,2.6018,2.6018,2.6012,2.6041,2.6061,2.6061,2.5974,2.5871,2.5769,2.5666,2.552,2.5408,2.5349,2.5335,2.5335,2.533,2.5388,2.5491,2.5622,2.5579,2.5452,2.5379,2.5335,2.5344,2.5461,2.533,2.5217,2.5188,2.5144,2.51,2.5071,2.5086,2.5071,2.4998,2.4998,2.5086,2.51,2.51,1.2799,1.2799,1.2799,1.2799,1.2799,1.2799,1.2799,1.2807,1.2815,1.2913,1.3084,1.3092,1.3334,1.407,1.5323,1.6316,1.7149,1.8429,1.9807,2.103,2.1493,2.2594,2.3403,2.4221,2.4554,2.4719,2.4807,2.488,2.5042,2.4924,2.4939,2.4998,2.4924,2.491,2.4763,2.4558,2.4324,2.4338,2.4338,2.4353,2.4368,2.428,2.4324,2.4324,2.4324,2.4324,2.4309,2.4294,2.4232,2.425,2.4221,2.4382,2.4514,2.4617,2.4822,2.4968,2.5042,2.5056,2.5086,2.51,2.5173,2.5203,2.5217,2.5159,2.5183,2.5388,2.552,2.5608,2.5696,2.5827,2.5959,2.5988,2.5982,2.6076,2.6105,2.6164,2.6164,2.6164,2.6129,2.6158,2.6208,2.6222,2.6252,2.6187,2.6266,2.6252,2.6179,2.6149,2.5988,2.5783,2.5769,2.5769,2.5783,2.5798,2.5886,2.5944,2.5886,2.571,2.5783,2.5754,2.5763,2.5705,2.5622,2.5476,2.5305,2.5261,2.5344,2.5315,2.5261,2.5247,2.5349,2.5173,2.5188,2.5115,2.51,1.2799,1.2799,1.2799,1.2799,1.2799,1.2799,1.2799,1.2815,1.2954,1.3059,1.31,1.3272,1.3643,1.3719,1.5447,1.6559,1.7694,1.8924,2.0217,2.1399,2.2485,2.3024,2.37,2.4482,2.4805,2.4968,2.5042,2.51,2.5086,2.51,2.51,2.5086,2.51,2.51,2.5027,2.4895,2.4793,2.4734,2.4719,2.4719,2.4734,2.4719,2.4734,2.4719,2.4719,2.4719,2.4719,2.4734,2.4734,2.4763,2.4793,2.4895,2.491,2.4954,2.5042,2.5056,2.5086,2.51,2.513,2.5305,2.5388,2.5447,2.5579,2.5564,2.5579,2.5632,2.5836,2.5909,2.6032,2.6164,2.6237,2.6281,2.6325,2.6383,2.6442,2.653,2.653,2.653,2.653,2.653,2.6544,2.653,2.6559,2.6603,2.6661,2.6691,2.6676,2.6632,2.6544,2.631,2.6208,2.6193,2.6193,2.6208,2.6135,2.6149,2.607,2.6012,2.612,2.6149,2.6061,2.6003,2.5915,2.5783,2.5608,2.5652,2.5783,2.5696,2.5535,2.5681,2.5754,2.5476,2.5242,2.5261,2.5232,1.2799,1.2799,1.2799,1.2799,1.2898,1.3383,1.3391,1.2931,1.3019,1.3394,1.4094,1.4344,1.4742,1.58,1.7361,1.852,1.9221,2.0978,2.2314,2.3052,2.3277,2.3842,2.4394,2.4679,2.497,2.51,2.51,2.51,2.51,2.51,2.51,2.51,2.51,2.51,2.5071,2.5042,2.5056,2.5042,2.5056,2.51,2.51,2.51,2.51,2.51,2.51,2.51,2.51,2.51,2.51,2.51,2.51,2.5086,2.5086,2.5086,2.5086,2.51,2.51,2.5188,2.5257,2.5403,2.5529,2.5734,2.6018,2.6061,2.6061,2.6105,2.6143,2.6202,2.6304,2.6442,2.65,2.6559,2.6632,2.6705,2.6822,2.6954,2.6969,2.6969,2.6969,2.6954,2.6954,2.6939,2.6954,2.6998,2.6983,2.691,2.6881,2.6866,2.6808,2.6691,2.6603,2.6574,2.6588,2.6588,2.65,2.6427,2.6457,2.6471,2.653,2.6515,2.6383,2.6252,2.6179,2.6076,2.5974,2.6018,2.6047,2.5988,2.5915,2.6047,2.6091,2.5857,2.5652,2.5622,2.5564,1.2799,1.2799,1.2799,1.2799,1.2997,1.4039,1.3875,1.2964,1.3244,1.4144,1.5375,1.5935,1.6813,1.7774,1.9276,2.0362,2.1143,2.2545,2.3611,2.495,2.4679,2.4781,2.4815,2.51,2.51,2.51,2.51,2.51,2.51,2.51,2.51,2.51,2.51,2.51,2.51,2.51,2.51,2.51,2.51,2.51,2.51,2.51,2.51,2.51,2.51,2.51,2.51,2.51,2.51,2.51,2.51,2.51,2.51,2.5173,2.5159,2.5217,2.5242,2.5388,2.5549,2.5661,2.5842,2.6076,2.6354,2.6471,2.65,2.65,2.653,2.6559,2.6647,2.672,2.6778,2.6793,2.6837,2.6866,2.6925,2.6998,2.6998,2.6998,2.6998,2.6998,2.6998,2.6998,2.6998,2.6998,2.6998,2.6998,2.6998,2.6998,2.6969,2.6896,2.6881,2.6852,2.6837,2.6808,2.6822,2.6778,2.6866,2.691,2.6896,2.6866,2.6705,2.6574,2.6442,2.6398,2.6369,2.6266,2.6237,2.6266,2.6296,2.6296,2.6296,2.6179,2.6091,2.6061,2.59,1.2799,1.2799,1.2799,1.2799,1.2832,1.3161,1.3194,1.2964,1.4412,1.531,1.5831,1.7123,1.8071,1.8892,2.0179,2.1113,2.1803,2.3154,2.4136,2.4645,2.4883,2.4984,2.5086,2.5052,2.5086,2.51,2.51,2.51,2.51,2.51,2.51,2.51,2.51,2.51,2.51,2.51,2.51,2.51,2.51,2.5115,2.5144,2.5115,2.51,2.51,2.51,2.51,2.5115,2.5115,2.51,2.51,2.51,2.51,2.51,2.5286,2.5403,2.5447,2.5608,2.5754,2.59,2.6026,2.6237,2.6398,2.6632,2.6793,2.6866,2.6881,2.6881,2.6932,2.6961,2.6969,2.6998,2.6998,2.6998,2.6998,2.6998,2.6998,2.6998,2.6998,2.6998,2.6998,2.6998,2.6998,2.6998,2.6998,2.6998,2.6998,2.6998,2.6998,2.6998,2.6954,2.6954,2.6939,2.6954,2.6954,2.6998,2.6998,2.6998,2.6998,2.6954,2.6969,2.6998,2.6852,2.6705,2.6793,2.6793,2.6647,2.6603,2.6749,2.6764,2.6632,2.6603,2.653,2.6603,2.6603,2.6354,1.2799,1.2799,1.2799,1.3194,1.3777,1.439,1.4684,1.5119,1.7353,1.8083,1.7687,1.8797,1.9715,2.0236,2.1286,2.1712,2.2216,2.3154,2.385,2.4306,2.4645,2.4781,2.4883,2.5018,2.5086,2.51,2.51,2.51,2.51,2.51,2.51,2.51,2.51,2.51,2.51,2.51,2.51,2.51,2.5115,2.5173,2.5232,2.5203,2.5115,2.51,2.5115,2.5159,2.5242,2.5286,2.5374,2.5447,2.552,2.552,2.5564,2.5666,2.5705,2.5783,2.59,2.6076,2.6237,2.6398,2.6588,2.6735,2.6822,2.6939,2.6954,2.6939,2.6939,2.6954,2.6954,2.6998,2.6998,2.6998,2.6998,2.6998,2.6998,2.6998,2.6998,2.6998,2.6998,2.6998,2.6998,2.6998,2.6998,2.6998,2.6998,2.6998,2.6998,2.6998,2.6998,2.6998,2.6998,2.6998,2.6998,2.6998,2.6998,2.6998,2.6998,2.6998,2.6998,2.6998,2.6998,2.6998,2.6983,2.6969,2.6954,2.6939,2.6954,2.6998,2.6998,2.6852,2.6881,2.6925,2.6998,2.6998,2.6749,1.2799,1.2799,1.2799,1.3457,1.4716,1.6041,1.658,1.7163,2.0109,2.09,1.9965,2.0515,2.1756,2.2482,2.2893,2.3099,2.327,2.3372,2.3679,2.3952,2.436,2.4563,2.4747,2.4883,2.5018,2.51,2.51,2.51,2.51,2.51,2.51,2.51,2.51,2.51,2.51,2.51,2.51,2.5154,2.5227,2.5344,2.533,2.5301,2.5242,2.5217,2.5232,2.533,2.5471,2.5602,2.5734,2.5807,2.59,2.5886,2.5944,2.5988,2.6061,2.6105,2.6222,2.6383,2.6515,2.6588,2.6764,2.6896,2.6969,2.6998,2.6998,2.6998,2.6998,2.6998,2.6998,2.6998,2.6998,2.6998,2.6998,2.6998,2.6998,2.6998,2.6998,2.6998,2.6998,2.6998,2.6998,2.6998,2.6998,2.6998,2.6998,2.6998,2.6998,2.6998,2.6998,2.6998,2.6998,2.6998,2.6998,2.6998,2.6998,2.6998,2.6998,2.6998,2.6998,2.6998,2.6998,2.6998,2.6998,2.6998,2.6998,2.6998,2.6998,2.6998,2.6998,2.6998,2.6998,2.6998,2.6998,2.6998,2.6998,1.2799,1.2799,1.2799,1.2997,1.3514,1.4782,1.5423,1.6128,1.9047,2.0242,2.0712,2.185,2.2756,2.2893,2.2893,2.2996,2.3065,2.3236,2.3372,2.3577,2.4156,2.4394,2.4611,2.4849,2.5018,2.51,2.51,2.51,2.51,2.51,2.51,2.51,2.51,2.51,2.51,2.5144,2.5247,2.5344,2.5476,2.5559,2.5705,2.5725,2.5632,2.571,2.5842,2.5871,2.5915,2.5915,2.5959,2.5988,2.6061,2.6091,2.6179,2.631,2.6383,2.6442,2.6559,2.6691,2.6793,2.6822,2.6939,2.6954,2.6998,2.6998,2.6998,2.6998,2.6998,2.6998,2.6998,2.6998,2.6998,2.6998,2.6998,2.6998,2.6998,2.6998,2.6998,2.6998,2.6998,2.6998,2.6998,2.6998,2.6998,2.6998,2.6998,2.6998,2.6998,2.6998,2.6998,2.6998,2.7013,2.7013,2.7013,2.6998,2.6998,2.6998,2.6998,2.6998,2.6998,2.6998,2.6998,2.6998,2.6998,2.6998,2.6998,2.6998,2.6998,2.6998,2.6998,2.6998,2.6998,2.6998,2.6998,2.6998,2.6998]},{"header":{"parameterUnit":"m.s-1","parameterCategory":1,"la1":31.0,"la2":29.5877,"lo1":-88.7671,"lo2":-86.6584,"dy":0.0162,"dx":0.0185,"nx":115,"ny":88,"refTime":"2026-04-19T12:00:00:Z","depth":0,"parameterNumber":3,"parameterNumberName":"V-component_of_WINDS"},"data":[0.0,0.0,0.0,0.0,0.0,0.0,0.0,0.0,0.0,0.0,0.0,0.0,0.0,0.0,0.0,0.0,0.0,0.0,0.0,0.0,0.0,0.0,0.0,0.0,0.0,0.0,0.0,0.0,0.0,0.0,0.0,0.0,0.0,0.0,0.0,0.0,0.0,0.0,0.0,0.0,0.0,0.0,0.0,0.0,0.0,0.0,0.0,0.0,0.0,0.0,0.0,0.0,0.0,0.0,0.0,0.0,0.0,0.0,0.0,0.0,0.0,0.0,0.0,0.0,0.0,0.0,0.0,0.0,0.0,0.0,0.0,0.0,0.0,0.0,0.0,0.0,0.0,0.0,0.0,0.0,0.0,0.0,0.0,0.0,0.0,0.0,0.0,0.0,0.0,0.0,0.0,0.0,0.0,0.0,0.0,0.0,0.0,0.0,0.0,0.0,0.0,0.0,0.0,0.0,0.0,0.0,0.0,0.0,0.0,0.0,0.0,0.0,0.0,0.0,0.0,0.0,0.0,0.0,0.0,0.0,0.0,0.0,0.0,0.0,0.0,0.0,0.0,0.0,0.0,0.0,0.0,0.0,0.0,0.0,0.0,0.0,0.0,0.0,0.0,0.0,0.0,0.0,0.0,0.0,0.0,0.0,0.0,0.0,0.0,0.0,0.0,0.0,0.0,0.0,0.0,0.0,0.0,0.0,0.0,0.0,0.0,0.0,0.0,0.0,0.0,0.0,0.0,0.0,0.0,0.0,0.0,0.0,0.0,0.0,0.0,0.0,0.0,0.0,0.0,0.0,0.0,0.0,0.0,0.0,0.0,0.0,0.0,0.0,0.0,0.0,0.0,0.0,0.0,0.0,0.0,0.0,0.0,0.0,0.0,0.0,0.0,0.0,0.0,0.0,0.0,0.0,0.0,0.0,0.0,0.0,0.0,0.0,0.0,0.0,0.0,0.0,0.0,0.0,0.0,0.0,0.0,0.0,0.0,0.0,0.0,0.0,0.0,0.0,0.0,0.0,0.0,0.0,0.0,0.0,0.0,0.0,0.0,0.0,0.0,0.0,0.0,0.0,0.0,0.0,0.0,0.0,0.0,0.0,0.0,0.0,0.0,0.0,0.0,0.0,0.0,0.0,0.0,0.0,0.0,0.0,0.0,0.0,0.0,0.0,0.0,0.0,0.0,0.0,0.0,0.0,0.0,0.0,0.0,0.0,0.0,0.0,0.0,0.0,0.0,0.0,0.0,0.0,0.0,0.0,0.0,0.0,0.0,0.0,0.0,0.0,0.0,0.0,0.0,0.0,0.0,0.0,0.0,0.0,0.0,0.0,0.0,0.0,0.0,0.0,0.0,0.0,0.0,0.0,0.0,0.0,0.0,0.0,0.0,0.0,0.0,0.0,0.0,0.0,0.0,0.0,0.0,0.0,0.0,0.0,0.0,0.0,0.0,0.0,0.0,0.0,0.0,0.0,0.0,0.0,0.0,0.0,0.0,0.0,0.0,0.0,0.0,0.0,0.0,0.0,0.0,0.0,0.0,0.0,0.0,0.0,0.0,0.0,0.0,0.0,0.0,0.0,0.0,0.0,0.0,0.0,0.0,0.0,0.0,0.0,0.0,0.0,0.0,0.0,0.0,0.0,0.0,0.0,0.0,0.0,0.0,0.0,0.0,0.0,0.0,0.0,0.0,0.0,0.0,0.0,0.0,0.0,0.0,0.0,0.0,0.0,0.0,0.0,0.0,0.0,0.0,0.0,0.0,0.0,0.0,0.0,0.0,0.0,0.0,0.0,0.0,0.0,0.0,0.0,0.0,0.0,0.0,0.0,0.0,0.0,0.0,0.0,0.0,0.0,0.0,0.0,0.0,0.0,0.0,0.0,0.0,0.0,0.0,0.0,0.0,0.0,0.0,0.0,0.0,0.0,0.0,0.0,0.0,0.0,0.0,0.0,0.0,0.0,0.0,0.0,0.0,0.0,0.0,0.0,0.0,0.0,0.0,0.0,0.0,0.0,0.0,0.0,0.0,0.0,0.0,0.0,0.0,0.0,0.0,0.0,0.0,0.0,0.0,0.0,0.0,0.0,0.0,0.0,0.0,0.0,0.0,0.0,0.0,0.0,0.0,0.0,0.0,0.0,0.0,0.0,0.0,0.0,0.0,0.0,0.0,0.0,0.0,0.0,0.0,0.0,0.0,0.0,0.0,0.0,0.0,0.0,0.0,0.0,0.0,0.0,0.0,0.0,0.0,0.0,0.0,0.0,0.0,0.0,0.0,0.0,0.0,0.0,0.0,0.0,0.0,0.0,0.0,0.0,0.0,0.0,0.0,0.0,0.0,0.0,0.0,0.0,0.0,0.0,0.0,0.0,0.0,0.0,0.0,0.0,0.0,0.0,0.0,0.0,0.0,0.0,0.0,0.0,0.0,0.0,0.0,0.0,0.0,0.0,0.0,0.0,0.0,0.0,0.0,0.0,0.0,0.0,0.0,0.0,0.0,0.0,0.0,0.0,0.0,0.0,0.0,0.0,0.0,0.0,0.0,0.0,0.0,0.0,0.0,0.0,0.0,0.0,0.0,0.0,0.0,0.0,0.0,0.0,0.0,0.0,0.0,0.0,0.0,0.0,0.0,0.0,0.0,0.0,0.0,0.0,0.0,0.0,0.0,0.0,0.0,0.0,0.0,0.0,0.0,0.0,0.0,0.0,0.0,0.0,0.0,0.0,0.0,0.0,0.0,0.0,0.0,0.0,0.0,0.0,0.0,0.0,0.0,0.0,0.0,0.0,0.0,0.0,0.0,0.0,0.0,0.0,0.0,0.0,0.0,0.0,0.0,0.0,0.0,0.0,0.0,0.0,0.0,0.0,0.0,0.0,0.0,0.0,0.0,0.0,0.0,0.0,0.0,0.0,0.0,0.0,0.0,0.0,0.0,0.0,0.0,0.0,0.0,0.0,0.0,0.0,0.0,0.0,0.0,0.0,0.0,0.0,0.0,0.0,0.0,0.0,0.0,0.0,0.0,0.0,0.0,0.0,0.0,0.0,0.0,0.0,0.0,0.0,0.0,0.0,0.0,0.0,0.0,0.0,0.0,0.0,0.0,0.0,0.0,0.0,0.0,0.0,0.0,0.0,0.0,0.0,0.0,0.0,0.0,0.0,0.0,0.0,0.0,0.0,0.0,0.0,0.0,0.0,0.0,0.0,0.0,0.0,0.0,0.0,0.0,0.0,0.0,0.0,0.0,0.0,0.0,0.0,0.0,0.0,0.0,0.0,0.0,0.0,0.0,0.0,0.0,0.0,0.0,0.0,0.0,0.0,0.0,0.0,0.0,0.0,0.0,0.0,0.0,0.0,0.0,0.0,0.0,0.0,0.0,0.0,0.0,0.0,0.0,0.0,0.0,0.0,0.0,0.0,0.0,0.0,0.0,0.0,0.0,0.0,0.0,0.0,0.0,0.0,0.0,0.0,0.0,0.0,0.0,0.0,0.0,0.0,0.0,0.0,0.0,0.0,0.0,0.0,0.0,0.0,0.0,0.0,0.0,0.0,0.0,0.0,0.0,0.0,0.0,0.0,0.0,0.0,0.0,0.0,0.0,0.0,0.0,0.0,0.0,0.0,0.0,0.0,0.0,0.0,0.0,0.0,0.0,0.0,0.0,0.0,0.0,0.0,0.0,0.0,0.0,0.0,0.0,0.0,0.0,0.0,0.0,0.0,0.0,0.0,0.0,0.0,0.0,0.0,0.0,0.0,0.0,0.0,0.0,0.0,0.0,0.0,0.0,0.0,0.0,0.0,0.0,0.0,0.0,0.0,0.0,0.0,0.0,0.0,0.0,0.0,0.0,0.0,0.0,0.0,0.0,0.0,0.0,0.0,0.0,0.0,0.0,0.0,0.0,0.0,0.0,0.0,0.0,0.0,0.0,0.0,0.0,0.0,0.0,0.0,0.0,0.0,0.0,0.0,0.0,0.0,0.0,0.0,0.0,0.0,0.0,0.0,0.0,0.0,0.0,0.0,0.0,0.0,0.0,0.0,0.0,0.0,0.0,0.0,0.0,0.0,0.0,0.0,0.0,0.0,0.0,0.0,0.0,0.0,0.0,0.0,0.0,0.0,0.0,0.0,0.0,0.0,0.0,0.0,0.0,0.0,0.0,0.0,0.0,0.0,0.0,0.0,0.0,0.0,0.0,0.0,0.0,0.0,0.0,0.0,0.0,0.0,0.0,0.0,0.0,0.0,0.0,0.0,0.0,0.0,0.0,0.0,0.0,0.0,0.0,0.0,0.9581,0.0,0.0,0.0,0.0,0.0,0.0,0.0,0.0,0.0,0.0,0.0,0.0,0.0,0.0,0.0,0.0,0.0,0.0,0.0,0.0,0.0,0.0,0.0,0.0,0.0,0.0,0.0,0.0,0.0,0.0,0.0,0.0,0.0,0.0,0.0,0.0,0.0,0.0,0.0,0.0,0.0,0.0,0.0,0.0,0.0,0.0,0.0,0.0,0.0,0.0,0.0,0.0,0.0,0.0,0.0,0.0,0.0,0.0,0.0,0.0,0.0,0.0,0.0,0.0,0.0,0.0,0.0,0.0,0.0,0.0,0.0,0.0,0.0,0.0,0.0,0.0,0.0,0.0,0.0,0.0,0.0,0.0,0.0,0.0,0.0,0.0,0.0,0.0,0.0,0.0,0.0,0.0,0.0,0.0,0.0,0.0,0.0,0.0,0.0,0.0,0.0,0.0,0.0,0.0,0.0,0.0,0.0,0.0,0.0,0.0,0.9162,0.9137,0.9195,0.9494,1.0053,0.0,0.0,0.0,0.0,0.0,0.0,0.0,0.0,0.0,0.0,0.0,0.0,0.0,0.0,0.0,0.0,0.0,0.0,0.0,0.0,0.0,0.0,0.0,0.0,0.0,0.0,0.0,0.0,0.0,0.0,0.0,0.0,0.0,0.0,0.0,0.0,0.0,0.0,0.0,0.0,0.0,0.0,0.0,0.0,0.0,0.0,0.0,0.0,0.0,0.0,0.0,0.0,0.0,0.0,0.0,0.0,0.0,0.0,0.0,0.0,0.0,0.0,0.0,0.0,0.0,0.0,0.0,0.0,0.0,0.0,0.0,0.0,0.0,0.0,0.0,0.0,0.0,0.0,0.0,0.0,0.0,0.0,0.0,0.0,0.0,0.0,0.0,0.0,0.0,0.0,0.0,0.0,0.0,0.0,0.0,0.0,0.0,0.0,0.0,0.0,0.0,0.0,0.0,0.0,0.0,0.0,0.0,0.0,0.0,0.0,0.0,0.0,1.0118,1.0327,1.0731,0.0,0.0,0.0,0.0,0.0,0.0,0.0,0.0,0.0,0.0,0.0,0.0,0.0,0.0,0.0,0.0,0.0,0.0,0.0,0.0,0.0,0.0,0.0,0.0,0.0,0.0,0.0,0.0,0.0,0.0,0.0,0.0,0.0,0.0,0.0,0.0,0.0,0.0,0.0,0.0,0.0,0.0,0.0,0.0,0.0,0.0,0.0,0.0,0.0,0.0,0.0,0.0,0.0,0.0,0.0,0.0,0.0,0.0,0.0,0.0,0.0,0.0,0.0,0.0,0.0,0.0,0.0,0.0,0.0,0.0,0.0,0.0,0.0,0.0,0.0,0.0,0.0,0.0,0.0,0.0,0.0,0.0,0.0,0.0,0.0,0.0,0.0,0.0,0.0,0.0,0.0,0.0,0.0,0.0,0.0,0.0,0.0,0.0,0.0,0.0,0.0,0.0,0.0,0.0,0.0,0.0,0.0,0.0,0.0,0.0,1.0186,1.1368,1.1411,0.0,1.2279,0.0,0.0,0.0,0.0,0.0,0.0,0.0,0.0,0.0,0.0,0.0,0.0,0.0,0.0,0.0,0.0,0.0,0.0,0.0,0.0,0.0,0.0,0.0,0.0,0.0,0.0,0.0,0.0,0.0,0.0,0.0,0.0,0.0,0.0,0.0,0.0,0.0,0.0,0.0,0.0,0.0,0.0,0.0,0.0,0.0,0.0,0.0,0.0,0.0,0.0,0.0,0.0,0.0,0.0,0.0,0.0,0.0,0.0,0.0,0.0,0.0,0.0,0.0,0.0,0.0,0.0,0.0,0.0,0.0,0.0,0.0,0.0,0.0,0.0,0.0,0.0,0.0,0.0,0.0,0.0,0.0,0.0,0.0,0.0,0.0,0.0,0.0,0.0,0.0,0.0,0.0,0.0,0.0,0.0,0.0,0.0,0.0,0.0,0.0,0.0,0.0,0.0,0.0,0.0,0.0,0.0,0.0,0.0,0.0,0.0,0.0,1.0947,1.1972,1.2513,0.0,0.0,0.0,0.0,0.0,0.0,0.0,0.0,0.0,0.0,0.0,0.0,0.0,0.0,0.0,0.0,0.0,0.0,0.0,0.0,0.0,0.0,0.0,0.0,0.0,0.0,0.0,0.0,0.0,0.0,0.0,0.0,0.0,0.0,0.0,0.0,0.0,0.0,0.0,0.0,0.0,0.0,0.0,0.0,0.0,0.0,0.0,0.0,0.0,0.0,0.0,0.0,0.0,0.0,0.0,0.0,0.0,0.0,0.0,0.0,0.0,0.0,0.0,0.0,0.0,0.0,0.0,0.0,0.0,0.0,0.0,0.0,0.0,0.0,0.0,0.0,0.0,0.0,0.0,0.0,0.0,0.0,0.0,0.0,0.0,0.0,0.0,0.0,0.0,0.0,0.0,0.0,0.0,0.0,0.0,0.0,0.0,0.0,0.0,0.0,0.0,0.0,0.0,0.0,0.0,0.0,0.0,0.0,0.0,0.0,0.9879,0.0,1.1382,1.2482,1.2892,1.2478,0.0,0.0,0.0,0.0,0.0,0.0,0.0,0.0,0.0,0.0,0.0,0.0,0.0,0.0,0.0,0.0,0.0,0.0,0.0,0.0,0.0,0.0,0.0,0.0,0.0,0.0,0.0,0.0,0.0,0.0,0.0,0.0,0.0,0.0,0.0,0.0,0.0,0.0,0.0,0.0,0.0,0.0,0.0,0.0,0.0,0.0,0.0,0.0,0.0,0.0,0.0,0.0,0.0,0.0,0.0,0.0,0.0,0.0,0.0,0.0,0.0,0.0,0.0,0.0,0.0,0.0,0.0,0.0,0.0,0.0,0.0,0.0,0.0,0.0,0.0,0.0,0.0,0.0,0.0,0.0,0.0,0.0,0.0,0.0,0.0,0.0,0.0,0.0,0.0,0.0,0.0,0.0,0.0,0.0,0.0,0.0,0.0,0.0,0.0,0.0,0.0,0.0,0.0,0.0,0.0,0.0,0.0,0.0,0.0,1.0759,1.1464,1.3361,1.3035,1.2681,0.0,0.0,0.0,0.0,0.0,0.0,0.0,0.0,0.0,0.0,0.0,0.0,0.0,0.0,0.0,0.0,0.0,0.0,0.0,0.0,0.0,0.0,0.0,0.0,0.0,0.0,0.0,0.0,0.0,0.0,0.0,0.0,0.0,0.0,0.0,0.0,0.0,0.0,0.0,0.0,0.0,0.0,0.0,0.0,0.0,0.0,0.0,0.0,0.0,0.0,0.0,0.0,0.0,0.0,0.0,0.0,0.0,0.0,0.0,0.0,0.0,0.0,0.0,0.0,0.0,0.0,0.0,0.0,0.0,0.0,0.0,0.0,0.0,0.0,0.0,0.0,0.0,0.0,0.0,0.0,0.0,0.0,0.0,0.0,0.0,0.0,0.0,0.0,0.0,0.0,0.0,0.0,0.0,0.0,0.0,0.0,0.0,0.0,0.0,0.0,0.0,0.0,0.0,0.0,0.0,0.0,0.0,0.0,0.0,0.8995,0.958,1.1317,1.4037,1.2635,1.2138,0.0,0.0,0.0,0.0,0.0,0.0,0.0,0.0,0.0,0.0,0.0,0.0,0.0,0.0,0.0,0.0,0.0,0.0,0.0,0.0,0.0,0.0,0.0,0.0,0.0,0.0,0.0,0.0,0.0,0.0,0.0,0.0,0.0,0.0,0.0,0.0,0.0,0.0,0.0,0.0,0.0,0.0,0.0,0.0,0.0,0.0,0.0,0.0,0.0,0.0,0.0,0.0,0.0,0.0,0.0,0.0,0.0,0.0,0.0,0.0,0.0,0.0,0.0,0.0,0.0,0.0,0.0,0.0,0.0,0.0,0.0,0.0,0.0,0.0,0.0,0.0,0.0,0.0,0.0,0.0,0.0,0.0,0.0,0.0,0.0,0.0,0.0,0.0,0.0,0.0,0.0,0.0,0.0,0.0,0.0,0.0,0.0,0.0,0.0,0.0,0.0,0.0,0.0,0.0,0.0,0.0,0.0,0.0,0.0,0.8903,0.0,1.1942,0.0,1.2672,1.2076,0.0,0.0,0.0,0.0,0.0,0.0,0.0,0.0,0.0,0.0,0.0,0.0,0.0,0.0,0.0,0.0,0.0,0.0,0.0,0.0,0.0,0.0,0.0,0.0,0.0,0.0,0.0,0.0,0.0,0.0,0.0,0.0,0.0,0.0,0.0,0.0,0.0,0.0,0.0,0.0,0.0,0.0,0.0,0.0,0.0,0.0,0.0,0.0,0.0,0.0,0.0,0.0,0.0,0.0,0.0,0.0,0.0,0.0,0.0,0.0,0.0,0.0,0.0,0.0,0.0,0.0,0.0,0.0,0.0,0.0,0.0,0.0,0.0,0.0,0.0,0.0,0.0,0.0,0.0,0.0,0.0,0.0,0.0,0.0,0.0,0.0,0.0,0.0,0.0,0.0,0.0,0.0,0.0,0.0,0.0,0.0,0.0,0.0,0.0,0.0,0.0,0.0,0.0,0.0,0.0,0.0,0.0,0.0,0.0,1.1402,1.2623,1.3341,1.3616,1.3165,1.2472,0.0,0.0,0.0,0.0,0.0,0.0,0.0,0.0,0.0,0.0,0.0,0.0,0.0,0.0,0.0,0.0,0.0,0.0,0.0,0.0,0.0,0.0,0.0,0.0,0.0,0.0,0.0,0.0,0.0,0.0,0.0,0.0,0.0,0.0,0.0,0.0,0.0,0.0,0.0,0.0,0.0,0.0,0.0,0.0,0.0,0.0,0.0,0.0,0.0,0.0,0.0,0.0,0.0,0.0,0.0,0.0,0.0,0.0,0.0,0.0,0.0,0.0,0.0,0.0,0.0,0.0,0.0,0.0,0.0,0.0,0.0,0.0,0.0,0.0,0.0,0.0,0.0,0.0,0.0,0.0,0.0,0.0,0.0,0.0,0.0,0.0,0.0,0.0,0.0,0.0,0.0,0.0,0.0,0.0,0.0,0.0,0.0,0.0,0.0,0.0,0.0,0.0,0.0,0.0,0.0,0.0,0.0,0.0,0.0,1.1518,1.1943,1.3164,1.5128,1.304,1.244,0.0,0.0,0.0,0.0,0.0,0.0,0.0,0.0,0.0,0.0,0.0,0.0,0.0,0.0,0.0,0.0,0.0,0.0,0.0,0.0,0.0,0.0,0.0,0.0,0.0,0.0,0.0,0.0,0.0,0.0,0.0,0.0,0.0,0.0,0.0,0.0,0.0,0.0,0.0,0.0,0.0,0.0,0.0,0.0,0.0,0.0,0.0,0.0,0.0,0.0,0.0,0.0,0.0,0.0,0.0,0.0,0.0,0.0,0.0,0.0,0.0,0.0,0.0,0.0,0.0,0.0,0.0,0.0,0.0,0.0,0.0,0.0,0.0,0.0,0.0,0.0,0.0,0.0,0.0,0.0,0.0,0.0,0.0,0.0,0.0,0.0,0.0,0.0,0.0,0.0,0.0,0.0,0.0,0.0,0.0,0.0,0.0,0.0,0.0,0.0,0.0,0.0,0.0,0.0,0.0,0.0,0.0,0.0,0.0,1.3351,1.3376,1.4218,1.5977,1.4188,1.3605,1.4384,0.0,0.0,0.0,0.0,0.0,0.0,0.0,0.0,0.0,0.0,0.0,0.0,0.0,0.0,0.0,0.0,0.0,0.0,0.0,0.0,0.0,0.0,0.0,0.0,0.0,0.0,0.0,0.0,0.0,0.0,0.0,0.0,0.0,0.0,0.0,0.0,0.0,0.0,0.0,0.0,0.0,0.0,0.0,0.0,0.0,0.0,0.0,0.0,0.0,0.0,0.0,0.0,0.0,0.0,0.0,0.0,0.0,0.0,0.0,0.0,0.0,0.0,0.0,0.0,0.0,0.0,0.0,0.0,0.0,0.0,0.0,0.0,0.0,0.0,0.0,0.0,0.0,0.0,0.0,0.0,0.0,0.0,0.0,0.0,0.0,0.0,0.0,0.0,0.0,0.0,0.0,0.0,0.0,0.0,0.0,0.0,0.0,0.0,0.0,0.0,0.0,0.0,0.0,0.0,0.0,0.0,0.0,0.0,1.6521,1.6623,1.6492,1.6159,1.6274,1.5681,0.0,0.0,0.0,0.0,0.0,0.0,0.0,0.0,0.0,0.0,0.0,0.0,0.0,0.0,0.0,0.0,0.0,0.0,0.0,0.0,0.0,0.0,0.0,0.0,0.0,0.0,0.0,0.0,0.0,0.0,0.0,0.0,0.0,0.0,0.0,0.0,0.0,0.0,0.0,0.0,0.0,0.0,0.0,0.0,0.0,0.0,0.0,0.0,0.0,0.0,0.0,0.0,0.0,0.0,0.0,0.0,0.0,0.0,0.0,0.0,0.0,0.0,0.0,0.0,0.0,0.0,0.0,0.0,0.0,0.0,0.0,0.0,0.0,0.0,0.0,0.0,0.0,0.0,0.0,0.0,0.0,0.0,0.0,0.0,0.0,0.0,0.0,0.0,0.0,0.0,0.0,0.0,0.0,0.0,0.0,0.0,0.0,0.0,0.0,0.0,0.0,0.0,0.0,0.0,0.0,0.0,0.0,0.0,0.0,1.8266,1.9273,1.9431,1.8633,1.7232,1.6524,0.0,0.0,0.0,0.0,0.0,0.0,0.0,0.0,0.0,0.0,0.0,0.0,0.0,0.0,0.0,0.0,0.0,0.0,0.0,0.0,0.0,0.0,0.0,0.0,0.0,0.0,0.0,0.0,0.0,0.0,0.0,0.0,0.0,0.0,0.0,0.0,0.0,0.0,0.0,0.0,0.0,0.0,0.0,0.0,0.0,0.0,0.0,0.0,0.0,0.0,0.0,0.0,0.0,0.0,0.0,0.0,0.0,0.0,0.0,0.0,0.0,0.0,0.0,0.0,0.0,0.0,0.0,0.0,0.0,0.0,0.0,0.0,0.0,0.0,0.0,0.0,0.0,0.0,0.0,0.0,0.0,0.0,0.0,0.0,0.0,0.0,0.0,0.0,0.0,0.0,0.0,0.0,0.0,0.0,0.0,0.0,0.0,0.0,0.0,0.0,0.0,0.0,0.0,0.0,0.0,0.0,0.0,0.0,1.7696,1.9884,2.0904,2.1351,2.1171,1.9778,1.8501,0.0,0.0,0.0,0.0,0.0,0.0,0.0,0.0,0.0,0.0,0.0,0.0,0.0,0.0,0.0,0.0,0.0,0.0,0.0,0.0,0.0,0.0,0.0,0.0,0.0,0.0,0.0,0.0,0.0,0.0,0.0,0.0,0.0,0.0,0.0,0.0,0.0,0.0,0.0,0.0,0.0,0.0,0.0,0.0,0.0,0.0,0.0,0.0,0.0,0.0,0.0,0.0,0.0,0.0,0.0,0.0,0.0,0.0,0.0,0.0,0.0,0.0,0.0,0.0,0.0,0.0,0.0,0.0,0.0,0.0,0.0,0.0,0.0,0.0,0.0,0.0,0.0,0.0,0.0,0.0,0.0,0.0,0.0,0.0,0.0,0.0,0.0,0.0,0.0,0.0,0.0,0.0,0.0,0.0,0.0,0.0,0.0,0.0,0.0,0.0,0.0,0.0,0.0,0.0,0.0,0.0,0.0,0.0,1.8714,2.1205,2.1983,2.273,2.3509,2.2735,2.0859,0.0,0.0,0.0,0.0,0.0,0.0,0.0,0.0,0.0,0.0,0.0,0.0,0.0,0.0,0.0,0.0,0.0,0.0,0.0,0.0,0.0,0.0,0.0,0.0,0.0,0.0,0.0,0.0,0.0,0.0,0.0,0.0,0.0,0.0,0.0,0.0,0.0,0.0,0.0,0.0,0.0,0.0,0.0,0.0,0.0,0.0,0.0,0.0,0.0,0.0,0.0,0.0,0.0,0.0,0.0,0.0,0.0,0.0,0.0,0.0,0.0,0.0,0.0,0.0,0.0,0.0,0.0,0.0,0.0,0.0,0.0,0.0,0.0,0.0,0.0,0.0,0.0,0.0,0.0,0.0,0.0,0.0,0.0,0.0,0.0,0.0,0.0,0.0,0.0,0.0,0.0,0.0,0.0,0.0,0.0,0.0,0.0,0.0,0.0,0.0,0.0,0.0,0.0,0.0,0.0,0.0,0.0,0.0,2.0128,2.1661,2.3646,2.4687,2.4742,2.2663,2.0789,0.0,0.0,0.0,0.0,0.0,0.0,0.0,0.0,0.0,0.0,0.0,0.0,0.0,0.0,0.0,0.0,0.0,0.0,0.0,0.0,0.0,0.0,0.0,0.0,0.0,0.0,0.0,0.0,0.0,0.0,0.0,0.0,0.0,0.0,0.0,0.0,0.0,0.0,0.0,0.0,0.0,0.0,0.0,0.0,0.0,0.0,0.0,0.0,1.3924,0.0,0.0,0.0,0.0,0.0,0.0,0.0,0.0,0.0,0.0,0.0,0.0,0.0,0.0,0.0,0.0,0.0,0.0,0.0,0.0,0.0,0.0,0.0,0.0,0.0,0.0,0.0,0.0,0.0,0.0,0.0,0.0,0.0,0.0,0.0,0.0,0.0,0.0,0.0,0.0,0.0,0.0,0.0,0.0,0.0,0.0,0.0,0.0,0.0,0.0,0.0,0.0,0.0,0.0,0.0,0.0,0.0,0.0,0.0,2.1397,2.2772,2.4507,2.5459,2.553,2.3646,2.1774,0.0,0.0,0.0,0.0,0.0,0.0,0.0,0.0,0.0,0.0,0.0,0.0,0.0,0.0,0.0,0.0,0.0,0.0,0.0,0.0,0.0,0.0,0.0,0.0,0.0,0.0,0.0,0.0,0.0,0.0,0.0,0.0,0.0,0.0,0.0,0.0,0.0,0.0,0.0,0.0,0.0,0.0,0.0,0.0,0.0,0.0,0.0,0.0,0.0,0.0,0.0,0.0,0.0,0.0,0.0,0.0,0.0,0.0,0.0,0.0,0.0,0.0,0.0,0.0,0.0,0.0,0.0,0.0,0.0,0.0,0.0,0.0,0.0,0.0,0.0,0.0,0.0,0.0,0.0,0.0,0.0,0.0,0.0,0.0,0.0,0.0,0.0,0.0,0.0,0.0,0.0,0.0,0.0,0.0,0.0,0.0,0.0,0.0,0.0,0.0,0.0,0.0,0.0,0.0,0.0,0.0,0.0,2.0048,2.2339,2.396,2.4995,2.577,2.6143,2.487,2.313,0.0,0.0,0.0,0.0,0.0,0.0,0.0,0.0,0.0,0.0,0.0,0.0,0.0,0.0,0.0,0.0,0.0,0.0,0.0,0.0,0.0,0.0,0.0,0.0,0.0,0.0,0.0,0.0,0.0,0.0,0.0,0.0,0.0,0.0,0.0,0.0,0.0,0.0,0.0,1.2649,1.4313,0.0,0.0,0.0,0.0,0.0,0.0,0.0,0.0,1.5266,0.0,0.0,0.0,0.0,0.0,0.0,0.0,0.0,0.0,0.0,0.0,0.0,0.0,0.0,0.0,0.0,0.0,0.0,0.0,0.0,0.0,0.0,0.0,0.0,0.0,0.0,0.0,0.0,0.0,0.0,0.0,0.0,0.0,0.0,0.0,0.0,0.0,0.0,0.0,0.0,0.0,0.0,0.0,0.0,0.0,0.0,0.0,0.0,0.0,0.0,0.0,0.0,0.0,0.0,0.0,0.0,1.956,2.0592,2.2192,2.4432,2.5529,2.6114,2.6152,2.5366,2.3876,2.1672,0.0,0.0,0.0,0.0,0.0,0.0,0.0,0.0,0.0,0.0,0.0,0.0,0.0,0.0,0.0,0.0,0.0,0.0,0.0,0.0,0.0,0.0,0.0,0.0,0.0,0.0,0.0,0.0,0.0,0.0,0.0,0.0,0.0,0.0,0.0,0.0,0.0,0.0,0.0,1.5763,1.6702,0.0,0.0,0.0,0.0,0.0,0.0,0.0,0.0,1.522,0.0,0.0,0.0,0.0,0.0,0.0,0.0,0.0,0.0,0.0,0.0,0.0,0.0,0.0,0.0,0.0,0.0,0.0,0.0,0.0,0.0,0.0,0.0,0.0,0.0,0.0,0.0,0.0,0.0,0.0,0.0,0.0,0.0,0.0,0.0,0.0,0.0,0.0,0.0,0.0,0.0,0.0,0.0,0.0,0.0,0.0,0.0,0.0,0.0,0.0,0.0,0.0,0.0,0.0,0.0,1.9857,2.1665,2.3362,2.5023,2.5784,2.6194,2.6161,2.4746,2.3288,0.0,0.0,0.0,0.0,0.0,0.0,0.0,0.0,0.0,0.0,0.0,0.0,0.0,0.0,0.0,0.0,0.0,0.0,0.0,0.0,0.0,0.0,0.0,0.0,0.0,0.0,0.0,0.0,0.0,0.0,0.0,0.0,0.0,0.0,0.0,0.0,0.0,0.0,0.0,0.0,1.748,1.8134,1.821,0.0,0.0,0.0,0.0,0.0,0.0,1.6911,1.6219,0.0,0.0,0.0,0.0,0.0,0.0,0.0,0.0,0.0,0.0,0.0,0.0,0.0,0.0,0.0,0.0,0.0,0.0,0.0,0.0,0.0,0.0,0.0,0.0,0.0,0.0,0.0,0.0,0.0,0.0,0.0,0.0,0.0,0.0,0.0,0.0,0.0,0.0,0.0,0.0,0.0,0.0,0.0,0.0,0.0,0.0,0.0,0.0,0.0,0.0,0.0,0.0,0.0,0.0,0.0,2.0067,2.2614,2.4475,2.5594,2.5999,2.6194,2.6161,2.4348,2.2857,0.0,0.0,0.0,0.0,0.0,0.0,0.0,0.0,0.0,0.0,0.0,0.0,0.0,0.0,0.0,0.0,0.0,0.0,0.0,0.0,0.0,0.0,0.0,0.0,0.0,0.0,0.0,0.0,0.0,0.0,0.0,0.0,0.0,0.0,0.0,0.0,0.0,0.0,0.0,0.0,0.0,1.9679,1.953,1.9272,0.0,0.0,0.0,0.0,1.8715,1.8488,0.0,0.0,0.0,0.0,0.0,0.0,0.0,0.0,0.0,0.0,0.0,0.0,0.0,0.0,0.0,0.0,0.0,0.0,0.0,0.0,0.0,0.0,0.0,0.0,0.0,0.0,0.0,0.0,0.0,0.0,0.0,0.0,0.0,0.0,0.0,0.0,0.0,0.0,0.0,0.0,0.0,0.0,0.0,0.0,0.0,0.0,0.0,0.0,0.0,0.0,0.0,0.0,0.0,0.0,0.0,0.0,2.1113,2.2802,2.4465,2.6015,2.6159,2.6194,2.6194,2.5333,2.3893,0.0,0.0,0.0,0.0,0.0,0.0,0.0,0.0,0.0,0.0,0.0,0.0,0.0,0.0,0.0,0.0,0.0,0.0,0.0,0.0,0.0,0.0,0.0,0.0,0.0,0.0,0.0,0.0,0.0,0.0,0.0,0.0,0.0,0.0,0.0,0.0,0.0,0.0,0.0,0.0,0.0,2.1199,1.9402,2.0058,2.0502,0.0,0.0,0.0,2.0772,2.1311,0.0,0.0,0.0,0.0,0.0,0.0,0.0,0.0,0.0,0.0,0.0,0.0,0.0,0.0,0.0,0.0,0.0,0.0,0.0,0.0,0.0,0.0,0.0,0.0,0.0,0.0,0.0,0.0,0.0,0.0,0.0,0.0,0.0,0.0,0.0,0.0,0.0,0.0,0.0,0.0,0.0,0.0,0.0,0.0,0.0,0.0,0.0,0.0,0.0,0.0,0.0,0.0,0.0,0.0,0.0,0.0,2.16,2.3876,2.5658,2.6766,2.6809,2.6842,2.6809,2.4878,2.3222,0.0,0.0,0.0,0.0,0.0,0.0,0.0,0.0,0.0,0.0,0.0,0.0,0.0,0.0,0.0,0.0,0.0,0.0,0.0,0.0,0.0,0.0,0.0,0.0,0.0,0.0,0.0,0.0,0.0,0.0,0.0,0.0,0.0,0.0,0.0,0.0,0.0,0.0,0.0,0.0,0.0,0.0,2.179,2.1964,0.0,0.0,0.0,2.2273,2.2174,0.0,0.0,0.0,0.0,0.0,0.0,0.0,0.0,0.0,0.0,0.0,0.0,0.0,0.0,0.0,0.0,0.0,0.0,0.0,0.0,0.0,0.0,0.0,0.0,0.0,0.0,0.0,0.0,0.0,0.0,0.0,0.0,0.0,0.0,0.0,0.0,0.0,0.0,0.0,0.0,0.0,0.0,0.0,0.0,0.0,0.0,0.0,0.0,0.0,0.0,0.0,0.0,0.0,0.0,0.0,0.0,0.0,2.1812,2.4878,2.6733,2.73,2.7324,2.7324,2.7258,2.463,0.0,0.0,0.0,0.0,0.0,0.0,0.0,0.0,0.0,0.0,0.0,0.0,0.0,0.0,0.0,0.0,0.0,0.0,0.0,0.0,0.0,0.0,0.0,0.0,0.0,0.0,0.0,0.0,0.0,0.0,0.0,0.0,0.0,0.0,0.0,0.0,0.0,0.0,0.0,0.0,0.0,0.0,2.2289,2.3705,2.3867,2.4041,0.0,0.0,2.4396,2.3722,2.4025,2.3277,0.0,0.0,0.0,0.0,0.0,0.0,0.0,0.0,0.0,0.0,0.0,0.0,0.0,0.0,0.0,0.0,0.0,0.0,0.0,0.0,0.0,0.0,0.0,0.0,0.0,0.0,0.0,0.0,0.0,0.0,0.0,0.0,0.0,0.0,0.0,0.0,0.0,0.0,0.0,0.0,0.0,0.0,0.0,0.0,0.0,0.0,0.0,0.0,0.0,0.0,0.0,0.0,0.0,0.0,0.0,2.1864,2.5392,2.7258,2.7324,2.7324,2.7324,2.7258,2.5127,2.3255,0.0,0.0,0.0,0.0,0.0,0.0,0.0,0.0,0.0,0.0,0.0,0.0,0.0,0.0,0.0,0.0,0.0,0.0,0.0,0.0,0.0,0.0,0.0,0.0,0.0,0.0,0.0,0.0,0.0,0.0,0.0,0.0,0.0,0.0,0.0,0.0,0.0,0.0,0.0,0.0,0.0,2.3887,2.3902,2.5413,2.6546,0.0,0.0,2.6371,2.5703,2.6811,2.6226,2.1611,0.0,0.0,0.0,0.0,0.0,0.0,0.0,0.0,0.0,0.0,0.0,0.0,0.0,0.0,0.0,0.0,0.0,0.0,0.0,0.0,0.0,0.0,0.0,0.0,0.0,0.0,0.0,0.0,0.0,0.0,0.0,0.0,0.0,0.0,0.0,0.0,0.0,0.0,0.0,0.0,0.0,0.0,0.0,0.0,0.0,0.0,0.0,0.0,0.0,0.0,0.0,0.0,0.0,2.0558,2.2501,2.6122,2.8167,2.8588,2.8588,2.8399,2.7978,2.627,2.4249,0.0,0.0,0.0,0.0,0.0,0.0,0.0,0.0,0.0,0.0,0.0,0.0,0.0,0.0,0.0,0.0,0.0,0.0,0.0,0.0,0.0,0.0,0.0,0.0,0.0,0.0,0.0,0.0,1.1919,1.2366,1.315,0.0,0.0,0.0,0.0,0.0,0.0,0.0,0.0,0.0,0.0,2.451,2.5654,2.6896,0.0,0.0,2.8104,2.8002,2.774,2.7567,2.6352,2.2955,2.149,0.0,0.0,0.0,0.0,0.0,0.0,0.0,0.0,0.0,0.0,0.0,0.0,0.0,0.0,0.0,0.0,0.0,0.0,0.0,0.0,0.0,0.0,0.0,0.0,0.0,0.0,0.0,0.0,0.0,0.0,0.0,0.0,0.0,0.0,0.0,0.0,0.0,0.0,0.0,0.0,0.0,0.0,0.0,0.0,0.0,0.0,0.0,0.0,0.0,0.0,0.0,0.0,2.0896,2.2898,2.6519,2.8731,2.9397,2.9397,2.9085,2.8409,2.6965,2.4936,0.0,0.0,0.0,0.0,0.0,0.0,0.0,0.0,0.0,0.0,0.0,0.0,0.0,0.0,0.0,0.0,0.0,0.0,0.0,0.0,0.0,0.0,0.0,0.0,0.0,0.0,0.0,0.0,1.2957,1.3398,1.4471,0.0,0.0,0.0,0.0,0.0,0.0,0.0,0.0,0.0,0.0,2.5602,2.7359,2.8465,2.9039,2.8958,2.9149,2.9106,2.8724,2.7983,2.6634,2.4286,0.0,0.0,0.0,0.0,0.0,0.0,0.0,0.0,0.0,0.0,0.0,0.0,0.0,0.0,0.0,0.0,0.0,0.0,0.0,0.0,0.0,0.0,0.0,0.0,0.0,0.0,0.0,0.0,0.0,0.0,0.0,0.0,0.0,0.0,0.0,0.0,0.0,0.0,0.0,0.0,0.0,0.0,0.0,0.0,0.0,0.0,0.0,0.0,0.0,0.0,0.0,0.0,0.0,0.0,2.2924,2.6553,2.8731,2.9407,2.9407,2.9118,2.8419,2.6965,2.5168,2.2932,0.0,0.0,0.0,0.0,0.0,0.0,0.0,0.0,0.0,0.0,0.0,0.0,0.0,0.0,0.0,0.0,0.0,0.0,0.0,0.0,0.0,0.0,0.0,0.0,0.0,0.0,1.4181,1.4268,1.4536,0.0,0.0,0.0,0.0,0.0,0.0,0.0,0.0,0.0,0.0,2.5719,2.7447,2.8848,3.0173,3.0498,2.9304,2.9673,2.963,2.8379,2.8218,2.7602,0.0,0.0,0.0,0.0,0.0,0.0,0.0,0.0,0.0,0.0,0.0,0.0,0.0,0.0,0.0,0.0,0.0,0.0,0.0,0.0,0.0,0.0,0.0,0.0,0.0,0.0,0.0,1.6943,1.5529,0.0,0.0,0.0,0.0,0.0,0.0,0.0,0.0,0.0,0.0,0.0,2.1287,2.2671,0.0,0.0,0.0,0.0,0.0,0.0,0.0,0.0,0.0,0.0,0.0,0.0,2.1904,2.4348,2.7041,2.8953,3.0102,3.0125,2.9804,2.9085,2.8158,2.6411,2.3719,0.0,0.0,0.0,0.0,0.0,0.0,0.0,0.0,0.0,0.0,0.0,0.0,0.0,0.0,0.0,0.0,0.0,0.0,0.0,0.0,0.0,0.0,0.0,0.0,0.0,1.4754,0.0,0.0,0.0,0.0,0.0,0.0,0.0,0.0,0.0,0.0,0.0,2.26,2.4623,2.6655,2.8422,2.9709,3.0371,3.0667,0.0,0.0,0.0,0.0,0.0,0.0,0.0,0.0,0.0,0.0,0.0,0.0,0.0,0.0,2.6067,2.1902,2.0761,2.0498,2.0508,0.0,0.0,0.0,0.0,0.0,0.0,0.0,0.0,0.0,0.0,0.0,0.0,0.0,0.0,0.0,0.0,1.8888,0.0,0.0,0.0,0.0,0.0,0.0,0.0,0.0,2.353,2.4788,2.4296,2.5916,2.6037,0.0,2.4617,2.2797,0.0,0.0,0.0,0.0,0.0,0.0,0.0,0.0,2.3056,2.5475,2.7628,2.9317,3.0423,3.0489,3.0158,2.9417,2.8257,2.6601,2.4439,2.2047,2.0392,0.0,0.0,0.0,0.0,0.0,0.0,0.0,0.0,0.0,0.0,0.0,0.0,0.0,0.0,0.0,0.0,0.0,0.0,0.0,0.0,0.0,0.0,0.0,1.5641,0.0,0.0,0.0,0.0,0.0,0.0,0.0,0.0,0.0,2.0957,2.249,2.442,2.6704,2.8158,2.9429,3.0539,0.0,0.0,0.0,0.0,0.0,0.0,0.0,3.0081,3.013,2.938,2.8514,2.7762,2.8915,2.9367,2.7667,0.0,0.0,2.4623,2.356,2.33,2.33,2.3884,2.4282,2.3897,2.4844,2.5591,0.0,0.0,0.0,0.0,0.0,0.0,0.0,0.0,2.1993,2.2884,0.0,2.2598,0.0,0.0,0.0,0.0,0.0,0.0,0.0,0.0,2.732,2.8853,2.8906,2.9759,2.964,2.8598,2.9099,2.7973,2.5184,2.1458,0.0,0.0,0.0,0.0,0.0,0.0,2.477,2.6294,2.8347,2.9761,3.0456,3.0489,3.0158,2.9397,2.742,2.5996,2.5168,2.3785,2.1996,1.9856,1.9028,0.0,0.0,0.0,0.0,0.0,0.0,0.0,0.0,0.0,0.0,0.0,0.0,0.0,0.0,0.0,0.0,0.0,0.0,0.0,0.0,1.6375,0.0,0.0,0.0,0.0,0.0,0.0,0.0,0.0,0.0,0.0,2.4378,2.4469,2.5896,2.971,0.0,0.0,0.0,0.0,3.2987,3.2501,3.297,3.3382,3.3397,3.341,3.3378,3.3417,0.0,0.0,3.0748,3.1931,3.2107,2.8965,2.9613,3.0093,2.9253,2.7977,2.7207,2.7292,2.7296,2.7325,2.7401,2.8288,2.9156,2.8849,0.0,0.0,0.0,0.0,2.6208,2.6794,2.7572,2.802,2.7464,2.6195,2.613,0.0,0.0,0.0,0.0,0.0,0.0,2.6226,2.7479,2.9448,3.0533,3.0826,3.1594,3.1791,3.1448,3.1139,3.0555,2.9651,2.7543,2.457,2.0976,0.0,0.0,0.0,0.0,2.6303,2.7737,2.8844,2.9761,3.0489,3.0489,3.0168,2.944,2.881,2.7926,2.6718,2.5773,2.4481,2.2817,2.1525,0.0,0.0,0.0,0.0,0.0,0.0,0.0,0.0,0.0,0.0,0.0,0.0,0.0,0.0,0.0,0.0,0.0,0.0,0.0,1.725,1.7258,1.7776,0.0,0.0,0.0,0.0,0.0,0.0,0.0,0.0,0.0,2.9339,2.89,2.9032,0.0,0.0,3.1922,3.2784,3.3096,3.3578,3.4397,0.0,0.0,0.0,3.4101,3.4279,3.4672,3.5098,3.5168,3.4575,3.4638,3.4405,3.3284,3.3576,3.3785,3.3329,3.0835,2.928,2.9967,3.0108,3.0158,3.0645,3.1353,3.2005,3.4537,3.1609,3.0243,2.9679,2.978,3.0273,3.0802,3.1362,3.182,3.1466,3.0571,2.9977,2.866,2.6746,2.5852,0.0,0.0,0.0,2.9447,3.0849,3.2325,3.3143,3.3427,3.387,3.3959,3.3717,3.2973,3.2463,3.2175,3.132,2.9033,2.5521,0.0,0.0,2.4813,2.6308,2.7684,2.8842,2.9586,3.011,3.0489,3.0489,3.029,2.987,2.9562,2.8887,2.7789,2.705,2.5938,2.4481,2.3288,2.1672,0.0,0.0,0.0,0.0,0.0,0.0,0.0,0.0,0.0,0.0,0.0,1.4184,0.0,0.0,0.0,0.0,1.669,1.8317,1.9471,1.9877,0.0,0.0,0.0,0.0,0.0,0.0,0.0,2.7168,2.8823,3.0594,3.2765,3.2691,3.2611,3.3206,3.3391,3.3705,3.4455,0.0,3.5227,3.6325,3.6518,3.6467,3.6333,3.6346,3.6467,3.6816,3.717,3.7274,3.7019,3.6721,3.6313,3.5765,3.5642,3.5632,3.5328,3.3336,3.1988,3.2857,3.2912,3.2964,3.3329,3.3695,3.4072,3.9301,3.8421,3.5299,3.3534,3.2944,3.3976,3.4084,3.357,3.3914,3.4783,3.581,3.3867,3.2939,3.2763,3.0773,0.0,0.0,3.2376,3.3371,3.4167,3.5482,3.621,3.6358,3.6367,3.6104,3.5564,3.4857,3.4141,3.3559,3.3447,3.2675,3.1264,2.9034,2.7881,2.791,2.8534,2.9186,2.9872,3.0562,3.079,3.0588,3.0588,3.0555,3.0489,2.9804,2.9085,2.8409,2.7689,2.6652,2.5267,2.4472,2.313,2.1083,0.0,0.0,0.0,0.0,0.0,0.0,0.0,0.0,0.0,0.0,0.0,0.0,0.0,0.0,0.0,2.0676,0.0,2.2355,2.3463,0.0,0.0,0.0,2.4058,2.5534,2.7173,2.8675,3.013,0.0,0.0,0.0,0.0,3.6265,3.6489,3.589,3.5662,3.6207,3.6731,3.7421,3.8084,3.8335,3.8613,3.9009,3.9169,3.9089,3.9076,3.9315,3.8944,3.8401,3.8242,3.7729,3.6776,3.6468,3.6367,3.5837,3.5705,3.5695,3.5709,3.552,3.545,3.5475,3.5524,3.557,3.9603,3.9443,3.9136,3.7989,3.6332,3.6497,3.6464,3.6344,3.6319,3.6208,3.5976,3.5458,3.4975,3.4504,3.4096,3.4308,3.4999,3.5379,3.5902,3.6625,3.6993,3.7369,3.7727,3.7739,3.7855,3.7994,3.7524,3.7149,3.6945,3.6366,3.5673,3.4827,3.3608,3.2046,3.0241,3.1384,3.21,3.2278,3.2338,3.2031,3.135,3.1317,3.1095,3.0489,2.9794,2.9075,2.8409,2.768,2.6875,2.5963,2.5234,2.434,2.3255,2.0756,0.0,0.0,0.0,0.0,0.0,0.0,0.0,0.0,0.0,1.9043,1.6677,0.0,2.0143,0.0,2.2009,2.3524,2.4597,2.5301,0.0,0.0,2.769,2.8342,3.063,3.0991,3.1547,3.2748,3.4405,3.5744,3.6493,3.7235,3.811,3.9173,3.7827,3.6763,3.7048,3.7557,3.8182,3.8937,3.9501,3.9931,4.0097,4.0144,3.9931,3.9381,3.9315,3.9235,3.907,3.9037,3.8897,3.8626,3.8566,3.8513,3.8345,3.8378,3.8332,3.8245,3.7206,3.6319,3.6811,3.6921,3.7051,4.115,4.092,4.154,4.0909,3.9503,3.9391,3.9365,3.9319,3.9274,3.9002,3.8628,3.8526,3.8239,3.7854,3.7946,3.8379,3.9041,3.871,3.8925,3.9607,3.9288,3.926,3.9536,3.9237,3.9242,3.9546,3.8984,3.8679,3.8644,3.8252,3.7858,3.7505,3.669,3.5552,3.4123,3.3686,3.3368,3.3178,3.3037,3.275,3.2187,3.1867,3.1304,3.0522,3.0102,2.9417,2.8442,2.7988,2.7448,2.6709,2.5963,2.5243,2.4514,2.2618,2.1426,0.0,0.0,0.0,0.0,0.0,0.0,0.0,0.0,0.0,0.0,0.0,2.2512,0.0,0.0,0.0,2.7837,2.8615,2.9582,3.0742,3.098,3.1736,3.3468,3.3769,3.4215,3.5157,3.6261,3.7268,3.8009,3.8738,3.96,4.0694,3.9785,3.9049,3.9114,3.9443,3.9772,4.0183,4.058,4.0859,4.0859,4.0859,4.068,4.0315,4.023,4.0216,4.023,4.0216,4.015,3.9865,3.9812,3.968,3.9381,3.9315,3.9315,3.9169,3.8466,3.7903,3.8189,3.824,3.8367,4.3089,4.2563,4.3097,4.295,4.2383,4.2417,4.2267,4.1957,4.1843,4.1863,4.1937,4.1886,4.1796,4.1599,4.1622,4.1925,4.2381,4.1729,4.1695,4.2149,4.1463,4.1252,4.1397,4.0742,4.0534,4.0694,4.0017,3.9679,3.9679,3.9563,3.9503,3.9467,3.8742,3.832,3.8219,3.5884,3.4322,3.3578,3.3481,3.3271,3.3028,3.2418,3.161,3.0698,3.0555,2.987,2.8608,2.8442,2.8111,2.7448,2.6733,2.6095,2.5541,2.4547,2.3744,0.0,2.1783,0.0,0.0,0.0,0.0,0.0,0.0,0.0,0.0,2.4697,2.5116,2.6557,2.868,3.0341,3.1273,3.2418,3.3105,3.3138,3.3801,3.4485,3.5114,3.5843,3.6572,3.7288,3.803,3.8758,3.9467,4.013,4.0793,4.1394,4.1461,4.1413,4.1579,4.1413,4.1262,4.1428,4.1494,4.156,4.1527,4.1527,4.1494,4.1428,4.1295,4.1428,4.1328,4.1328,4.121,4.0694,4.0528,4.0329,3.9666,3.9547,3.9514,3.9633,3.9678,3.9585,3.9287,3.9175,3.9315,4.3732,4.3674,4.434,4.4539,4.4457,4.5067,4.419,4.2309,4.1612,4.1611,4.227,4.2984,4.3278,4.3244,4.3348,4.3102,4.2622,4.2482,4.2155,4.163,4.1479,4.1652,4.2004,4.1883,4.2017,4.239,4.1884,4.164,4.164,4.0999,4.0669,4.0669,3.9905,3.9559,0.0,0.0,0.0,0.0,3.506,3.4633,3.3828,3.365,3.2885,3.1449,3.082,0.0,2.9241,2.8698,2.8343,2.8177,2.7481,0.0,0.0,0.0,0.0,0.0,0.0,0.0,0.0,0.0,0.0,0.0,2.6354,2.5872,2.6017,2.8467,2.9945,2.9741,3.1693,3.3038,3.3267,3.4537,3.5379,3.5425,3.6042,3.6526,3.6704,3.7321,3.8063,3.8805,3.9534,4.0216,4.0878,4.1143,4.1494,4.2156,4.2289,4.2553,4.3083,4.2189,4.1461,4.1461,4.1957,4.2274,4.2322,4.2289,4.209,4.1593,4.1428,4.1461,4.1494,4.1461,4.1428,4.1229,4.1196,4.1196,4.0978,4.0713,4.0561,4.0898,4.1295,4.1177,3.968,3.9315,3.9315,4.4425,0.0,4.5116,4.5385,0.0,4.604,4.5608,4.4448,4.3815,4.3933,4.4576,4.5058,4.5431,4.5668,4.576,4.5543,4.5139,4.4746,4.4128,4.3379,4.2986,4.2696,4.2537,4.2537,4.2681,4.2882,4.2671,4.2537,4.2501,4.2132,4.1926,4.1926,4.1171,4.0775,4.0775,4.019,3.8953,3.7099,3.6298,3.5574,3.4936,3.4365,3.3284,3.1658,0.0,0.0,0.0,0.0,0.0,0.0,0.0,0.0,0.0,0.0,0.0,2.7145,2.6526,2.6261,2.6625,2.6989,2.785,2.9317,3.0089,3.0056,2.8943,3.1228,3.2685,3.2685,3.4021,3.5048,3.5425,3.6108,3.6572,3.6593,3.7533,3.8162,3.8295,3.9156,3.9904,4.0249,4.0647,4.1177,4.1858,4.1957,4.2255,4.2903,4.305,4.3183,4.3466,4.2984,4.2473,4.2487,4.2785,4.305,4.3035,4.305,4.2951,4.2587,4.2487,4.2473,4.2487,4.2487,4.2388,4.2057,4.1924,4.1858,4.1494,4.1409,4.1442,4.1475,4.1825,4.1825,4.058,4.0315,4.0315,4.5493,4.5517,4.5994,4.6158,4.6172,4.6561,4.6732,4.6695,0.0,0.0,0.0,4.6968,4.7298,4.7689,4.7689,4.7616,4.7435,4.682,4.6069,4.5273,4.4621,4.3932,4.3326,4.3181,4.3109,4.3109,4.2973,4.2892,4.2892,4.2892,4.2892,4.2855,4.223,4.1895,4.184,4.0792,3.9914,3.9196,3.7486,3.6501,3.6187,3.508,3.3739,3.211,3.2011,3.136,3.0036,2.997,2.997,2.997,2.935,2.9029,2.9138,2.8906,2.9062,2.9728,2.9804,3.0059,3.0665,3.0952,3.1195,3.1449,3.3292,3.3822,3.2475,3.3624,3.4629,3.5247,3.5976,3.6704,3.7433,3.7632,3.7719,3.7851,3.8937,3.968,3.9733,4.0647,4.1361,4.156,4.1593,4.1891,4.2587,4.2704,4.2903,4.3433,4.3532,4.3664,4.3746,4.3646,4.3466,4.3466,4.3466,4.3565,4.3598,4.3565,4.3598,4.3499,4.3532,4.3598,4.3598,4.3598,4.3381,4.2818,4.2671,4.2454,4.199,4.2189,4.2289,4.1891,4.2123,4.2322,4.1924,4.1792,4.1692,4.7413,4.7349,4.7586,4.7575,4.7444,4.7627,4.7638,4.7461,4.6756,4.6483,4.6592,4.7268,4.7625,4.7689,4.7689,4.7327,4.6675,4.653,4.6069,0.0,4.52,4.5091,4.491,4.4268,4.3942,4.386,4.3254,4.2892,4.2892,4.2892,4.2892,4.2892,4.2783,4.2747,4.2665,4.1885,4.1378,4.1215,3.9002,3.7679,3.7341,3.6232,3.5112,3.3962,3.3628,3.3105,3.2276,3.2221,3.2243,3.221,3.1559,3.1427,3.2011,3.0897,3.0532,3.1217,3.1273,3.1317,3.1482,3.2619,3.3889,3.5102,3.6096,3.6274,3.55,3.6141,3.6671,3.6824,3.7466,3.8182,3.8904,3.9501,4.0064,4.06,4.0931,4.1096,4.1077,4.1295,4.1726,4.2289,4.2355,4.262,4.3234,4.3448,4.3466,4.3598,4.3797,4.3878,4.4324,4.3977,4.3631,4.3598,4.3598,4.3598,4.3598,4.3598,4.3598,4.3598,4.3598,4.3598,4.3598,4.3598,4.3532,4.3466,4.3367,4.3333,4.3216,4.3333,4.3267,4.3135,4.3234,4.3267,4.3102,4.315,4.2818,4.8837,4.9096,4.879,4.8587,4.8494,4.8084,4.7861,4.7783,4.7358,4.7145,4.7182,4.7544,4.7689,4.7689,4.7689,4.7508,4.7145,4.7145,4.6721,4.5961,4.5951,4.5707,4.5309,4.491,4.4739,4.4739,4.4367,4.3978,4.358,4.3544,4.3326,4.2928,4.2892,4.2892,4.2892,4.252,4.2375,4.2284,4.0204,3.8984,3.8712,3.7898,3.6916,3.5734,3.5239,3.4521,3.3606,3.34,3.3209,3.2971,3.2659,3.2539,3.2652,3.2431,3.2431,3.2796,3.3546,3.3977,3.401,3.4982,3.6042,3.7135,3.7864,3.8328,3.8407,3.8341,3.8274,3.8341,3.9288,4.007,4.0415,4.0746,4.1077,4.1361,4.1726,4.199,4.2057,4.2388,4.2752,4.305,4.3083,4.3249,4.358,4.3944,4.4191,4.4224,4.4489,4.492,4.5233,4.5019,4.4655,4.4257,4.3878,4.3631,4.3631,4.3598,4.3598,4.3598,4.3598,4.3598,4.3598,4.3631,4.3631,4.3598,4.3598,4.3598,4.3598,4.3598,4.3598,4.3598,4.3598,4.3598,4.3598,4.3598,4.3333,4.9836,5.031,4.9804,4.9549,4.9445,4.8785,4.8468,4.8437,4.8384,4.8197,4.7995,4.7782,4.7689,4.7689,4.7689,4.7689,4.7689,4.7689,4.7363,4.682,4.6794,4.6432,4.5852,4.5671,4.5562,4.5526,4.5381,4.4983,4.4413,4.4196,4.3679,4.3,4.2892,4.2892,4.2892,4.2892,4.2892,4.28,4.137,4.0431,4.0081,3.9385,3.848,3.7453,3.6838,3.6113,3.526,3.4966,3.469,3.439,3.4369,3.4228,3.4008,3.4508,3.4763,3.4793,3.5735,3.6406,3.6551,3.7269,3.802,3.8659,3.9355,4.0031,4.0495,4.0296,3.9931,3.9931,4.0699,4.1394,4.156,4.1626,4.1726,4.1891,4.2388,4.2738,4.2804,4.3267,4.3664,4.3779,4.3845,4.3911,4.4143,4.4589,4.4935,4.5035,4.5582,4.6029,4.6046,4.6146,4.598,4.5284,4.4489,4.411,4.4077,4.4275,4.4293,4.4143,4.4143,4.4143,4.4011,4.3878,4.3746,4.3698,4.3598,4.3598,4.3598,4.3598,4.3598,4.3598,4.3598,4.3598,4.3598,4.3598,4.3598,5.0467,5.0451,5.058,5.0564,5.0435,5.0222,5.008,5.0031,5.0117,4.9705,4.8956,4.8067,4.7735,4.7689,4.7699,4.7699,4.7699,4.7689,4.7652,4.758,4.758,4.7544,4.7327,4.6711,4.6385,4.6313,4.5707,4.5381,4.5164,4.4486,4.3725,4.3,4.2892,4.2928,4.2892,4.2892,4.2892,4.2892,4.2709,4.2171,4.125,4.0125,3.9341,3.8901,3.8442,3.8139,3.7933,3.799,3.7933,3.7933,3.783,3.7831,3.7729,3.7797,3.7726,3.735,3.7494,3.7681,3.8041,3.9011,3.9811,4.0185,4.0821,4.1252,4.1384,4.1853,4.1939,4.147,4.137,4.1759,4.2289,4.2388,4.2667,4.3275,4.3429,4.3499,4.3639,4.358,4.3845,4.4538,4.468,4.4836,4.5395,4.566,4.5729,4.5908,4.6376,4.6808,4.6841,4.7239,4.7338,4.6643,4.5748,4.5251,4.5417,4.5947,4.5733,4.5549,4.5565,4.5218,4.4787,4.4556,4.4423,4.411,4.3797,4.3845,4.3764,4.3631,4.3698,4.3911,4.3845,4.3646,4.3598,4.3598,4.3598,5.1674,5.1998,5.1652,5.1185,5.0721,5.0592,5.0519,5.0467,5.042,5.0169,4.9872,4.9455,4.878,4.7896,4.7824,4.7819,4.7819,4.772,4.7689,4.7689,4.7689,4.7689,4.7652,4.7399,4.7182,4.7182,4.6866,4.6468,4.5961,4.52,4.4403,4.3689,4.3616,4.3363,4.2964,4.2892,4.2892,4.2892,4.2892,4.2673,4.2289,4.1704,4.1177,4.0754,4.0229,3.9769,3.9471,3.9229,3.9017,3.8834,3.8812,3.8703,3.8493,3.8883,3.902,3.8821,3.9542,4.0293,4.0865,4.138,4.1664,4.18,4.2436,4.2814,4.2848,4.3509,4.3779,4.3488,4.2984,4.2851,4.3131,4.3135,4.3551,4.4386,4.4404,4.4615,4.5621,4.5484,4.5474,4.5738,4.601,4.6121,4.6285,4.6611,4.6997,4.7352,4.7612,4.7568,4.7586,4.7835,4.7835,4.757,4.7106,4.651,4.6079,4.5914,4.6013,4.5881,4.5797,4.5598,4.5499,4.5366,4.5218,4.492,4.4821,4.4821,4.4986,4.492,4.4887,4.4787,4.439,4.4158,4.3698,4.3598,4.3598,5.2664,5.3067,5.2564,5.2013,5.1453,5.1344,5.1292,5.1271,5.1182,5.103,5.079,5.0822,5.0101,4.8829,4.8384,4.8229,4.8172,4.785,4.7689,4.7689,4.7689,4.7689,4.7689,4.7689,4.7689,4.7689,4.7652,4.7254,4.654,4.5924,4.5236,4.4522,4.4232,4.3833,4.3254,4.3036,4.2892,4.2892,4.2892,4.2892,4.2873,4.2785,4.2494,4.2077,4.1604,4.1175,4.0813,4.0474,4.0176,3.9947,4.0113,4.0111,3.9896,4.0548,4.0885,4.0781,4.1617,4.238,4.2906,4.3197,4.33,4.3305,4.3846,4.4231,4.4395,4.4917,4.5302,4.5282,4.4959,4.4687,4.4278,4.4459,4.4984,4.5761,4.5585,4.5953,4.6939,4.6903,4.6777,4.6999,4.7296,4.7557,4.7475,4.7861,4.832,4.8698,4.8606,4.8388,4.8388,4.8402,4.842,4.8388,4.837,4.7826,4.6704,4.6543,4.6411,4.6411,4.651,4.6444,4.6179,4.6079,4.5881,4.5549,4.5764,4.5764,4.5516,4.5664,4.5812,4.5697,4.5366,4.4854,4.4507,4.4275,4.4242,5.3177,5.3177,5.3141,5.3067,5.3067,5.2983,5.2967,5.2746,5.293,5.2553,5.181,5.1878,5.1442,5.0605,4.9586,4.9039,4.892,4.815,4.7761,4.7772,4.7725,4.7689,4.7689,4.7689,4.7689,4.7689,4.7689,4.7327,4.6566,4.6468,4.6033,4.5273,4.4594,4.416,4.3942,4.3399,4.2928,4.3,4.3,4.2928,4.2928,4.2918,4.283,4.2606,4.2363,4.2251,4.2164,4.2092,4.1994,4.1973,4.2612,4.2949,4.2946,4.3536,4.3788,4.3652,4.3617,4.3533,4.3515,4.4204,4.46,4.4483,4.4897,4.5269,4.5494,4.603,4.6393,4.6443,4.7051,4.7024,4.6315,4.6428,4.6846,4.7102,4.7093,4.7127,4.7329,4.7705,4.7743,4.8123,4.8409,4.873,4.9311,4.9473,4.9458,4.9517,4.9417,4.9267,4.9237,4.9267,4.9252,4.9252,4.9207,4.899,4.8126,4.7778,4.7814,4.778,4.7674,4.7666,4.7205,4.6775,4.6474,4.624,4.6398,4.6313,4.5959,4.5879,4.5994,4.5994,4.5929,4.5582,4.5218,4.5549,4.545,5.3214,5.3214,5.3214,5.3214,5.3214,5.3214,5.3156,5.3124,5.3193,5.3009,5.2758,5.2763,5.259,5.2286,5.1192,5.0419,4.9877,4.8897,4.8475,4.8413,4.7942,4.7689,4.7689,4.7689,4.7689,4.7689,4.7689,4.7544,4.729,4.7254,4.6866,4.6178,4.577,4.5381,4.491,4.4584,4.4196,4.3725,4.3689,4.3435,4.3036,4.3399,4.365,4.3572,4.3434,4.3294,4.3151,4.3564,4.3796,4.3722,4.4007,4.4092,4.4131,4.4355,4.4716,4.4949,4.4951,4.5082,4.541,4.5716,4.5927,4.5855,4.6005,4.6389,4.686,4.7199,4.7525,4.8064,4.8766,4.896,4.8627,4.8043,4.7859,4.848,4.8418,4.8681,4.9484,4.9658,4.9583,4.975,4.9813,5.0063,5.039,5.0425,5.0244,5.0201,4.993,4.9756,4.9664,4.9664,4.9811,4.9698,4.9649,4.9561,4.9293,4.8975,4.8886,4.8886,4.8849,4.8781,4.8465,4.8351,4.8108,4.7977,4.7811,4.7597,4.7471,4.7254,4.7173,4.6606,4.6542,4.639,4.5896,4.616,4.6044,5.3261,5.3318,5.3241,5.3214,5.3214,5.3214,5.3214,5.3214,5.3214,5.3214,5.3214,5.3214,5.3214,5.3062,5.232,5.1701,5.1049,4.9898,4.9293,4.922,4.8449,4.8087,4.8051,4.7833,4.7689,4.7689,4.7689,4.7689,4.7689,4.7689,4.7409,4.6939,4.6639,4.624,4.5707,4.5454,4.5019,4.4558,4.4486,4.4196,4.3797,4.4222,4.4476,4.4548,4.4696,4.4576,4.4176,4.4559,4.4771,4.4696,4.4867,4.5095,4.5356,4.5436,4.5686,4.606,4.6109,4.6289,4.6683,4.6778,4.6849,4.7133,4.7181,4.7477,4.8246,4.8542,4.8956,4.9488,5.0175,5.0602,5.0406,4.9644,4.9301,4.9925,4.9816,5.0066,5.1101,5.1004,5.0897,5.0835,5.0835,5.1017,5.1272,5.1052,5.1038,5.12,5.092,5.0725,5.094,5.101,5.1024,5.1059,5.1206,5.1255,5.11,5.0951,4.9968,4.9777,4.959,4.9634,4.9664,4.9649,4.9649,4.962,4.9477,4.9222,4.8997,4.8733,4.8166,4.7482,4.7415,4.7361,4.6983,4.6689,4.672,5.341,5.3604,5.3375,5.3251,5.3251,5.3293,5.323,5.323,5.323,5.323,5.3225,5.3214,5.3214,5.3124,5.2806,5.2733,5.2324,5.0947,5.0184,5.0028,4.9293,4.892,4.8837,4.8159,4.7761,4.7689,4.7689,4.7689,4.7689,4.7689,4.7652,4.7508,4.6928,4.6613,4.6504,4.5888,4.5417,4.5309,4.5309,4.5273,4.5273,4.5273,4.5309,4.5381,4.6023,4.6034,4.5281,4.5074,4.5029,4.5033,4.5482,4.6177,4.6746,4.6943,4.7118,4.7049,4.7131,4.7143,4.7145,4.7103,4.7437,4.7923,4.815,4.8496,4.9317,4.9924,5.0303,5.0552,5.11,5.1576,5.1576,5.1393,5.1256,5.1328,5.1056,5.1166,5.1302,5.1428,5.1479,5.1454,5.1499,5.1515,5.1528,5.1689,5.1947,5.2382,5.248,5.2514,5.2946,5.3052,5.3417,5.3395,5.3107,5.2868,5.2998,5.2932,5.1625,5.0578,5.0321,5.023,5.0286,5.03,5.039,5.0349,4.9867,4.9625,4.9131,4.8889,4.8545,4.8057,4.8187,4.8203,4.7858,4.7595,4.7778,5.3851,5.3739,5.3879,5.3767,5.3612,5.3851,5.3833,5.3563,5.3543,5.342,5.322,5.3214,5.3214,5.3146,5.3017,5.2872,5.2747,5.2104,5.152,5.0873,5.009,4.9727,4.9582,4.8884,4.8232,4.7772,4.7689,4.7689,4.7689,4.7689,4.7689,4.7616,4.7435,4.7327,4.729,4.7073,4.6711,4.6178,4.6142,4.5888,4.5417,4.5852,4.6095,4.6214,4.6902,4.7129,4.6807,4.6622,4.647,4.6291,4.652,4.6793,4.7098,4.7198,4.7256,4.7237,4.7225,4.7145,4.7149,4.7532,4.7924,4.8269,4.8698,4.9329,5.0031,5.0376,5.078,5.1173,5.1565,5.1708,5.1708,5.1708,5.1706,5.1607,5.1594,5.1605,5.1711,5.1678,5.1609,5.1716,5.2121,5.2442,5.2585,5.2786,5.3187,5.3472,5.3553,5.3704,5.386,5.414,5.4076,5.4076,5.4142,5.432,5.4272,5.4164,5.3371,5.2378,5.1873,5.1467,5.1388,5.133,5.1348,5.0994,5.0495,4.9974,4.9511,4.9131,4.8886,4.8624,4.8588,4.8509,4.8418,4.8497,4.8686,5.4854,5.5046,5.5171,5.5084,5.4885,5.5119,5.4881,5.4326,5.4156,5.3763,5.3309,5.3146,5.3124,5.3092,5.3006,5.2872,5.2783,5.2638,5.227,5.1706,5.0934,5.0535,5.0427,4.9727,4.892,4.8268,4.8159,4.7978,4.7689,4.7689,4.7689,4.7689,4.7689,4.7689,4.7689,4.7689,4.7399,4.7011,4.6928,4.6711,4.6395,4.6685,4.6964,4.7001,4.7393,4.7557,4.7482,4.7331,4.7209,4.7109,4.7064,4.7133,4.7245,4.7232,4.7256,4.7272,4.7465,4.7563,4.7532,4.8187,4.8758,4.9079,4.9483,5.009,5.0744,5.0959,5.1208,5.1613,5.1708,5.1828,5.2077,5.2149,5.2256,5.2564,5.2302,5.2315,5.2457,5.2552,5.2552,5.273,5.3028,5.3255,5.3457,5.3635,5.4157,5.4335,5.4482,5.4736,5.487,5.5141,5.5098,5.515,5.5401,5.5463,5.5384,5.5207,5.5006,5.434,5.3688,5.3289,5.3013,5.3001,5.2977,5.2067,5.1452,5.0781,5.0261,4.995,4.9664,4.9353,4.9279,4.9383,4.9546,4.9428,4.9531,5.6266,5.7239,5.6987,5.6747,5.6712,5.6735,5.6264,5.5472,5.506,5.4425,5.367,5.3444,5.3189,5.3094,5.308,5.294,5.275,5.2593,5.2478,5.2238,5.1695,5.1332,5.1079,5.0463,4.9727,4.9065,4.8956,4.863,4.8123,4.7942,4.7761,4.787,4.7797,4.7689,4.7689,4.7689,4.7652,4.758,4.7616,4.758,4.7554,4.7616,4.7652,4.7616,4.7568,4.7551,4.7497,4.7334,4.7245,4.7254,4.7212,4.7234,4.7254,4.7234,4.7333,4.7393,4.7966,4.8256,4.8424,4.896,4.9626,5.0174,5.0459,5.0852,5.1471,5.153,5.1637,5.1863,5.1886,5.2149,5.2756,5.2934,5.3278,5.38,5.335,5.3278,5.3823,5.3859,5.3693,5.3765,5.393,5.4037,5.4086,5.417,5.4683,5.5067,5.5338,5.5525,5.5851,5.5966,5.644,5.6299,5.5821,5.5728,5.5382,5.5263,5.5048,5.4855,5.4445,5.4288,5.4144,5.418,5.4132,5.3241,5.2484,5.1727,5.1281,5.1123,5.0948,5.0841,5.0773,5.0758,5.0759,5.0766,5.0695,5.727,5.7309,5.7528,5.7415,5.7261,5.7483,5.7309,5.6752,5.6245,5.5683,5.5231,5.4825,5.4225,5.3787,5.367,5.3333,5.2817,5.264,5.2561,5.2455,5.2299,5.1839,5.1405,5.1115,5.0572,4.9872,4.9764,4.9655,4.9449,4.8847,4.8594,4.8558,4.8087,4.7772,4.7689,4.7772,4.7689,4.7689,4.7689,4.7689,4.7689,4.7689,4.7689,4.7689,4.7693,4.7629,4.7529,4.7352,4.7223,4.7086,4.7209,4.7278,4.7389,4.7738,4.8038,4.8134,4.8626,4.9032,4.9174,4.9745,5.0281,5.0518,5.1042,5.1458,5.1637,5.1708,5.2006,5.2399,5.2613,5.2898,5.3528,5.3742,5.4121,5.4621,5.4228,5.3872,5.405,5.3966,5.3872,5.3635,5.4349,5.467,5.4852,5.5227,5.5794,5.6022,5.5864,5.561,5.5923,5.5605,5.5622,5.5359,5.5072,5.5206,5.5207,5.5159,5.5075,5.5003,5.4834,5.4749,5.4701,5.4773,5.4689,5.4301,5.3864,5.317,5.3007,5.2854,5.2653,5.2308,5.2351,5.2354,5.238,5.2383,5.2228,5.8477,5.8614,5.8856,5.8835,5.8622,5.8856,5.8542,5.7884,5.7232,5.6563,5.5986,5.5345,5.4865,5.4464,5.4416,5.3956,5.3172,5.309,5.2875,5.2491,5.248,5.2226,5.1864,5.1803,5.1405,5.068,5.0608,5.039,5.0064,4.9619,4.9438,4.9365,4.8967,4.8713,4.8749,4.834,4.8196,4.8159,4.7906,4.7689,4.7689,4.7689,4.7689,4.7787,4.7936,4.8128,4.831,4.8371,4.8196,4.7785,4.77,4.7878,4.8261,4.8563,4.879,4.885,4.946,4.9877,4.9972,5.0603,5.1008,5.109,5.1544,5.1878,5.2161,5.222,5.2541,5.3242,5.3437,5.3869,5.4463,5.4856,5.5259,5.5575,5.5263,5.5013,5.5027,5.5049,5.4911,5.4892,5.5013,5.5432,5.5544,5.603,5.6321,5.6433,5.6057,5.5834,5.5692,5.5059,5.47,5.4761,5.4773,5.4991,5.5075,5.5027,5.5027,5.4967,5.5075,5.5051,5.5233,5.5305,5.5353,5.5243,5.4995,5.4709,5.4363,5.4093,5.3943,5.3749,5.3842,5.3682,5.3535,5.3446,5.3367,5.9682,6.0377,6.0377,6.0377,6.0293,6.0377,5.976,5.8911,5.8141,5.7291,5.6434,5.5651,5.5375,5.5111,5.5062,5.4663,5.3937,5.3843,5.3336,5.2951,5.2697,5.2589,5.2371,5.2335,5.2021,5.1477,5.1441,5.1079,5.068,5.039,5.0245,5.0137,5.0064,5.0028,4.9738,4.9329,4.9065,4.892,4.8496,4.8242,4.8242,4.8242,4.8279,4.834,4.8638,4.9037,4.9356,4.9583,4.9449,4.8794,4.8525,4.8801,4.948,4.9494,4.9591,4.9746,5.0271,5.07,5.0758,5.1343,5.1869,5.1878,5.1963,5.231,5.2855,5.3093,5.3365,5.4138,5.4314,5.4734,5.5352,5.6094,5.6268,5.6308,5.6317,5.6374,5.6424,5.6424,5.6465,5.6564,5.5919,5.6083,5.6306,5.6335,5.6047,5.6672,5.6307,5.5938,5.5638,5.5231,5.4954,5.487,5.4882,5.4894,5.4931,5.4907,5.4943,5.4943,5.5196,5.5341,5.5667,5.5812,5.5993,5.5883,5.5409,5.518,5.5097,5.4965,5.4977,5.4916,5.4835,5.4433,5.4098,5.4045,5.3957,6.0262,6.0377,6.0377,6.0377,6.0377,6.0377,6.0237,5.9885,5.9209,5.8521,5.805,5.7441,5.6611,5.5825,5.5825,5.5341,5.4773,5.4628,5.4218,5.353,5.3458,5.3059,5.2661,5.2589,5.2408,5.2202,5.2238,5.2118,5.1828,5.1296,5.1042,5.097,5.0535,5.0137,5.0137,5.0064,4.9847,4.9811,4.9593,4.9449,4.9412,4.9449,4.9449,4.9521,4.9705,4.9762,4.9782,4.9786,4.9932,5.0101,4.9756,4.9483,4.9686,5.0044,5.0318,5.0497,5.0997,5.1474,5.1618,5.1772,5.2081,5.2716,5.2811,5.3082,5.3887,5.3995,5.434,5.4935,5.5141,5.5512,5.6054,5.6308,5.6541,5.6617,5.6595,5.6635,5.668,5.6626,5.66,5.6631,5.6567,5.6597,5.6881,5.674,5.6657,5.6814,5.6481,5.604,5.5666,5.5317,5.5075,5.4907,5.4907,5.4907,5.4907,5.4907,5.4907,5.4907,5.516,5.5341,5.5667,5.574,5.5703,5.5703,5.5655,5.5522,5.5377,5.5884,5.5895,5.5836,5.5643,5.516,5.4725,5.4653,5.4508,6.0377,6.0377,6.0377,6.0377,6.0377,6.0377,6.0306,6.0137,5.9631,5.9196,5.885,5.8337,5.7689,5.7092,5.7043,5.6701,5.5958,5.5482,5.5074,5.4606,5.45,5.4178,5.3651,5.3204,5.2915,5.2589,5.248,5.248,5.2371,5.2118,5.1876,5.1876,5.1368,5.1332,5.1115,5.0861,5.068,5.0535,5.0282,5.0101,5.0101,5.0101,5.0354,5.056,5.0624,5.0654,5.1018,5.0902,5.1035,5.1144,5.0892,5.0605,5.0569,5.0951,5.1178,5.1272,5.1548,5.2097,5.2289,5.2516,5.2815,5.3603,5.3713,5.4181,5.4661,5.4912,5.5307,5.5858,5.6149,5.6342,5.6621,5.6693,5.6827,5.711,5.6886,5.6916,5.7261,5.7051,5.6746,5.6718,5.6495,5.6644,5.6794,5.6855,5.6917,5.6893,5.6436,5.6017,5.58,5.545,5.5075,5.4907,5.4907,5.4907,5.4907,5.4907,5.4907,5.4943,5.5039,5.5124,5.5305,5.5233,5.5124,5.5341,5.5631,5.5486,5.5486,5.6102,5.6319,5.5703,5.5341,5.5341,5.5305,5.5124,5.4979,6.0377,6.0377,6.0377,6.0377,6.0377,6.0377,6.0299,6.0084,5.9752,5.9423,5.9131,5.8689,5.8381,5.83,5.8219,5.7882,5.7339,5.6726,5.6244,5.5732,5.5662,5.5302,5.4793,5.4227,5.3685,5.2902,5.26,5.2516,5.248,5.248,5.2335,5.2444,5.2444,5.2226,5.2226,5.1864,5.1477,5.1405,5.1006,5.0716,5.068,5.068,5.097,5.131,5.1434,5.157,5.1909,5.1958,5.1958,5.1968,5.1919,5.1919,5.1968,5.1993,5.2017,5.1882,5.2064,5.2531,5.2924,5.3272,5.369,5.4417,5.4642,5.5116,5.5628,5.5844,5.6132,5.6469,5.6796,5.6835,5.6946,5.6881,5.7179,5.749,5.7175,5.7277,5.7644,5.7303,5.7041,5.6948,5.6757,5.6772,5.6823,5.6873,5.6922,5.6899,5.6428,5.6114,5.5933,5.5824,5.5631,5.5595,5.5776,5.5812,5.5812,5.574,5.5631,5.5522,5.5438,5.5486,5.5522,5.574,5.5848,5.5558,5.5631,5.5522,5.5631,5.6066,5.5957,5.5341,5.5305,5.5522,5.5558,5.5522,5.5414,6.0377,6.0377,6.0377,6.0377,6.0377,6.0377,6.0359,6.025,6.0021,5.9685,5.9344,5.9112,5.8848,5.8628,5.8545,5.8433,5.8273,5.7986,5.7623,5.7011,5.6858,5.647,5.5617,5.5233,5.4851,5.4217,5.3385,5.2733,5.2661,5.248,5.2733,5.2589,5.2552,5.2589,5.248,5.2335,5.219,5.2118,5.19,5.1839,5.1839,5.1864,5.19,5.2154,5.2096,5.2194,5.2209,5.2186,5.2138,5.2222,5.2017,5.2077,5.2282,5.2221,5.205,5.206,5.2575,5.3116,5.3466,5.3757,5.4456,5.5181,5.5472,5.5808,5.6426,5.6706,5.6742,5.6825,5.6917,5.6878,5.6816,5.6881,5.6966,5.71,5.7139,5.7118,5.7366,5.7306,5.7123,5.7089,5.6993,5.6897,5.6922,5.6971,5.7043,5.708,5.6862,5.6717,5.6645,5.6681,5.6717,5.6754,5.6911,5.6935,5.6935,5.6826,5.6717,5.6609,5.6536,5.6536,5.6609,5.679,5.6754,5.6247,5.5921,5.5776,5.5921,5.6066,5.5921,5.5486,5.5595,5.5776,5.5703,5.5631,5.5812,6.0377,6.0377,6.0377,6.0377,6.0377,6.0377,6.0366,6.0279,6.0122,5.9896,5.9681,5.9499,5.9345,5.9159,5.9121,5.9121,5.9112,5.9121,5.8744,5.8261,5.8117,5.7677,5.6638,5.6289,5.5856,5.5281,5.4327,5.3711,5.3748,5.3784,5.3494,5.3204,5.3132,5.2915,5.2589,5.248,5.2552,5.2552,5.2552,5.2552,5.2516,5.2516,5.2516,5.2505,5.2494,5.2387,5.2387,5.2269,5.245,5.2798,5.2834,5.299,5.3194,5.3253,5.2985,5.2792,5.3232,5.3941,5.4378,5.4779,5.5323,5.6212,5.633,5.6562,5.694,5.7051,5.7087,5.7074,5.7098,5.6997,5.701,5.7021,5.724,5.7544,5.7412,5.7414,5.7597,5.7442,5.7369,5.7333,5.7248,5.7176,5.7103,5.7152,5.7188,5.7188,5.7188,5.7188,5.7188,5.7188,5.7188,5.7188,5.7152,5.7188,5.7188,5.7188,5.7188,5.7188,5.7188,5.7188,5.7188,5.7152,5.6971,5.6645,5.6355,5.6102,5.5595,5.5486,5.5558,5.574,5.5848,5.5921,5.5812,5.5812,5.6066,6.0377,6.0377,6.0377,6.0377,6.0377,6.0377,6.038,6.0308,6.0189,6.0076,5.9942,5.9836,5.9744,5.9676,5.965,5.9613,5.9659,5.9552,5.9279,5.9131,5.8999,5.8632,5.7936,5.737,5.6772,5.62,5.574,5.5196,5.4725,5.4689,5.4472,5.411,5.3929,5.3675,5.3204,5.3241,5.2987,5.2987,5.2987,5.2951,5.2987,5.2987,5.2987,5.2987,5.2881,5.2965,5.3133,5.3062,5.3255,5.3628,5.3797,5.3977,5.4467,5.4633,5.4405,5.3997,5.4253,5.4876,5.5361,5.5767,5.6093,5.6842,5.7063,5.7138,5.7176,5.7163,5.7176,5.7188,5.7176,5.7163,5.7187,5.7357,5.7719,5.8081,5.8009,5.7876,5.8275,5.8311,5.8058,5.7913,5.7659,5.7478,5.7406,5.7188,5.7188,5.7188,5.7188,5.7188,5.7188,5.7188,5.7188,5.7188,5.7188,5.7188,5.7188,5.7188,5.7188,5.7188,5.7188,5.7188,5.7188,5.7188,5.7043,5.6971,5.6717,5.6355,5.5631,5.5341,5.5921,5.6247,5.6174,5.6174,5.6319,5.6464,5.6717,6.0377,6.0377,6.0377,6.0377,6.0377,6.0377,6.0415,6.0387,6.0301,6.0189,6.0076,6.0013,5.9926,5.9853,5.9844,5.9853,5.977,5.9496,5.9381,5.9354,5.9187,5.8788,5.8293,5.8274,5.7549,5.6999,5.6826,5.6102,5.545,5.516,5.4943,5.4786,5.4725,5.4605,5.4315,5.4255,5.4605,5.4581,5.4544,5.4508,5.4472,5.446,5.4436,5.446,5.4448,5.4363,5.4315,5.4195,5.4387,5.4641,5.4604,5.4676,5.4894,5.5398,5.5564,5.5489,5.5446,5.5463,5.5896,5.6214,5.6564,5.7012,5.71,5.7087,5.715,5.7188,5.7188,5.7188,5.7224,5.7406,5.7587,5.7913,5.8239,5.8601,5.8818,5.8999,5.9289,5.8999,5.8782,5.8818,5.8673,5.8094,5.7732,5.7442,5.7188,5.7188,5.7224,5.7297,5.7442,5.7623,5.7695,5.7804,5.7876,5.7876,5.7913,5.7804,5.7695,5.755,5.755,5.755,5.7695,5.7804,5.7406,5.7261,5.708,5.6935,5.65,5.6464,5.679,5.679,5.6681,5.6826,5.7043,5.7188,5.7188,6.0377,6.0377,6.0377,6.0377,6.0377,6.0377,6.0377,6.0363,6.033,6.0242,6.0129,6.0007,5.9966,5.991,5.9893,5.9893,5.9844,5.9613,5.9463,5.9354,5.915,5.8757,5.8216,5.8057,5.776,5.7375,5.7152,5.6935,5.6283,5.6102,5.6029,5.5558,5.5486,5.5233,5.5112,5.4943,5.487,5.487,5.487,5.4907,5.4907,5.4907,5.4943,5.4943,5.4943,5.4979,5.4955,5.487,5.5063,5.5365,5.5461,5.569,5.6101,5.6387,5.6505,5.6568,5.6338,5.6335,5.6536,5.6711,5.6936,5.71,5.7138,5.715,5.7188,5.7261,5.7514,5.7876,5.7876,5.8058,5.842,5.8854,5.8999,5.9253,5.9542,5.9638,5.9783,5.9602,5.9421,5.9566,5.9602,5.9144,5.8746,5.8709,5.8528,5.8347,5.842,5.8492,5.8637,5.8818,5.8818,5.8746,5.8782,5.8782,5.8854,5.8854,5.8818,5.8709,5.8746,5.8709,5.8709,5.8601,5.8202,5.7949,5.7913,5.7695,5.7406,5.7152,5.7043,5.708,5.7188,5.7188,5.7188,5.7188,5.7188,6.0377,6.0377,6.0377,6.0377,6.0377,6.0377,6.0377,6.037,6.0352,6.0279,6.0152,6.006,5.9982,5.9934,5.991,5.9893,5.9877,5.9727,5.9534,5.9308,5.9007,5.8597,5.8216,5.7969,5.7678,5.7188,5.7188,5.708,5.7116,5.7043,5.6754,5.6295,5.6319,5.6066,5.5667,5.5631,5.5703,5.5667,5.5667,5.5631,5.5595,5.5595,5.5595,5.5558,5.5486,5.5486,5.5486,5.551,5.5872,5.6138,5.6283,5.6524,5.6922,5.6968,5.6991,5.7017,5.6876,5.6838,5.6902,5.701,5.7074,5.721,5.7514,5.7683,5.7949,5.7804,5.7949,5.8673,5.8709,5.9035,5.9434,5.9687,5.9891,6.0,6.0194,6.0145,6.0181,6.0326,6.0471,6.0652,6.0688,6.0507,6.0254,6.0217,6.0,5.9638,5.9602,5.9638,5.9674,5.9724,5.9542,5.9398,5.9348,5.9312,5.9398,5.9506,5.9602,5.9747,5.9747,5.9602,5.947,5.9325,5.9072,5.8891,5.8746,5.8601,5.8383,5.7768,5.7188,5.7188,5.7188,5.7188,5.7188,5.7224,5.7261,6.0377,6.0377,6.0377,6.0377,6.0377,6.0377,6.0377,6.0377,6.0408,6.0352,6.0257,6.0099,6.0021,5.999,5.9934,5.9902,5.9877,5.9443,5.9399,5.928,5.8967,5.854,5.8172,5.7889,5.763,5.7264,5.7188,5.7188,5.7188,5.7188,5.7152,5.7128,5.6899,5.7007,5.6862,5.6645,5.6681,5.6681,5.6681,5.6754,5.679,5.6826,5.6826,5.6862,5.6935,5.7007,5.702,5.6826,5.679,5.6971,5.6935,5.6935,5.7152,5.7163,5.7163,5.715,5.7331,5.7293,5.7342,5.7291,5.7195,5.7404,5.7876,5.8528,5.8927,5.9276,5.947,5.947,5.9529,5.9638,5.9928,6.0181,6.0652,6.0797,6.0978,6.1159,6.1267,6.1376,6.1557,6.1774,6.1666,6.134,6.1267,6.1123,6.0869,6.0471,6.0326,6.0362,6.0181,6.0145,6.0,5.9855,5.9783,5.9747,5.9724,5.9891,6.0254,6.0326,6.0326,6.0109,5.9868,5.9796,6.0036,5.9674,5.9542,5.947,5.9289,5.8673,5.8058,5.7442,5.7261,5.7623,5.7768,5.784,5.7732,6.0377,6.0377,6.0377,6.0377,6.0377,6.0377,6.0377,6.0377,6.0377,6.0373,6.0279,6.0137,6.006,6.0013,5.999,5.9942,5.9877,5.9702,5.9516,5.9159,5.8781,5.8343,5.8049,5.769,5.7375,5.7262,5.7224,5.7188,5.7188,5.7369,5.7224,5.7188,5.7333,5.7188,5.7188,5.7188,5.7188,5.7188,5.7188,5.7188,5.7188,5.7188,5.7188,5.7188,5.7188,5.7188,5.7152,5.7188,5.7188,5.7188,5.7188,5.7224,5.7261,5.7261,5.7297,5.7406,5.7695,5.7913,5.7949,5.7934,5.8079,5.8634,5.8986,5.9312,5.9724,5.9651,5.9928,6.0109,6.0326,6.0435,6.1086,6.134,6.1557,6.163,6.1738,6.1955,6.2028,6.2028,6.1992,6.1919,6.1955,6.1847,6.1847,6.1883,6.1593,6.1267,6.1159,6.1014,6.0869,6.0797,6.0688,6.0652,6.0652,6.0724,6.0724,6.0869,6.1014,6.0942,6.0905,6.0797,6.0701,6.1086,6.1195,6.0724,6.0254,6.0145,5.9905,5.947,5.8999,5.8492,5.8347,5.842,5.8492,5.8492,5.8383,6.0377,6.0377,6.0377,6.0377,6.0377,6.0377,6.0377,6.0377,6.0377,6.0387,6.0323,6.0204,6.0122,6.0022,6.0013,5.9966,5.9902,5.9786,5.9534,5.9169,5.872,5.8245,5.7916,5.7765,5.771,5.7587,5.7876,5.8021,5.8094,5.7949,5.8058,5.8094,5.7876,5.7804,5.7188,5.7188,5.7188,5.7188,5.7188,5.7188,5.7188,5.7188,5.7188,5.7188,5.7188,5.7188,5.7188,5.7188,5.7188,5.7188,5.7224,5.7333,5.7478,5.7587,5.7695,5.8021,5.8347,5.8733,5.8733,5.8805,5.9131,5.971,5.9891,6.0072,6.0217,6.0303,6.0797,6.105,6.1195,6.1412,6.2028,6.1919,6.1883,6.1847,6.1847,6.2028,6.2028,6.2028,6.2028,6.1992,6.2028,6.2028,6.2064,6.2064,6.2028,6.1738,6.163,6.1557,6.1557,6.1557,6.163,6.163,6.1666,6.1774,6.1955,6.1702,6.1485,6.1521,6.1521,6.1666,6.1738,6.2028,6.1955,6.1448,6.105,6.0833,6.0688,6.0593,6.0158,5.9615,5.9434,5.9203,5.9095,5.9108,5.924,6.0377,6.0377,6.0377,6.0377,6.0377,6.0377,6.0377,6.0377,6.0377,6.0377,6.0394,6.0323,6.0242,6.0129,6.0136,6.0217,6.0191,6.0142,5.9949,5.9591,5.9245,5.85,5.8294,5.8287,5.8383,5.8565,5.8818,5.9144,5.9325,5.9144,5.924,5.9276,5.9022,5.8637,5.7369,5.7261,5.7224,5.7261,5.7369,5.7442,5.7514,5.755,5.7587,5.7587,5.7623,5.7659,5.7695,5.7695,5.7695,5.7695,5.7623,5.7876,5.8311,5.8347,5.8637,5.9253,5.9434,5.9579,5.9602,5.9602,6.0072,6.0652,6.0797,6.0978,6.163,6.1811,6.1666,6.1666,6.1811,6.1847,6.2028,6.2064,6.2136,6.2245,6.2281,6.2476,6.2549,6.2571,6.268,6.2766,6.2354,6.2064,6.21,6.2136,6.2245,6.2173,6.2028,6.2028,6.2064,6.2028,6.2028,6.2028,6.2028,6.2028,6.2028,6.2028,6.1955,6.2028,6.2028,6.2028,6.2028,6.2028,6.1955,6.1883,6.1702,6.1412,6.163,6.1883,6.1195,6.052,6.0122,5.9855,5.9747,5.9819,6.0109,6.0377,6.0377,6.0377,6.0377,6.0377,6.0377,6.0377,6.0377,6.0377,6.0377,6.0377,6.038,6.0323,6.0357,6.0715,6.0857,6.0869,6.1448,6.1327,6.0998,6.0333,6.0157,5.9776,5.9283,5.923,5.9253,5.9566,5.971,5.9529,5.9783,5.9674,5.9602,5.9783,5.9312,5.8927,5.8782,5.8818,5.8818,5.8818,5.8805,5.8782,5.8746,5.8709,5.866,5.8673,5.8637,5.8637,5.8565,5.8565,5.8601,5.8565,5.8818,5.9144,5.918,5.9361,5.9783,6.0,6.0688,6.0978,6.1231,6.1304,6.1485,6.1557,6.1666,6.1992,6.2028,6.1992,6.21,6.2209,6.2173,6.2028,6.2585,6.2838,6.3019,6.32,6.3599,6.378,6.3744,6.378,6.3816,6.3599,6.3454,6.3382,6.3128,6.3056,6.2911,6.2802,6.239,6.2281,6.21,6.2028,6.2028,6.2028,6.2028,6.2064,6.2499,6.2499,6.2426,6.2245,6.2028,6.2028,6.2209,6.21,6.21,6.2064,6.2028,6.2028,6.1992,6.1811,6.1376,6.0942,6.0833,6.0905,6.105,6.134,6.0377,6.0377,6.0377,6.0377,6.0377,6.0377,6.0377,6.0377,6.0415,6.053,6.079,6.0828,6.1015,6.1217,6.1452,6.1557,6.1523,6.1729,6.1693,6.1509,6.1007,6.0455,6.0152,6.0231,6.0066,6.0072,6.0326,6.0507,6.0579,6.0471,6.0543,6.0579,6.0398,6.0543,6.029,6.0013,5.9457,5.9434,5.9384,5.9421,5.9457,5.9493,5.9493,5.9493,5.9493,5.9529,5.9566,5.9602,5.9638,5.9638,5.9674,5.9783,5.9891,6.0036,6.0145,6.0507,6.0869,6.1471,6.1774,6.1883,6.1847,6.1919,6.2028,6.2028,6.21,6.2331,6.244,6.2512,6.2607,6.2752,6.2911,6.349,6.3613,6.3794,6.4011,6.4396,6.4432,6.4396,6.4396,6.4482,6.4555,6.4504,6.4504,6.4287,6.4033,6.378,6.3526,6.3164,6.2788,6.2643,6.2607,6.2607,6.2693,6.2838,6.3092,6.3418,6.3309,6.2897,6.2716,6.2607,6.273,6.3019,6.2693,6.2317,6.2245,6.2136,6.2028,6.1955,6.1992,6.1955,6.1774,6.1774,6.1992,6.2028,6.2028,6.0377,6.0377,6.0377,6.0377,6.0377,6.0377,6.0377,6.0415,6.0453,6.0912,6.1554,6.1593,6.19,6.2498,6.2324,6.2111,6.1968,6.1721,6.1416,6.0967,6.1012,6.053,6.0473,6.0613,6.0774,6.1086,6.1304,6.1485,6.1883,6.1593,6.163,6.1774,6.1593,6.1557,6.1195,6.0688,6.0109,6.0145,6.0145,6.0181,6.0217,6.0,6.0109,6.0109,6.0109,6.0109,6.0072,6.0036,5.9977,5.9928,5.9855,6.0254,6.0579,6.0833,6.134,6.1702,6.1883,6.1919,6.1992,6.2028,6.2209,6.2281,6.2317,6.2173,6.2331,6.2838,6.3164,6.3382,6.3599,6.3925,6.4251,6.4323,6.441,6.4541,6.4613,6.4758,6.4758,6.4758,6.4772,6.4845,6.4867,6.4903,6.4975,6.4917,6.5011,6.4975,6.4794,6.4722,6.4323,6.3816,6.378,6.378,6.3816,6.3852,6.407,6.4215,6.407,6.3635,6.3816,6.3744,6.3866,6.3722,6.3418,6.3056,6.2535,6.2426,6.273,6.2657,6.2426,6.239,6.2643,6.2209,6.2245,6.2064,6.2028,6.0377,6.0377,6.0377,6.0377,6.0377,6.0377,6.0377,6.0453,6.0943,6.144,6.1631,6.2273,6.2673,6.2856,6.2977,6.2896,6.287,6.2878,6.2803,6.2368,6.1777,6.1787,6.174,6.156,6.1684,6.1702,6.1883,6.2028,6.1992,6.2028,6.2028,6.1992,6.2028,6.2028,6.1847,6.1521,6.1267,6.1123,6.1086,6.1086,6.1123,6.1086,6.1123,6.1086,6.1086,6.1086,6.1086,6.1123,6.1123,6.1195,6.1267,6.1521,6.1557,6.1666,6.1883,6.1919,6.1992,6.2028,6.21,6.2535,6.2838,6.2983,6.3309,6.3273,6.3309,6.354,6.4048,6.4229,6.4432,6.4758,6.4939,6.5048,6.5156,6.5301,6.5446,6.5663,6.5663,6.5663,6.5663,6.5663,6.57,6.5663,6.5736,6.5844,6.5989,6.6062,6.6025,6.5917,6.57,6.512,6.4867,6.483,6.483,6.4867,6.4685,6.4722,6.4627,6.4482,6.4649,6.4722,6.4504,6.4359,6.4142,6.3816,6.3382,6.349,6.3816,6.3599,6.32,6.3563,6.3744,6.3056,6.2476,6.2426,6.2354,6.0377,6.0377,6.0377,6.0377,6.0356,6.021,6.0248,6.0509,6.1249,6.1688,6.1972,6.2756,6.3226,6.3372,6.3408,6.3283,6.3115,6.2923,6.2794,6.2485,6.2568,6.2313,6.2225,6.2154,6.1996,6.2028,6.2028,6.2028,6.2028,6.2028,6.2028,6.2028,6.2028,6.2028,6.1955,6.1883,6.1919,6.1883,6.1919,6.2028,6.2028,6.2028,6.2028,6.2028,6.2028,6.2028,6.2028,6.2028,6.2028,6.2028,6.2028,6.1992,6.1992,6.1992,6.1992,6.2028,6.2028,6.2245,6.2512,6.2875,6.3287,6.3794,6.4396,6.4504,6.4504,6.4613,6.4808,6.4953,6.5207,6.5446,6.5591,6.5736,6.5917,6.6098,6.6388,6.6714,6.675,6.675,6.675,6.6714,6.6714,6.6677,6.6714,6.6822,6.6786,6.6605,6.6533,6.6496,6.6351,6.6062,6.5844,6.5772,6.5808,6.5808,6.5591,6.541,6.5482,6.5518,6.5663,6.5627,6.5301,6.4975,6.4794,6.4541,6.4287,6.4396,6.4468,6.4323,6.4142,6.4468,6.4577,6.3997,6.349,6.3418,6.3273,6.0377,6.0377,6.0377,6.0377,6.0335,6.0061,6.0099,6.0502,6.132,6.1881,6.2391,6.3177,6.3718,6.3821,6.3669,6.3372,6.3074,6.2794,6.2526,6.2046,6.2154,6.2114,6.21,6.2028,6.2028,6.2028,6.2028,6.2028,6.2028,6.2028,6.2028,6.2028,6.2028,6.2028,6.2028,6.2028,6.2028,6.2028,6.2028,6.2028,6.2028,6.2028,6.2028,6.2028,6.2028,6.2028,6.2028,6.2028,6.2028,6.2028,6.2028,6.2028,6.2028,6.2209,6.2173,6.2317,6.2476,6.2838,6.3237,6.3613,6.3961,6.4541,6.5229,6.5518,6.5591,6.5591,6.5663,6.5736,6.5953,6.6134,6.6279,6.6315,6.6424,6.6496,6.6641,6.6822,6.6822,6.6822,6.6822,6.6822,6.6822,6.6822,6.6822,6.6822,6.6822,6.6822,6.6822,6.6822,6.675,6.6569,6.6533,6.646,6.6424,6.6351,6.6388,6.6279,6.6496,6.6605,6.6569,6.6496,6.6098,6.5772,6.5446,6.5337,6.5265,6.5011,6.4939,6.5011,6.5084,6.5084,6.5084,6.4794,6.4577,6.4504,6.4106,6.0377,6.0377,6.0377,6.0377,6.037,6.0299,6.0292,6.0502,6.1658,6.2126,6.2478,6.3352,6.3941,6.3907,6.3635,6.3331,6.3097,6.2655,6.2367,6.2168,6.2073,6.2033,6.1992,6.2005,6.1992,6.2028,6.2028,6.2028,6.2028,6.2028,6.2028,6.2028,6.2028,6.2028,6.2028,6.2028,6.2028,6.2028,6.2028,6.2064,6.2136,6.2064,6.2028,6.2028,6.2028,6.2028,6.2064,6.2064,6.2028,6.2028,6.2028,6.2028,6.2028,6.2585,6.2875,6.2983,6.3382,6.3744,6.4106,6.4519,6.4939,6.5337,6.5917,6.6315,6.6496,6.6533,6.6533,6.6554,6.6626,6.675,6.6822,6.6822,6.6822,6.6822,6.6822,6.6822,6.6822,6.6822,6.6822,6.6822,6.6822,6.6822,6.6822,6.6822,6.6822,6.6822,6.6822,6.6822,6.6822,6.6714,6.6714,6.6677,6.6714,6.6714,6.6822,6.6822,6.6822,6.6822,6.6714,6.675,6.6822,6.646,6.6098,6.6315,6.6315,6.5953,6.5844,6.6207,6.6243,6.5917,6.5844,6.5663,6.5844,6.5844,6.5229,6.0377,6.0377,6.0377,6.0292,6.0121,5.9937,5.9866,6.008,6.1018,6.1539,6.1938,6.3079,6.3739,6.3576,6.3273,6.3169,6.2953,6.2655,6.2436,6.2301,6.2168,6.2114,6.2073,6.2019,6.1992,6.2028,6.2028,6.2028,6.2028,6.2028,6.2028,6.2028,6.2028,6.2028,6.2028,6.2028,6.2028,6.2028,6.2064,6.2209,6.2354,6.2281,6.2064,6.2028,6.2064,6.2173,6.2476,6.2585,6.2802,6.2983,6.3164,6.3164,6.3273,6.3526,6.3722,6.3816,6.4106,6.4541,6.4939,6.5337,6.5808,6.617,6.6388,6.6677,6.6714,6.6677,6.6677,6.6714,6.6714,6.6822,6.6822,6.6822,6.6822,6.6822,6.6822,6.6822,6.6822,6.6822,6.6822,6.6822,6.6822,6.6822,6.6822,6.6822,6.6822,6.6822,6.6822,6.6822,6.6822,6.6822,6.6822,6.6822,6.6822,6.6822,6.6822,6.6822,6.6822,6.6822,6.6822,6.6822,6.6822,6.6822,6.6786,6.675,6.6714,6.6677,6.6714,6.6822,6.6822,6.646,6.6533,6.6641,6.6822,6.6822,6.6207,6.0377,6.0377,6.0377,6.0234,5.9858,5.9476,5.9409,5.9609,6.0207,6.0805,6.1447,6.2788,6.3072,6.2941,6.2793,6.2717,6.2654,6.2616,6.25,6.2397,6.2238,6.2158,6.2128,6.2073,6.2019,6.2028,6.2028,6.2028,6.2028,6.2028,6.2028,6.2028,6.2028,6.2028,6.2028,6.2028,6.2028,6.2259,6.244,6.273,6.2693,6.2621,6.2476,6.2317,6.2354,6.2693,6.3142,6.3468,6.3794,6.3975,6.4106,6.407,6.4215,6.4323,6.4504,6.4613,6.4903,6.5301,6.5627,6.5808,6.6243,6.6569,6.675,6.6822,6.6822,6.6822,6.6822,6.6822,6.6822,6.6822,6.6822,6.6822,6.6822,6.6822,6.6822,6.6822,6.6822,6.6822,6.6822,6.6822,6.6822,6.6822,6.6822,6.6822,6.6822,6.6822,6.6822,6.6822,6.6822,6.6822,6.6822,6.6822,6.6822,6.6822,6.6822,6.6822,6.6822,6.6822,6.6822,6.6822,6.6822,6.6822,6.6822,6.6822,6.6822,6.6822,6.6822,6.6822,6.6822,6.6822,6.6822,6.6822,6.6822,6.6822,6.6822,6.0377,6.0377,6.0377,6.0335,6.0181,5.9842,6.0043,6.0585,6.0756,6.1274,6.19,6.246,6.2842,6.2793,6.2793,6.2755,6.273,6.2667,6.2616,6.2539,6.2318,6.2225,6.2181,6.2087,6.2019,6.2028,6.2028,6.2028,6.2028,6.2028,6.2028,6.2028,6.2028,6.2028,6.2028,6.2136,6.239,6.273,6.3056,6.3359,6.3722,6.3671,6.354,6.3635,6.3961,6.4033,6.4142,6.4142,6.4251,6.4323,6.4504,6.4577,6.4794,6.512,6.5301,6.5446,6.5736,6.6062,6.6315,6.6388,6.6677,6.6714,6.6822,6.6822,6.6822,6.6822,6.6822,6.6822,6.6822,6.6822,6.6822,6.6822,6.6822,6.6822,6.6822,6.6822,6.6822,6.6822,6.6822,6.6822,6.6822,6.6822,6.6822,6.6822,6.6822,6.6822,6.6822,6.6822,6.6822,6.6822,6.6858,6.6858,6.6858,6.6822,6.6822,6.6822,6.6822,6.6822,6.6822,6.6822,6.6822,6.6822,6.6822,6.6822,6.6822,6.6822,6.6822,6.6822,6.6822,6.6822,6.6822,6.6822,6.6822,6.6822,6.6822]}]]